GFSNGP_con_lsi_003.txt.gz
Lid_Strength_Index
11 10 9 10 10 10 11 11 15 12 12 10 9 8 8 7 6 6 7 7 7 7 8 8 9 9 9 8 8 7 5 5 5 4 5 4 4 3 3 3 4 5 5 4
15 10 10 12 10 10 10 10 10 10 12 8 7 7 7 7 7 8 8 7 7 7 8 9 9 9 9 9 9 8 8 6 4 4 4 3 2 2 3 4 5 6 5 5
17 12 13 16 13 11 10 9 10 14 10 8 9 8 8 9 8 8 8 8 8 8 9 9 10 9 10 10 9 8 7 6 4 4 4 2 1 2 4 5 6 6 5 5
18 16 20 12 8 8 10 9 8 9 8 8 9 8 8 8 9 9 8 8 8 9 10 10 10 10 10 9 9 8 7 6 4 4 3 2 1 3 4 5 6 6 6 6
17 18 14 11 9 10 11 12 8 9 9 8 8 8 9 8 8 9 9 9 10 10 10 11 11 10 10 9 9 8 6 6 5 3 3 3 3 3 4 6 6 6 6 6
18 20 22 13 8 6 7 15 8 8 9 9 9 15 11 8 8 8 9 9 10 10 11 11 11 10 10 9 9 7 6 5 3 3 3 3 2 3 5 6 6 6 6 6
16 21 16 9 7 6 15 13 8 8 8 9 11 11 9 7 9 9 9 10 9 11 11 11 10 9 9 9 8 6 5 3 3 2 3 3 3 5 6 7 6 8 7 7
16 18 19 7 8 12 9 8 7 7 8 8 8 8 7 9 9 9 10 10 10 11 11 10 9 9 9 9 7 5 4 4 3 3 3 3 5 6 6 7 7 9 11 11
13 14 9 7 8 6 6 7 7 8 7 7 8 8 9 9 9 9 10 11 10 11 10 9 9 8 8 7 6 5 5 5 4 4 4 4 6 7 8 8 10 10 9 13
12 9 8 7 6 5 6 6 6 6 6 7 7 9 10 9 10 11 11 11 11 10 10 10 8 7 7 7 5 5 5 5 5 5 5 5 6 7 8 11 11 9 11 12
11 8 8 7 6 6 6 5 5 5 5 6 9 9 10 11 11 11 12 11 10 10 9 8 8 7 6 6 5 5 5 5 6 7 7 6 7 8 9 9 9 11 12 12
12 8 8 8 6 5 6 6 5 5 8 8 10 11 11 12 11 11 11 10 10 9 8 8 7 7 6 5 6 6 6 7 7 8 8 7 8 8 6 6 6 7 8 12
8 6 6 6 5 4 6 7 8 8 9 11 10 11 11 11 11 10 10 10 9 9 8 7 7 7 6 5 6 7 6 6 8 7 8 9 10 10 12 8 5 6 7 7
5 5 7 5 7 5 6 8 8 9 10 10 11 11 11 11 11 10 10 9 8 8 8 8 7 6 5 5 5 7 6 7 9 10 10 10 8 7 7 8 9 8 7 7
6 5 6 5 5 7 8 9 11 11 11 11 11 11 11 11 11 11 9 9 8 8 8 8 6 5 4 5 6 5 6 8 10 11 12 9 7 7 8 8 8 8 10 9
6 5 6 7 8 9 10 11 11 12 12 12 12 12 10 10 10 10 9 9 10 9 8 8 7 5 5 5 5 5 7 9 10 11 11 7 7 8 8 8 8 8 9 13
8 9 9 9 11 11 11 11 11 11 11 12 12 12 11 12 13 11 11 10 11 8 7 8 6 4 5 5 5 5 9 10 10 11 9 7 7 8 8 8 8 8 10 14
6 8 9 10 11 11 11 12 12 13 13 12 15 17 16 15 13 12 12 9 7 7 6 6 5 5 5 5 6 6 8 9 9 9 7 8 7 8 8 8 8 8 8 13
9 10 10 10 10 12 12 13 14 13 13 15 16 14 14 13 13 11 8 8 7 7 6 5 5 5 5 7 8 10 12 12 9 7 9 12 9 8 7 7 7 7 7 9
10 10 11 11 12 14 14 15 13 12 11 13 15 15 13 14 11 8 7 7 6 6 5 5 4 5 6 7 8 9 13 13 11 8 13 13 12 8 7 7 7 8 7 7
12 12 13 14 15 16 15 14 16 14 11 13 12 11 12 11 12 11 7 7 7 8 6 4 4 4 5 7 8 10 12 13 10 7 13 11 12 10 7 7 7 8 9 9
11 13 14 15 15 13 13 12 10 9 9 9 8 8 8 9 10 8 6 6 6 5 5 4 5 4 4 6 5 6 10 10 8 7 14 12 10 12 9 7 7 7 7 8
12 12 12 14 14 12 10 8 9 8 8 8 9 7 7 7 7 6 7 7 6 4 4 4 4 4 4 4 5 6 7 8 11 11 10 9 8 6 6 7 6 7 6 6
11 10 11 11 12 9 10 8 9 9 8 8 6 5 6 7 7 7 6 4 5 4 4 4 4 4 4 5 6 6 9 8 7 9 9 11 7 6 5 6 6 6 6 6
11 10 11 11 10 9 8 7 8 8 8 6 6 8 8 9 8 5 4 4 4 4 4 4 4 4 4 5 5 6 7 7 7 7 7 7 7 6 6 7 5 5 6 6
8 9 8 7 7 7 7 8 8 8 10 11 11 11 11 9 5 4 4 4 4 4 4 4 4 4 4 4 5 6 6 6 6 6 6 7 7 6 6 6 6 6 5 5
8 9 9 8 7 8 9 9 9 8 6 6 6 9 8 5 6 6 4 4 4 4 4 4 4 4 4 4 4 5 5 5 5 5 5 6 6 6 6 6 6 6 6 7

GFSNGP_con_lsi_006.txt.gz
Lid_Strength_Index
12 11 11 11 12 12 12 12 15 13 12 11 9 9 8 8 8 9 9 8 8 9 10 11 11 11 11 11 10 10 10 10 9 7 7 6 5 5 3 2 2 3 5 5
15 11 11 13 11 11 11 11 11 12 13 9 9 8 9 9 9 9 9 9 9 9 10 11 11 11 11 11 10 10 10 9 7 6 6 6 5 4 3 3 4 4 5 5
17 14 14 17 13 11 11 10 11 14 11 9 9 9 10 10 9 9 9 9 9 10 11 11 12 11 12 11 10 10 10 8 7 6 6 5 4 3 3 4 3 5 5 6
19 18 22 12 9 9 11 10 9 9 9 9 9 9 10 9 10 9 9 9 9 11 11 11 12 12 11 11 11 10 9 8 7 7 6 5 4 3 3 4 5 6 7 6
20 19 16 12 10 10 12 13 9 9 9 9 9 9 10 9 8 9 9 10 10 11 11 12 12 11 11 11 11 10 8 8 7 6 5 5 4 3 3 5 7 6 6 7
17 22 23 14 9 7 8 15 8 8 9 10 10 16 12 8 8 9 10 10 11 11 12 12 11 11 11 11 10 10 8 7 6 5 4 4 4 4 5 7 6 6 7 7
19 23 17 11 8 7 15 14 8 9 9 9 11 11 9 8 8 10 10 10 11 11 12 11 11 11 11 11 10 9 7 7 6 5 4 4 4 6 6 7 7 9 8 8
19 21 19 9 8 12 10 9 8 8 8 9 8 8 8 8 10 10 12 12 11 12 12 11 11 10 11 11 9 8 7 7 6 6 5 5 6 6 7 7 9 11 14 12
13 13 10 8 8 7 7 8 8 9 8 8 8 8 9 10 11 12 12 13 12 12 12 11 10 10 11 10 8 8 7 7 7 6 6 6 7 8 9 10 12 11 10 14
12 9 8 7 7 6 6 8 8 7 7 6 8 9 11 12 12 13 13 13 12 12 12 11 10 9 9 8 8 8 8 7 7 7 6 6 7 7 9 12 13 10 11 12
12 9 8 7 7 6 7 7 7 6 6 6 9 12 12 13 12 12 13 12 12 12 11 11 10 9 8 8 7 8 7 7 7 8 7 7 8 8 8 9 9 12 12 12
12 8 8 8 7 6 7 6 5 5 10 10 11 12 12 13 12 12 12 12 12 11 11 10 9 9 8 8 7 7 7 7 8 9 9 7 7 7 6 6 7 6 7 12
8 6 6 6 6 6 6 6 7 9 10 12 12 12 12 13 12 12 12 12 11 11 10 10 10 10 8 7 6 6 6 6 7 8 9 9 10 10 12 9 6 5 6 7
5 6 7 6 7 5 8 9 9 11 11 12 12 12 12 12 12 12 12 11 10 10 9 10 10 9 7 6 6 8 7 7 8 9 11 11 13 10 8 11 14 12 8 7
6 6 6 6 7 8 9 10 11 12 12 12 12 12 12 12 12 12 11 11 10 10 10 9 8 8 6 5 6 6 6 8 9 12 12 12 12 11 10 9 11 11 13 9
6 7 6 7 10 10 10 11 12 12 13 13 13 13 13 12 12 11 11 11 12 11 9 8 8 7 5 4 5 6 6 8 12 11 9 9 12 11 9 10 11 11 12 14
9 10 10 10 11 11 11 11 11 12 12 13 13 14 13 14 14 12 12 12 12 9 8 7 8 5 5 4 5 6 6 7 8 8 8 8 12 11 9 10 12 11 11 15
9 9 10 10 11 11 11 12 13 13 13 13 17 20 20 19 16 14 13 12 10 8 7 7 6 6 5 4 5 7 7 7 8 8 11 13 12 11 11 12 12 12 11 11
10 10 11 11 11 13 13 13 14 14 16 17 18 16 16 15 15 13 12 13 9 8 8 7 6 5 4 4 6 10 13 14 13 11 8 12 16 9 8 10 12 11 12 12
11 11 11 12 13 14 14 15 16 14 12 15 19 19 15 14 14 13 12 11 8 8 9 8 6 5 5 5 5 7 12 15 13 12 15 15 17 12 8 10 10 13 14 13
12 13 14 14 14 15 16 16 18 16 13 13 11 11 10 10 9 13 12 10 8 10 8 5 7 5 4 4 5 8 10 12 14 12 10 9 16 15 9 8 10 13 15 15
12 13 14 15 16 14 15 15 12 11 10 10 9 9 9 8 8 12 12 9 6 8 6 5 5 4 4 4 5 5 6 7 9 10 10 12 14 13 12 9 10 8 10 11
11 12 12 14 15 13 12 12 12 12 11 10 8 10 10 7 7 8 8 7 7 5 4 4 4 4 4 4 4 5 6 7 7 8 9 10 11 12 10 7 7 7 7 7
11 10 12 13 14 13 11 8 10 10 11 10 10 8 6 7 7 8 7 8 7 4 4 4 4 4 4 4 4 4 5 6 6 7 8 9 8 8 9 8 7 7 7 8
12 11 11 12 10 9 8 8 9 9 9 9 8 6 7 7 7 8 8 6 5 4 4 4 4 4 4 4 4 5 6 6 6 6 7 7 6 6 6 7 6 5 6 7
8 9 9 8 8 8 8 9 10 11 9 9 7 7 7 7 8 6 5 5 5 5 4 4 4 4 4 4 4 4 4 5 5 6 6 6 6 6 5 6 6 6 5 5
9 11 9 8 8 8 10 8 7 7 10 10 10 10 9 7 6 6 6 5 5 5 5 5 6 5 5 5 4 4 4 4 4 5 5 5 5 5 5 5 6 6 5 6

GFSNGP_con_lsi_009.txt.gz
Lid_Strength_Index
12 11 12 12 12 12 13 13 15 13 13 11 10 10 10 9 9 9 10 9 9 10 10 11 12 12 12 11 11 11 11 10 9 8 9 9 8 8 7 6 5 4 5 5
15 11 12 14 13 13 13 12 12 12 13 9 9 9 9 9 10 10 10 9 9 9 10 11 12 12 12 11 11 10 11 10 9 9 8 8 7 7 5 5 4 6 4 5
18 14 15 18 14 11 12 11 12 14 11 10 10 10 10 10 10 10 9 9 9 10 11 11 12 12 12 12 11 11 11 10 9 9 8 8 7 6 5 5 5 5 7 7
19 19 22 13 10 10 11 11 10 11 10 9 9 10 9 10 10 10 10 9 9 10 12 12 12 12 12 12 11 11 11 10 9 9 9 8 7 6 6 4 5 7 7 7
20 20 16 13 10 11 12 12 9 10 10 10 10 11 11 9 9 9 9 9 10 11 12 12 12 12 12 12 12 11 11 10 9 9 8 7 7 6 6 5 7 7 7 7
18 22 23 15 10 8 9 15 8 9 10 10 11 16 12 9 9 8 8 10 11 12 12 13 12 12 12 12 12 12 11 9 9 8 8 7 7 7 6 8 7 7 7 8
21 23 17 12 9 8 15 14 8 8 9 10 11 11 10 9 8 9 11 12 12 12 13 12 12 12 12 12 12 11 10 9 9 8 8 8 7 7 8 7 7 8 8 9
18 21 19 10 9 12 10 10 8 8 9 9 10 9 8 8 10 12 12 13 12 13 13 12 12 12 12 12 11 10 9 9 9 8 8 7 8 8 8 8 9 10 14 13
14 14 10 9 9 8 8 8 8 8 8 8 9 9 8 11 12 13 13 13 13 13 12 12 12 12 12 11 10 10 9 9 8 8 8 8 8 9 9 9 11 11 10 14
13 10 9 9 7 6 7 7 8 7 8 8 8 9 11 12 13 13 14 14 13 13 13 13 12 11 11 10 9 9 9 8 7 8 8 8 8 8 9 11 11 9 11 12
12 10 9 7 7 7 7 7 7 7 7 7 9 12 11 12 13 13 14 13 13 13 13 12 11 11 11 10 9 9 8 7 7 8 8 8 8 8 8 8 8 10 12 12
13 9 9 9 7 6 7 7 6 7 9 10 10 12 12 13 13 13 13 13 13 13 12 12 11 11 11 10 9 8 7 7 7 6 8 7 8 8 5 5 5 5 6 12
8 8 8 7 7 6 6 6 6 10 11 11 11 12 12 13 13 13 13 13 13 12 12 12 11 12 11 9 8 7 8 7 6 6 8 9 9 10 13 9 6 5 5 6
6 6 9 8 7 6 8 9 9 11 11 11 12 12 13 13 13 13 12 12 12 12 12 12 11 10 9 8 7 7 7 8 7 8 7 9 10 11 13 13 14 13 9 6
6 6 7 6 7 10 11 11 12 12 12 12 12 13 13 13 13 12 12 12 12 12 12 11 10 9 8 7 6 6 6 6 8 8 9 10 9 11 12 13 13 14 13 11
7 7 7 9 11 11 11 11 12 13 12 12 13 13 13 12 12 12 12 12 14 13 12 10 9 8 7 6 5 5 6 6 8 9 9 8 8 12 11 12 13 14 15 15
10 11 12 12 11 10 10 11 11 12 12 13 13 13 13 15 14 13 13 14 16 15 12 11 10 6 6 6 5 5 5 6 7 7 7 10 11 12 10 12 12 15 14 16
9 10 9 10 11 12 12 12 12 13 13 13 17 19 19 19 16 15 15 14 15 13 11 9 9 7 6 5 5 5 6 6 7 7 7 10 12 13 13 12 11 14 14 14
11 11 10 10 10 11 12 13 14 13 16 17 17 16 17 17 15 14 15 16 14 12 9 10 9 8 6 6 5 5 6 8 9 10 11 12 16 15 15 13 11 14 13 15
10 10 11 12 13 13 13 14 15 13 12 15 18 18 13 14 17 16 16 13 10 9 9 9 8 7 7 6 5 5 5 7 10 11 16 15 17 16 15 13 11 11 13 15
12 13 13 13 14 14 15 16 16 15 14 14 12 12 11 10 9 9 11 11 9 10 9 8 6 6 5 5 4 4 5 7 10 11 11 11 12 13 13 11 10 10 11 13
12 13 14 14 14 14 14 14 12 12 13 13 11 9 9 9 10 8 9 9 8 10 9 8 6 5 5 5 4 4 4 6 6 6 8 8 9 9 9 10 10 10 9 10
12 12 12 13 13 12 13 14 14 14 13 12 12 11 9 9 8 8 8 9 10 10 9 7 7 6 4 4 4 4 4 5 5 6 6 6 7 8 8 9 8 8 7 7
11 11 12 13 15 14 12 9 10 10 12 11 11 11 10 7 6 6 7 9 11 10 7 5 5 5 4 4 4 4 5 5 5 5 5 6 6 6 7 8 7 7 7 8
12 11 12 12 10 9 9 8 9 10 10 9 8 8 6 6 6 8 9 7 7 7 8 7 6 5 5 4 4 4 4 4 5 5 5 6 6 6 7 6 6 6 6 6
8 9 9 8 9 9 9 10 11 9 8 9 9 10 10 10 9 7 7 7 8 9 10 7 7 8 9 10 10 9 8 7 6 5 5 5 5 5 5 5 5 5 5 5
10 11 10 9 8 8 9 8 7 7 7 8 8 7 7 7 9 7 8 10 11 12 12 13 14 14 13 15 15 15 14 13 13 13 12 10 7 5 5 5 5 5 5 5

GFSNGP_con_lsi_012.txt.gz
Lid_Strength_Index
13 12 13 13 13 12 13 14 15 15 14 12 10 10 10 10 10 10 10 10 10 10 11 11 11 12 12 12 12 11 12 12 11 10 10 9 9 9 9 8 6 5 6 7
15 12 13 14 13 13 13 13 13 13 13 10 10 10 10 10 10 11 10 10 9 9 10 11 11 12 12 12 12 11 11 11 10 10 10 9 9 9 8 8 7 6 7 7
19 15 16 18 14 13 13 13 13 15 12 10 11 10 10 10 10 10 10 9 9 9 9 10 11 12 13 12 12 12 12 11 10 10 10 10 10 9 8 8 7 6 7 8
20 19 22 14 12 11 11 11 11 11 11 10 10 10 9 9 10 10 10 10 9 9 10 11 12 12 12 12 12 12 12 11 10 10 10 10 10 9 8 7 7 7 8 8
20 21 17 14 11 11 12 12 10 10 11 10 10 10 10 9 9 10 10 10 9 10 11 12 13 13 13 13 13 12 12 12 11 10 10 10 9 9 8 8 8 8 7 7
21 23 23 15 12 9 10 15 9 9 10 10 10 14 10 9 9 10 9 10 10 11 12 13 13 13 13 13 12 12 12 11 10 10 10 10 9 9 8 9 8 7 7 8
21 24 18 13 10 9 15 14 9 9 10 10 11 10 10 9 9 9 11 12 12 12 13 13 13 12 13 13 13 12 11 11 10 10 10 9 9 9 9 9 8 9 8 8
20 23 20 11 10 12 10 11 9 9 9 9 9 10 9 8 11 12 13 13 12 13 13 13 13 13 13 13 12 11 11 11 11 10 9 8 9 9 9 9 9 11 13 12
15 15 12 10 10 9 9 9 9 9 8 8 10 9 8 11 12 13 13 13 13 13 13 13 13 13 13 12 12 11 11 11 10 9 8 8 9 10 10 10 12 11 10 13
13 11 10 10 9 8 7 8 8 7 8 8 9 8 11 13 13 13 13 13 13 13 14 13 12 12 12 12 11 11 11 10 10 9 8 8 8 8 9 12 12 10 11 11
13 10 10 9 8 7 7 7 7 7 7 8 9 11 11 12 13 13 13 13 13 13 13 13 12 12 12 12 11 11 10 9 9 9 8 8 8 8 8 8 9 10 11 12
13 9 10 9 8 7 7 7 7 7 8 9 10 11 12 13 13 12 14 13 13 13 13 13 12 12 12 12 11 11 8 8 7 7 7 8 8 8 6 5 5 5 5 10
9 9 9 9 8 7 7 7 7 8 10 11 11 11 12 13 12 13 13 13 13 13 13 13 13 12 12 11 10 9 8 7 7 7 7 9 9 9 11 8 6 5 5 5
7 8 9 8 8 7 7 8 10 11 11 11 12 12 12 13 13 13 13 12 12 13 12 12 12 12 11 10 9 8 7 7 8 8 8 8 8 8 10 13 11 13 9 6
7 7 8 8 10 11 11 11 12 12 12 12 11 12 13 14 13 13 12 12 12 12 12 12 12 11 10 9 8 7 6 6 7 7 8 8 9 10 11 12 11 12 14 11
8 8 9 12 12 12 12 11 12 13 13 12 12 13 13 13 13 12 12 12 14 13 12 14 13 10 9 8 7 6 5 6 7 8 8 9 11 11 11 11 10 11 15 14
11 13 13 12 12 11 11 11 12 12 11 12 13 13 12 14 15 13 13 14 16 15 14 14 12 9 8 8 7 6 5 5 7 8 8 7 7 9 11 12 11 11 13 16
11 10 10 11 11 12 12 11 12 12 13 13 15 16 17 17 14 15 15 16 18 15 13 11 10 9 8 7 7 7 6 6 6 7 7 7 7 8 11 12 12 12 11 16
10 10 10 10 10 11 12 13 14 13 15 15 16 15 16 15 16 14 17 18 17 14 10 11 10 10 8 7 7 7 6 6 6 7 7 8 12 12 12 13 13 13 12 12
10 10 11 12 13 13 13 14 14 13 13 15 16 14 14 15 18 18 16 12 11 10 10 10 10 10 8 7 7 6 5 5 6 7 9 11 13 14 14 14 12 11 11 12
13 13 13 13 13 14 14 14 15 14 14 15 14 14 13 12 10 10 10 10 9 11 10 11 10 9 7 8 7 5 5 5 5 7 8 9 9 9 10 10 10 9 9 10
12 13 13 14 13 13 13 14 14 14 15 16 15 14 12 9 9 10 7 8 7 10 11 11 10 10 8 9 6 5 5 4 5 6 7 7 7 7 7 8 8 7 7 8
11 12 13 15 15 13 13 14 14 14 13 13 12 12 13 9 8 9 8 8 7 11 12 10 8 7 9 6 6 5 5 5 5 5 6 6 6 6 6 6 6 7 7 7
11 11 12 14 15 13 11 9 9 10 13 11 11 12 12 12 11 8 7 8 12 9 8 7 7 10 7 7 6 6 6 5 5 6 6 6 6 6 6 6 6 6 6 6
12 11 12 11 10 10 9 9 10 10 10 9 8 8 9 10 7 7 7 8 7 7 8 9 9 11 12 15 15 13 12 11 11 11 11 11 9 7 6 6 6 6 6 6
10 10 10 10 10 10 10 10 10 9 8 8 7 7 7 8 10 9 7 7 7 9 10 12 15 16 17 18 18 19 18 16 16 16 16 16 15 14 12 11 8 6 6 6
10 10 10 10 10 10 10 10 10 10 9 8 8 7 7 6 6 6 6 6 11 10 13 14 17 17 18 18 18 18 18 19 19 17 17 16 16 16 15 15 14 12 7 5

GFSNGP_con_lsi_015.txt.gz
Lid_Strength_Index
12 11 11 11 11 11 11 11 13 12 12 10 8 8 7 7 8 8 8 8 8 8 9 9 9 9 8 8 8 8 8 9 8 7 7 7 7 7 6 6 5 4 5 5
13 12 12 12 11 11 11 11 11 11 11 8 8 7 8 8 8 8 8 8 8 8 8 10 9 7 8 8 8 8 9 9 8 8 7 7 7 7 6 6 5 5 5 4
15 14 14 15 12 11 11 10 10 12 9 8 8 8 7 8 7 8 8 8 8 8 7 8 8 8 8 8 8 9 9 9 9 8 8 7 7 7 7 6 5 4 4 5
15 16 17 11 10 10 11 10 9 9 9 8 8 8 7 6 7 7 7 7 7 7 7 7 8 9 9 9 10 10 10 9 9 8 8 7 7 7 7 6 5 4 5 5
15 16 14 12 12 10 11 10 8 9 8 9 8 7 7 6 6 6 6 6 7 7 7 9 9 9 10 10 10 10 10 9 8 8 8 7 8 7 6 6 5 5 5 5
17 16 17 12 11 8 8 13 8 7 8 9 8 11 8 6 6 6 6 7 8 9 10 10 10 10 10 10 10 10 9 9 8 8 8 8 7 7 6 5 6 5 5 5
19 15 14 11 9 8 13 11 8 7 8 8 8 7 6 6 7 6 8 10 11 10 11 11 10 10 11 10 10 10 9 9 8 8 8 7 7 6 6 6 6 6 6 6
17 17 16 10 8 11 8 8 7 7 7 7 6 8 7 7 9 10 11 11 11 11 11 11 11 11 11 11 10 10 9 9 8 8 8 8 6 6 6 6 6 6 6 6
13 12 9 9 7 7 7 7 7 7 6 6 7 8 7 9 11 11 12 11 10 11 11 11 11 10 11 10 10 10 10 9 9 8 8 7 6 6 6 6 6 6 6 5
11 9 10 8 7 7 6 6 6 5 5 6 7 7 9 11 12 12 11 11 11 12 12 12 11 11 10 10 10 10 10 9 8 8 8 6 6 6 6 6 5 5 5 6
11 9 8 8 7 5 5 6 6 5 5 6 6 8 10 11 13 13 12 12 12 12 12 12 11 11 10 10 10 10 10 9 9 8 8 7 5 5 6 5 4 4 5 5
11 7 8 7 7 6 6 6 6 6 7 7 7 9 11 12 12 12 11 12 12 12 12 11 11 11 10 10 10 10 10 9 8 7 7 6 5 5 5 5 5 5 5 5
7 7 7 7 7 6 6 6 6 6 8 10 10 11 12 12 11 10 12 12 12 12 11 11 11 10 10 10 10 10 10 8 7 6 6 6 6 5 5 4 6 5 5 5
6 6 7 6 7 7 8 10 10 10 11 11 11 11 11 11 12 12 12 12 11 12 11 11 11 10 10 10 10 9 8 7 6 6 6 5 5 5 5 5 5 5 5 6
7 6 7 10 10 11 10 10 11 11 11 11 10 10 10 12 12 12 12 11 12 12 11 11 11 10 9 9 9 8 7 6 6 5 5 5 5 5 5 5 6 5 5 6
10 11 11 12 12 11 11 11 12 12 11 11 11 11 11 12 12 11 11 11 13 12 11 11 12 10 9 8 7 6 6 6 6 6 5 5 5 6 6 5 5 5 5 5
11 13 12 12 11 11 11 11 10 10 10 10 10 11 11 12 13 12 11 12 12 12 12 12 11 8 8 7 6 6 6 5 6 6 5 5 5 5 5 5 5 5 5 4
10 10 10 10 11 11 11 10 11 11 11 12 13 13 13 13 12 12 12 13 14 13 12 10 9 8 7 6 6 6 6 6 6 6 5 5 5 5 4 5 5 6 5 5
10 10 10 9 9 10 11 11 12 12 13 13 12 12 12 12 12 12 12 14 13 12 8 7 8 8 7 6 6 5 5 5 5 6 5 5 5 5 5 5 5 5 6 5
10 10 11 12 12 12 12 12 12 11 11 12 13 12 12 12 13 13 12 12 9 8 7 7 7 7 7 6 7 5 6 6 6 5 5 5 5 6 5 6 6 5 5 5
12 12 13 13 13 13 13 13 13 11 11 13 13 12 12 11 9 8 8 8 7 7 7 7 7 6 6 6 6 6 6 6 6 5 5 5 5 5 5 5 5 5 5 5
11 11 12 13 13 11 12 12 11 12 11 12 12 12 11 9 8 7 7 7 5 6 5 5 6 7 6 7 6 6 6 6 5 5 5 4 5 5 5 4 4 4 4 4
10 10 12 12 12 11 11 11 11 11 11 10 10 10 9 8 8 8 8 5 5 5 5 5 6 7 7 6 5 5 6 6 6 5 5 5 5 5 5 4 4 4 4 4
10 10 11 11 12 10 11 10 10 9 10 9 8 8 9 9 8 6 6 6 6 6 6 5 5 6 8 7 9 9 9 10 10 10 10 11 10 9 8 7 6 5 4 4
10 10 10 11 11 11 11 10 10 9 9 9 8 8 7 6 7 7 6 6 6 6 5 6 10 11 10 11 12 12 13 13 13 13 13 13 13 12 12 11 10 9 9 8
11 11 11 11 12 11 12 12 13 11 11 11 10 9 8 7 7 6 6 6 5 5 6 10 11 12 12 13 14 14 14 14 14 15 15 14 14 13 13 13 13 12 12 11
11 12 13 12 13 14 15 15 15 15 13 13 13 11 11 9 8 8 7 6 5 8 11 13 13 14 14 15 15 15 15 15 16 16 16 15 15 15 15 15 14 13 13 12

GFSNGP_con_lsi_018.txt.gz
Lid_Strength_Index
10 10 9 9 9 9 9 9 11 9 9 8 6 6 5 5 5 5 5 5 5 5 5 6 7 7 6 5 5 5 6 6 6 6 6 6 6 6 5 5 5 5 5 4
12 10 9 10 9 8 9 8 9 8 9 5 5 5 5 5 5 5 5 5 5 4 5 6 6 7 5 4 5 6 6 6 6 6 6 6 6 6 6 6 5 5 5 4
13 11 11 14 10 9 8 8 8 10 7 6 6 6 5 5 5 5 4 4 4 4 5 5 6 5 5 5 6 7 7 7 7 6 7 6 6 6 6 6 5 5 4 3
13 13 19 9 8 8 8 7 6 7 6 6 6 5 5 4 4 4 4 4 4 3 5 5 5 5 5 6 7 7 8 8 7 7 7 7 6 6 6 5 6 5 4 4
16 13 11 10 9 9 9 9 6 6 6 6 6 5 5 4 3 3 3 3 3 3 4 6 6 6 7 7 8 8 8 9 8 8 8 7 7 6 6 6 6 5 4 4
13 18 19 9 8 6 6 11 6 6 6 6 6 9 5 4 3 3 2 2 4 5 6 7 7 8 8 8 9 9 9 8 8 8 8 7 7 6 6 6 6 5 4 3
13 16 11 8 8 6 12 10 5 6 6 6 7 5 4 3 3 2 2 3 5 6 7 8 8 8 9 9 10 9 9 8 8 8 7 7 6 6 6 6 6 4 5 3
13 17 17 7 6 10 7 5 5 5 5 5 4 4 4 4 3 3 4 6 7 7 8 9 9 9 10 10 9 9 8 8 8 7 7 7 7 6 6 6 5 5 5 4
10 9 7 6 5 4 5 5 5 5 4 4 4 4 4 5 5 6 7 8 8 10 10 10 9 9 10 9 9 9 9 8 7 6 7 7 7 6 6 5 5 5 4 4
9 7 6 6 5 4 4 4 4 3 3 3 4 4 5 6 7 8 8 10 10 11 10 10 10 10 9 9 9 9 9 8 7 8 8 8 7 6 5 5 5 5 4 4
8 7 6 5 4 4 4 3 3 3 3 4 4 4 4 6 7 9 12 10 10 10 11 10 10 9 9 9 10 10 8 8 8 8 8 8 8 7 5 4 4 4 4 4
9 6 6 5 4 4 4 4 4 4 4 4 4 4 5 9 10 10 9 11 12 11 11 10 10 10 10 10 9 9 9 8 8 7 7 7 7 6 6 6 6 6 5 4
6 5 4 4 4 4 4 6 6 6 6 7 8 9 10 10 10 10 9 11 11 11 10 11 10 11 10 9 9 9 9 9 7 7 6 6 5 6 5 4 5 5 5 4
5 4 6 6 7 7 7 7 7 8 8 9 9 9 10 11 11 11 11 10 10 11 11 10 10 10 10 9 9 9 8 9 6 5 5 5 5 5 5 5 5 4 4 4
7 5 7 7 7 7 7 8 9 10 10 11 10 10 10 11 11 11 10 10 10 10 10 10 10 10 8 8 8 8 7 6 5 5 6 5 5 4 4 4 4 4 4 4
8 7 8 9 9 9 10 11 11 11 10 10 9 9 8 9 10 10 9 9 10 10 9 9 10 9 7 7 6 5 5 6 6 5 5 6 5 5 5 4 4 4 4 4
9 11 10 11 11 11 11 10 10 10 8 8 8 8 9 10 10 9 9 8 9 9 9 9 9 6 5 5 4 4 4 4 5 4 5 5 4 4 4 3 3 4 3 3
8 9 10 10 10 10 10 8 9 9 9 10 11 11 10 10 10 9 9 9 10 10 9 7 6 5 5 4 4 4 4 4 4 4 5 5 5 4 4 3 3 3 3 3
9 9 9 9 9 10 11 11 11 10 10 10 10 9 9 10 9 9 10 10 10 9 6 4 6 7 5 5 5 4 4 4 5 4 4 5 5 5 4 3 3 3 3 3
10 10 10 11 10 11 10 10 9 8 8 9 10 9 9 8 9 9 8 8 6 5 4 5 5 5 5 4 5 4 3 4 6 6 5 4 5 5 4 4 4 3 3 3
11 11 11 11 10 10 10 9 9 9 8 9 9 9 9 8 7 7 7 6 4 4 4 5 5 4 3 4 4 3 4 5 5 5 5 5 5 4 4 4 4 4 4 4
9 9 9 9 9 9 9 9 9 9 9 9 9 9 9 8 8 7 6 7 5 6 4 4 4 4 3 5 4 4 4 4 4 4 5 5 5 5 5 4 4 4 3 3
8 8 8 9 9 9 9 10 10 9 9 9 9 8 9 8 8 9 9 6 6 6 6 5 5 5 5 5 4 4 4 5 6 6 6 6 6 7 6 6 5 4 4 4
8 9 9 9 10 10 11 10 10 9 9 8 8 8 8 8 8 6 6 7 7 6 5 5 5 5 5 5 5 6 6 7 7 8 8 9 8 8 8 8 8 7 6 6
10 10 10 10 10 10 11 10 10 9 10 10 9 9 9 9 9 7 7 7 7 6 5 5 8 9 7 7 8 9 8 8 9 10 10 10 10 10 10 9 9 9 9 8
10 10 10 11 11 11 11 11 11 11 11 11 11 10 10 9 9 9 9 9 8 10 10 10 12 10 10 11 10 11 10 10 10 11 11 11 11 11 11 11 11 10 10 9
11 11 10 10 11 12 12 12 12 13 12 12 13 11 11 11 11 12 12 11 11 12 11 11 12 13 12 12 12 12 12 12 13 13 12 13 13 13 13 13 12 12 11 10

GFSNGP_con_lsi_021.txt.gz
Lid_Strength_Index
8 8 8 8 8 8 9 9 11 9 9 7 6 6 5 4 4 4 4 4 3 3 3 3 3 4 5 4 4 5 6 6 5 5 5 5 6 6 5 6 6 6 6 5
11 8 9 9 8 8 8 8 8 8 8 5 5 4 5 4 4 4 4 4 3 3 3 3 4 5 5 4 4 4 5 6 5 5 5 6 6 6 6 6 6 6 6 6
12 10 10 14 10 8 8 7 7 10 7 5 6 5 5 4 4 4 4 4 3 3 3 2 3 4 5 4 5 5 6 6 6 6 6 6 6 7 6 6 6 6 6 6
12 13 18 9 6 7 7 7 6 6 6 5 5 4 4 4 4 4 4 3 3 3 2 2 2 4 4 5 5 6 6 6 6 7 7 7 7 7 7 6 6 6 6 6
16 12 10 8 8 8 9 8 6 6 6 5 5 5 5 3 3 3 3 2 2 2 2 1 3 4 5 6 6 6 7 7 7 8 8 8 8 7 7 6 6 6 6 6
12 17 19 9 7 5 6 10 6 6 6 5 5 8 6 4 3 3 2 2 2 2 1 2 4 4 6 7 7 7 8 8 8 8 8 8 8 7 6 6 6 6 6 6
13 15 11 7 6 5 11 10 5 5 5 5 6 5 4 3 3 2 2 2 2 2 3 4 6 6 7 8 9 8 8 8 9 8 8 8 7 7 6 7 6 6 6 5
12 16 17 6 6 10 7 4 4 4 4 5 4 4 3 3 3 3 3 2 3 4 5 7 7 7 8 9 8 9 9 9 9 8 8 7 7 6 7 7 7 6 5 5
9 9 5 5 5 4 4 4 4 4 4 4 4 4 3 4 3 3 3 4 5 7 9 9 8 9 10 9 9 9 9 9 9 8 7 7 7 7 7 6 6 5 6 5
8 6 6 5 4 4 4 4 3 3 3 3 4 4 4 3 4 4 5 7 8 8 9 10 9 9 9 9 9 9 10 9 8 8 8 7 7 7 6 5 5 5 5 5
8 6 5 5 4 4 4 3 3 3 3 4 4 4 3 3 5 6 8 8 9 11 11 10 9 9 9 9 9 10 10 9 9 8 7 8 7 6 6 4 4 4 4 4
9 6 6 5 4 3 4 4 4 4 4 4 3 3 4 8 9 9 10 11 11 10 10 10 9 10 9 9 10 10 10 9 8 8 7 6 6 5 5 5 5 6 6 5
6 4 4 4 5 5 5 6 5 6 6 7 7 7 8 9 10 10 10 10 10 10 9 9 9 9 9 8 9 9 10 9 8 7 5 5 5 5 5 4 5 5 5 5
4 4 6 5 6 5 5 6 6 8 8 9 9 9 9 9 9 10 10 9 8 9 9 8 8 8 7 7 8 8 8 8 6 4 4 5 4 5 4 4 5 4 4 4
6 5 5 5 5 6 6 8 9 10 10 10 9 9 9 9 9 9 8 7 8 8 7 7 7 7 6 6 6 6 5 4 4 4 4 5 5 5 5 4 4 4 3 4
6 6 6 7 8 8 8 9 11 11 10 9 9 8 8 8 8 8 7 6 7 7 6 8 8 6 5 4 4 3 3 5 6 5 4 4 4 4 4 4 4 4 4 3
8 9 9 10 9 10 10 9 8 8 8 9 10 10 9 9 8 7 7 6 7 9 7 7 7 4 4 3 3 3 3 3 5 4 4 4 4 4 4 4 4 4 4 2
7 8 8 8 9 9 9 9 10 10 11 10 11 11 10 10 9 8 7 7 8 7 6 5 4 4 3 3 3 3 4 4 4 4 4 4 4 4 4 4 4 4 3 3
8 9 9 9 9 10 10 11 11 11 11 10 10 10 9 9 7 7 7 8 7 6 4 3 6 6 4 4 5 4 4 4 4 4 4 4 4 4 4 4 4 4 3 3
9 9 10 10 10 10 11 11 9 8 7 9 9 9 9 8 8 8 7 7 6 4 3 3 4 5 5 5 5 4 4 3 4 4 4 4 4 4 4 4 4 4 4 4
10 10 10 11 11 11 10 9 9 9 8 9 10 10 10 9 8 8 8 8 6 5 6 5 5 4 4 4 4 4 3 4 4 4 4 4 5 4 4 4 4 4 4 4
9 10 11 9 9 9 9 9 9 10 10 10 9 9 9 8 7 7 7 7 6 7 6 5 5 6 6 6 5 5 5 4 4 4 4 4 4 5 5 5 5 5 4 4
9 9 9 9 9 9 9 10 9 10 10 10 9 9 9 8 7 8 9 7 7 7 7 6 7 7 6 5 5 5 5 4 4 5 6 6 6 6 6 6 6 6 6 6
8 8 9 9 9 10 10 10 10 10 9 9 8 9 9 9 9 8 8 8 9 9 8 10 10 10 8 7 6 7 6 6 6 7 7 7 7 7 7 7 8 8 8 7
9 9 9 9 9 9 10 10 10 9 10 9 9 9 9 9 10 9 9 10 11 11 10 10 11 11 9 9 9 9 9 8 9 9 9 9 9 9 9 8 9 9 9 9
8 8 9 10 10 10 10 10 10 10 10 10 10 10 9 9 10 11 11 11 11 11 11 11 11 12 12 12 11 11 11 11 12 12 12 11 11 11 10 10 11 10 10 10
10 10 9 9 10 10 10 11 11 11 10 11 12 10 10 11 11 11 12 12 12 12 12 12 12 12 13 13 13 13 13 13 13 13 13 13 13 12 12 12 12 11 11 11

GFSNGP_con_lsi_024.txt.gz
Lid_Strength_Index
8 8 8 9 9 8 9 9 13 11 9 8 6 6 5 4 4 4 4 4 4 4 3 3 3 3 4 4 4 4 5 6 6 6 6 6 5 6 6 6 7 7 7 7
11 9 9 10 9 8 8 8 9 9 9 6 5 5 5 5 5 4 4 4 4 3 3 3 3 3 3 4 4 3 5 6 5 5 6 6 6 6 6 7 7 7 7 7
14 10 10 14 11 9 8 7 8 10 8 6 6 6 5 5 4 4 4 4 4 3 3 3 3 2 3 4 3 4 6 5 5 6 6 7 7 8 8 8 7 7 7 8
15 13 17 9 6 7 8 7 7 7 6 6 6 5 4 4 4 4 3 3 3 3 3 2 2 3 3 4 4 5 6 6 6 6 7 8 8 8 8 7 7 8 7 7
17 14 11 9 7 8 8 9 6 7 6 6 5 5 5 4 3 4 3 3 3 2 2 2 2 3 4 5 6 6 7 7 7 8 8 8 8 8 8 8 8 7 6 7
13 17 19 10 7 5 6 11 6 6 6 6 5 10 7 4 3 3 3 2 3 2 2 2 3 4 6 6 7 8 8 8 8 9 9 9 9 8 8 7 7 7 7 7
14 16 13 7 6 5 12 12 5 5 5 6 7 6 4 3 3 3 3 3 2 3 5 7 7 6 8 8 9 9 8 9 9 8 8 8 9 8 8 7 7 8 9 7
14 17 18 6 6 10 8 5 5 5 5 5 5 4 4 4 3 3 3 3 5 8 8 8 7 8 9 10 9 8 8 8 9 8 8 8 8 8 8 8 8 8 7 6
11 12 6 4 5 4 4 5 4 4 4 4 5 4 4 4 4 4 5 8 7 8 9 9 9 9 10 9 8 8 9 10 9 9 8 8 9 9 9 9 7 7 7 6
9 6 6 5 4 4 4 4 4 4 4 4 5 4 4 4 5 6 8 8 8 9 10 10 10 9 9 9 8 9 9 9 9 9 8 8 8 8 8 7 7 6 6 7
8 6 5 5 5 4 4 4 4 4 4 5 4 4 5 8 8 9 9 9 10 10 10 10 9 9 8 8 8 9 9 9 8 9 8 8 7 6 7 6 6 6 5 5
11 6 7 6 5 4 5 5 5 5 7 7 7 8 8 9 9 11 11 10 10 10 10 10 9 8 8 7 8 8 8 8 8 9 8 7 6 6 5 5 5 5 5 6
7 5 5 4 5 5 6 6 6 7 7 8 8 8 9 10 10 11 10 10 10 10 9 8 8 8 6 6 7 8 8 8 8 8 6 6 7 6 7 5 4 5 5 5
4 4 6 5 6 5 7 7 8 8 8 8 8 9 9 10 9 9 9 9 9 8 8 7 7 7 6 6 6 7 7 7 7 6 6 6 7 6 7 7 7 6 5 5
5 4 5 6 6 7 7 8 9 9 9 9 9 9 9 9 10 9 8 8 7 7 7 7 7 6 5 4 5 6 6 5 5 6 6 6 6 6 6 6 6 6 5 5
5 6 7 8 8 8 9 9 10 10 9 10 10 10 10 10 10 9 8 7 8 8 8 9 9 7 5 4 4 4 4 6 6 6 6 6 6 6 6 5 6 5 5 5
8 10 9 10 9 9 9 9 10 11 11 11 12 12 12 11 10 9 8 8 9 9 9 8 8 5 5 3 3 4 4 4 6 5 5 6 5 6 5 5 5 6 5 5
7 8 8 8 9 10 11 11 11 12 12 12 13 12 12 12 11 10 9 9 9 9 8 6 6 5 5 4 4 5 5 5 5 5 5 6 5 5 5 5 5 5 5 5
8 9 9 9 10 11 11 12 12 12 13 13 12 12 11 10 11 10 10 10 9 9 7 6 7 6 5 5 6 5 6 6 5 5 5 6 6 6 6 5 5 4 5 5
9 10 10 11 11 12 13 13 11 11 11 12 11 11 11 12 11 11 11 10 8 8 7 7 7 7 7 6 6 6 6 6 6 5 5 6 6 6 5 5 4 4 4 4
11 11 12 13 13 12 12 12 13 12 11 12 12 13 13 11 11 12 10 10 8 8 8 9 8 9 9 9 8 7 7 6 6 6 5 4 5 6 6 6 5 5 4 5
11 12 12 12 12 12 12 11 11 11 11 13 14 14 13 11 11 10 10 10 9 10 10 9 10 12 12 11 8 8 7 7 6 6 5 4 5 6 6 6 6 6 6 6
11 11 12 11 11 11 11 11 11 11 13 13 13 12 12 11 10 11 11 10 10 11 11 11 12 14 13 11 10 10 10 9 10 9 9 8 8 7 7 8 8 7 7 8
10 10 10 10 10 10 10 11 10 10 12 11 12 13 11 11 10 9 10 11 12 13 12 12 13 14 13 12 12 12 12 11 12 12 12 11 10 10 10 10 10 10 10 10
9 9 9 9 9 10 10 11 10 10 11 10 10 10 10 9 11 11 11 11 12 12 12 12 13 14 13 13 13 13 13 13 14 14 14 13 13 13 12 12 12 12 12 12
8 9 10 10 11 11 11 11 11 11 11 11 10 10 9 10 10 11 11 12 12 12 12 12 13 13 13 14 14 14 14 15 15 15 15 15 15 14 14 14 14 14 14 13
10 9 10 10 11 11 11 11 11 12 10 11 12 11 10 10 11 12 13 12 13 13 13 13 13 13 14 14 14 15 15 16 16 16 16 16 16 16 16 15 14 14 13 13

GFSNGP_con_lsi_027.txt.gz
Lid_Strength_Index
11 10 10 10 10 10 11 11 14 12 11 9 9 9 8 7 7 6 6 6 6 6 6 5 5 6 6 6 7 7 7 7 6 6 6 7 7 7 7 8 8 8 8 8
14 10 10 12 10 10 10 10 11 11 11 9 8 8 8 7 7 7 6 6 5 5 5 5 5 6 6 7 7 6 6 6 6 6 6 7 7 8 8 8 8 8 8 8
16 12 12 16 12 10 10 9 10 13 10 8 8 7 8 7 6 6 6 6 5 5 5 5 5 5 6 6 5 5 5 5 6 7 7 8 9 9 9 9 8 8 8 8
16 16 21 11 8 9 10 9 9 10 9 8 8 8 6 7 6 6 6 5 5 5 4 4 5 5 6 5 5 6 7 7 8 9 9 8 9 9 9 8 9 9 9 8
17 17 13 11 9 9 10 11 8 9 8 8 7 8 7 5 5 6 6 5 5 4 5 6 6 6 7 7 7 7 8 9 9 9 9 9 9 9 8 9 9 9 8 8
16 18 19 12 9 7 8 14 7 7 7 7 7 13 9 6 5 5 5 6 8 8 8 9 9 8 10 10 10 10 9 10 9 8 8 9 8 8 9 8 8 8 8 8
18 19 14 9 7 6 15 13 7 7 7 7 9 8 6 5 5 6 8 9 9 9 10 10 9 9 10 10 10 9 9 8 9 8 8 8 8 8 8 9 9 10 9 8
15 17 18 7 8 12 9 8 7 7 7 7 6 5 5 5 7 9 10 9 10 10 10 10 9 9 10 10 9 9 9 9 8 8 8 8 9 9 9 9 10 9 8 7
13 13 8 7 8 6 6 7 7 6 6 5 6 6 5 8 10 10 10 10 10 10 11 10 10 10 10 9 8 9 9 9 8 8 8 8 9 9 10 9 10 9 8 8
11 9 8 7 6 5 5 6 5 6 7 6 7 7 10 10 10 10 10 10 10 11 11 11 10 10 10 10 9 9 9 9 8 8 8 8 8 8 8 10 11 9 9 9
10 8 7 7 6 5 6 6 7 8 8 9 9 10 10 11 11 11 11 10 11 11 11 11 10 10 10 10 9 9 9 9 9 11 9 9 8 7 8 8 8 9 9 8
13 8 8 8 7 6 8 8 8 8 9 8 9 10 10 11 11 11 11 10 11 12 11 11 11 10 10 9 9 9 10 10 11 11 10 8 8 8 6 6 6 5 5 6
8 7 7 7 8 7 8 8 8 9 9 10 10 10 11 11 11 10 10 11 10 11 11 11 11 10 9 8 9 10 10 10 10 9 9 9 10 10 10 8 5 5 5 5
6 7 8 7 9 8 9 9 9 9 9 10 10 11 11 11 11 11 11 11 11 11 11 10 10 9 8 8 8 9 9 9 9 8 8 9 10 9 7 7 9 8 6 5
7 6 8 8 8 9 9 9 10 11 11 11 11 11 11 12 12 12 11 11 11 11 10 9 10 10 8 7 7 8 9 9 8 8 7 6 7 7 7 9 9 8 7 7
8 8 8 10 10 10 10 11 12 12 12 12 12 12 12 12 12 11 11 12 13 13 11 11 10 9 8 7 7 7 7 8 8 7 6 6 6 7 7 8 8 8 8 7
10 12 11 11 10 10 11 12 12 12 12 14 15 14 14 14 14 13 13 12 11 11 10 10 10 9 8 6 7 7 7 7 6 5 6 6 6 6 6 8 8 8 7 6
9 9 9 9 11 12 12 13 14 14 14 14 14 14 14 14 14 14 14 14 15 14 10 10 11 10 9 8 8 7 7 7 7 7 6 6 6 6 6 8 10 9 7 7
8 10 10 11 11 12 13 14 14 14 14 14 14 15 17 17 15 14 14 16 15 13 12 11 11 11 11 10 11 10 10 10 9 8 8 8 7 6 5 7 9 10 5 5
11 11 11 12 13 13 13 13 14 14 14 15 17 19 17 17 18 18 16 14 12 13 12 12 12 13 13 12 13 11 10 10 9 9 8 7 7 6 6 6 9 10 9 5
13 13 14 14 14 14 14 16 15 15 14 17 17 19 19 16 16 18 15 15 13 14 13 12 13 14 13 14 11 12 13 12 12 12 11 11 10 9 8 8 9 9 9 11
13 13 14 14 15 14 15 14 15 16 16 17 19 20 20 15 17 15 17 14 13 17 13 12 13 16 15 15 14 14 15 13 15 14 14 13 12 12 11 11 10 10 10 10
12 12 13 14 15 15 14 15 16 16 17 19 19 18 17 15 14 16 16 12 12 15 13 14 18 18 18 16 16 16 16 15 17 16 16 15 14 15 14 14 13 13 13 13
12 12 13 14 14 15 14 12 12 13 17 14 18 19 15 18 19 13 14 16 19 19 18 15 17 18 21 21 18 16 17 16 17 17 17 17 16 16 16 16 16 15 14 14
13 13 13 14 13 13 13 12 12 13 13 12 13 12 13 13 17 17 18 18 16 17 20 20 19 19 21 23 21 19 19 17 19 18 18 18 18 18 18 17 16 16 15 15
12 13 13 13 13 13 13 13 15 15 14 17 17 19 16 16 16 16 18 19 18 18 20 22 22 21 20 22 22 20 22 19 20 18 19 20 20 20 19 18 17 16 15 15
12 12 13 14 13 13 14 14 16 18 19 20 20 19 14 17 20 18 21 22 22 22 23 23 23 21 20 19 23 22 23 22 22 18 22 24 21 21 20 18 17 17 16 15

GFSNGP_con_lsi_030.txt.gz
Lid_Strength_Index
11 10 11 11 11 11 12 12 15 13 12 10 10 10 9 8 8 7 7 7 8 8 7 6 6 6 7 7 7 7 8 9 7 6 7 7 8 8 8 8 8 8 9 8
14 10 11 12 11 11 11 11 11 11 12 10 10 9 9 8 8 8 7 8 7 6 6 6 6 6 6 7 7 7 8 7 6 6 6 7 8 8 9 9 9 8 8 8
16 13 13 16 13 11 11 11 11 14 12 10 10 9 9 8 7 7 7 6 5 5 6 6 6 6 6 7 7 8 7 6 7 7 8 9 9 9 9 9 8 8 8 8
17 17 20 12 9 9 10 11 10 10 10 9 8 8 8 8 8 8 7 7 7 6 5 5 6 6 7 7 7 7 8 8 8 9 9 9 9 9 9 9 9 9 9 8
18 18 14 11 9 10 11 11 9 10 9 9 7 8 8 6 6 7 8 9 9 9 8 8 8 8 9 10 10 10 10 9 9 10 9 8 9 9 9 9 9 9 8 8
17 19 20 13 9 8 8 14 8 8 8 8 9 13 9 7 8 10 10 9 10 10 10 10 10 10 11 11 11 11 10 9 9 9 9 9 10 9 9 9 9 9 8 8
20 20 15 10 8 8 15 14 8 7 8 8 9 8 7 9 10 9 10 10 10 10 11 10 9 9 10 10 10 9 8 8 8 8 8 8 8 9 9 10 9 10 9 9
15 18 17 7 9 12 11 8 8 8 8 7 7 7 9 10 10 10 11 10 10 11 10 9 9 9 9 9 9 8 8 8 8 8 8 8 9 9 9 10 10 10 11 9
13 13 8 8 8 7 7 7 8 7 6 6 6 9 10 11 11 11 11 12 11 11 10 10 10 10 11 10 9 9 10 10 10 9 8 8 10 10 11 10 12 10 9 10
11 9 9 7 6 6 6 7 8 8 7 8 10 10 11 11 11 11 11 11 11 11 11 10 10 10 11 11 11 11 11 11 10 10 10 10 10 10 10 12 11 9 9 9
11 9 8 7 7 7 8 8 9 9 9 10 10 11 11 11 11 11 11 11 10 11 11 11 11 11 11 11 11 12 11 11 10 12 11 10 10 9 9 9 9 9 9 9
14 8 9 9 8 8 8 9 9 10 10 10 11 12 12 12 11 11 11 11 11 11 11 12 12 12 11 11 11 11 11 11 12 12 12 10 10 9 7 7 6 6 6 7
8 7 8 9 9 9 10 10 10 10 10 12 11 11 11 12 12 11 11 12 12 12 12 12 12 13 12 11 11 10 11 10 11 11 11 10 10 9 9 7 6 5 5 5
8 8 10 9 11 10 10 10 10 10 11 11 12 11 12 12 12 12 12 12 12 12 12 13 13 12 11 10 9 9 10 10 10 10 10 9 9 8 8 7 7 9 8 6
9 8 9 10 10 10 10 11 11 12 13 13 12 13 13 13 13 13 13 13 13 13 13 12 12 12 10 9 9 10 10 11 11 9 8 8 7 7 7 7 6 7 8 9
10 10 10 10 11 11 12 12 13 14 13 13 14 13 13 13 13 13 13 13 14 14 13 13 13 12 11 10 11 10 10 10 10 8 8 8 7 7 7 6 6 6 8 6
12 12 12 12 12 12 13 13 13 13 14 15 14 14 14 14 15 15 15 14 14 14 13 13 13 11 12 12 13 13 13 12 12 10 10 9 9 7 7 7 7 6 6 6
10 10 11 11 13 13 13 14 14 14 14 14 14 17 18 18 16 16 16 16 16 15 14 13 14 14 14 14 13 13 13 12 11 10 10 10 9 9 8 8 8 7 6 7
9 10 11 12 12 13 14 15 14 14 14 15 17 17 18 18 16 16 16 17 17 16 14 14 14 15 15 14 14 13 13 13 13 12 12 12 12 11 10 10 8 7 8 8
12 12 12 12 13 14 15 15 15 15 15 16 18 18 17 19 21 18 16 16 16 15 13 15 15 16 15 14 15 14 15 15 16 16 15 15 14 14 13 12 11 10 10 10
13 13 14 14 15 14 15 15 15 15 15 18 18 20 21 18 17 18 16 16 15 15 14 16 16 16 15 16 15 18 18 17 19 18 18 18 16 16 15 14 14 13 14 13
14 14 15 15 15 15 15 15 15 16 17 19 21 22 19 16 18 16 19 16 14 19 16 15 15 20 17 19 16 21 18 17 19 19 19 18 18 18 17 17 17 16 15 15
14 14 15 15 15 15 15 16 17 17 19 20 20 18 16 15 15 18 18 14 14 18 14 18 20 22 22 23 24 25 23 23 24 22 21 19 19 20 18 19 18 18 18 17
13 14 14 15 15 16 16 16 15 17 18 16 18 19 15 18 20 15 16 19 22 22 22 22 22 22 23 26 25 26 26 24 27 24 21 23 22 20 20 21 20 19 18 17
13 13 14 15 15 15 15 15 15 14 14 14 14 14 14 15 19 18 21 20 19 20 23 24 23 23 26 28 28 27 28 26 28 25 24 27 24 22 22 22 21 20 19 18
13 14 15 15 16 15 15 15 16 15 16 18 19 23 18 16 16 18 21 22 21 22 24 27 27 27 27 24 27 27 27 26 27 24 26 27 25 24 24 23 21 20 19 18
15 16 15 15 15 14 15 15 17 18 20 22 21 21 18 20 23 22 26 26 26 26 27 27 28 26 26 26 24 25 27 28 28 24 30 30 28 25 24 23 21 20 19 17

GFSNGP_con_lsi_033.txt.gz
Lid_Strength_Index
12 12 11 11 11 11 13 13 15 13 13 11 11 10 10 10 9 8 7 7 8 8 8 8 7 7 8 8 7 7 8 8 7 7 7 7 7 8 8 8 8 8 8 8
14 12 12 13 11 12 12 12 12 13 13 11 10 10 10 9 9 8 8 7 7 8 7 7 7 7 8 8 7 8 8 7 7 7 8 8 8 8 9 9 9 9 8 9
16 14 14 16 14 12 11 11 12 14 12 11 11 10 10 9 8 8 8 7 6 6 6 6 6 6 7 8 8 8 7 7 8 9 10 9 9 9 9 9 9 9 9 9
17 17 20 12 10 10 11 11 11 11 11 10 10 10 9 9 9 9 8 9 9 9 7 6 7 8 8 8 9 9 10 10 10 9 9 9 9 9 8 9 9 9 9 9
18 18 15 12 11 11 12 12 10 11 10 9 8 9 8 7 9 9 10 10 11 11 10 10 10 10 11 12 11 11 11 10 9 9 8 9 9 10 9 9 9 9 9 10
18 19 20 13 11 9 9 14 9 9 9 9 10 14 10 9 10 10 10 10 11 11 11 11 11 10 11 11 11 11 10 9 9 8 9 10 9 9 9 9 9 10 10 9
21 20 17 12 9 9 14 13 9 8 8 9 10 9 9 10 11 10 11 11 10 10 11 11 10 10 10 9 9 8 7 7 8 8 9 9 9 9 9 10 10 11 10 10
19 20 18 9 9 13 11 9 8 8 8 8 9 10 10 10 11 11 11 11 11 11 11 10 10 9 9 10 9 8 8 9 9 9 9 10 11 10 10 10 11 11 12 11
14 14 10 9 9 8 8 8 8 8 7 7 10 11 10 11 11 12 12 13 12 12 11 10 10 9 10 10 10 10 11 12 12 11 11 11 11 11 11 11 12 12 11 11
12 10 9 8 7 7 7 7 7 7 7 8 11 11 11 11 12 12 13 13 12 11 11 11 11 11 11 11 12 12 13 13 12 13 12 11 10 10 11 12 12 11 10 10
11 10 8 8 9 9 10 9 10 10 10 10 10 11 11 12 12 12 12 11 11 11 11 11 11 11 12 12 12 13 13 13 13 13 12 11 10 10 10 10 10 10 10 9
13 8 9 9 9 9 9 10 10 10 11 11 11 12 12 12 12 12 12 11 11 11 12 13 13 13 13 12 13 13 13 13 13 12 11 11 11 10 8 8 7 7 6 7
9 8 9 10 10 9 10 10 10 11 12 13 12 12 12 13 13 12 11 12 13 14 14 14 14 14 13 13 13 13 13 12 11 11 11 11 10 10 10 8 6 6 5 5
9 10 11 11 11 10 10 11 11 12 11 11 12 12 13 14 14 14 14 14 13 14 14 14 15 15 14 13 13 12 12 11 12 11 11 11 11 9 9 8 8 7 5 6
10 9 10 11 11 11 11 12 13 13 13 13 13 14 14 15 15 15 14 14 13 13 15 15 16 15 14 14 14 13 13 13 13 13 13 12 11 11 9 8 8 7 7 8
11 11 11 12 12 12 13 13 14 14 14 14 14 14 14 14 15 15 14 14 14 16 16 18 16 16 15 15 15 14 14 14 14 13 13 12 11 11 10 10 10 10 9 8
13 14 13 14 14 13 13 13 13 15 15 15 15 15 15 15 15 15 15 15 16 17 16 17 18 16 15 15 14 15 15 14 15 13 13 13 12 12 12 11 12 11 9 8
10 11 12 12 13 14 14 14 15 15 15 15 17 18 18 17 17 17 16 17 18 18 17 18 17 16 15 15 15 15 16 16 15 15 14 15 15 13 13 13 13 12 12 12
11 11 12 12 12 13 14 15 15 15 16 16 16 17 17 17 16 17 18 21 22 19 18 17 16 17 16 16 16 17 18 18 18 16 17 18 17 16 16 16 15 15 14 13
12 12 13 14 14 15 15 15 15 15 15 16 17 17 18 19 18 20 19 20 19 17 16 16 16 17 17 17 19 17 19 21 19 19 20 20 19 20 19 17 18 17 17 15
14 14 14 15 16 16 15 15 16 16 16 17 18 19 18 18 19 20 20 19 17 16 15 17 17 17 17 18 17 23 22 25 24 22 24 22 21 21 21 19 20 20 19 18
14 15 15 15 16 16 16 15 16 17 18 19 20 20 20 19 20 20 21 18 16 20 17 17 17 22 19 21 18 25 22 23 23 24 24 24 23 23 22 21 22 21 20 19
14 14 15 15 15 16 16 17 18 18 19 20 20 19 18 18 18 20 19 16 16 20 17 21 23 24 24 27 27 29 28 28 30 28 28 30 29 27 23 23 23 22 21 21
14 15 15 16 16 17 17 16 17 18 19 18 19 20 18 20 21 17 17 21 23 25 24 26 25 24 27 29 30 31 30 31 32 31 27 28 31 29 27 26 24 23 22 21
14 15 16 16 16 16 16 16 16 16 16 16 16 16 16 16 20 19 22 22 20 22 24 27 25 26 30 31 31 31 32 32 33 31 31 33 30 29 28 28 26 24 23 22
15 15 16 16 16 16 16 16 17 17 18 19 19 20 20 18 19 19 22 23 22 23 25 29 30 30 31 28 29 30 30 29 32 30 32 32 31 29 29 27 26 24 24 23
16 16 16 16 16 16 16 16 16 17 18 19 19 19 20 21 24 22 27 27 28 29 29 30 31 29 29 31 30 27 28 30 32 30 33 34 32 32 30 29 27 26 25 23

GFSNGP_con_lsi_036.txt.gz
Lid_Strength_Index
13 12 12 12 12 12 13 13 15 14 14 12 11 11 11 10 10 9 7 7 7 7 8 7 8 8 8 9 9 9 9 10 10 8 9 9 9 8 8 8 8 8 9 8
14 12 13 13 12 12 12 13 13 13 13 11 12 11 10 11 9 8 8 7 8 8 7 7 7 7 8 9 9 9 9 10 9 9 9 9 9 9 9 9 8 8 8 9
16 15 14 16 14 12 12 12 11 14 11 11 12 11 11 10 9 9 9 9 9 8 7 7 6 6 7 8 8 9 9 9 10 10 10 10 10 9 8 9 8 9 9 9
18 17 20 13 11 11 12 11 11 11 11 10 10 10 10 10 10 10 10 11 11 11 10 9 8 8 8 9 9 10 11 11 10 9 9 9 9 9 9 9 9 10 9 9
17 18 15 13 12 12 13 13 11 11 10 10 9 9 10 11 11 11 12 11 11 11 11 11 11 11 11 11 10 11 10 10 9 8 9 9 9 9 9 9 9 9 9 10
19 19 20 14 11 10 11 15 10 10 10 9 10 15 11 11 11 11 11 11 11 11 11 12 11 11 11 11 10 10 9 8 8 8 8 9 9 9 9 9 10 11 11 11
21 20 16 12 11 10 15 13 9 9 9 10 11 11 11 11 11 11 11 11 11 11 12 12 11 10 10 10 10 9 8 8 8 8 8 8 9 10 10 11 12 12 12 11
19 21 18 11 11 13 11 10 9 9 9 9 11 11 11 11 11 12 12 12 11 11 11 11 10 10 11 10 9 9 8 9 9 10 11 11 12 12 12 13 13 12 12 11
14 14 11 10 10 9 9 9 9 9 8 9 10 11 11 12 12 13 13 13 12 12 12 12 12 11 12 11 11 11 12 13 13 12 12 13 13 13 13 13 14 12 11 11
13 11 10 9 8 8 8 9 8 8 8 9 11 11 12 13 13 13 13 13 12 12 12 13 12 12 12 11 12 13 13 13 13 13 13 13 13 13 13 13 13 11 11 10
13 10 9 8 8 9 9 9 9 10 10 10 11 12 12 13 13 13 12 12 11 12 13 13 13 13 13 13 13 14 13 13 13 14 14 14 13 12 12 11 10 10 10 10
13 10 9 9 9 9 9 10 10 10 11 11 11 12 12 13 12 12 12 12 12 13 14 14 14 15 14 14 14 14 13 14 14 15 15 14 13 12 9 8 8 7 7 7
9 8 9 10 10 10 11 11 11 11 11 12 12 12 12 13 13 12 12 13 14 14 15 16 16 16 15 14 14 14 15 14 14 15 14 13 12 12 14 11 9 8 7 6
10 10 11 10 11 11 11 12 11 12 12 12 13 13 13 14 14 13 14 14 14 15 16 16 16 16 16 16 15 16 16 16 17 16 15 15 15 14 14 14 14 12 9 7
11 10 10 11 11 12 12 12 13 14 13 14 13 14 14 15 15 15 15 14 15 16 16 17 18 18 17 16 16 17 17 17 16 16 16 15 15 14 14 14 13 12 12 10
12 12 11 12 13 13 13 13 14 14 14 14 14 14 15 15 15 15 14 14 16 18 18 20 18 18 16 17 17 17 17 17 17 15 16 16 16 15 15 14 14 13 13 13
14 14 14 14 14 14 14 14 14 14 14 14 14 15 15 16 16 16 17 17 18 18 18 19 19 17 17 17 17 19 18 17 18 18 17 17 18 17 16 16 16 15 16 15
11 12 12 13 14 15 15 15 15 14 14 15 16 16 17 17 16 17 18 18 19 19 19 19 19 18 18 18 18 19 19 19 19 19 19 19 19 18 19 18 18 19 18 16
11 12 13 13 13 14 15 15 15 16 16 16 17 17 17 17 17 18 19 20 20 19 19 19 18 19 20 18 19 19 20 23 21 19 20 21 21 21 21 20 20 21 20 19
12 12 13 14 14 15 15 16 16 16 16 16 17 17 18 19 19 20 20 20 18 18 18 19 19 20 20 19 21 20 21 24 22 23 25 24 27 28 26 23 22 23 22 21
14 14 15 16 16 16 16 16 16 16 16 16 17 18 18 19 20 21 20 20 18 18 18 19 19 19 19 20 19 26 24 28 28 27 30 29 30 28 28 27 26 25 23 22
15 16 16 16 16 17 16 16 16 17 18 19 19 19 20 20 21 20 21 19 18 20 19 19 19 23 21 22 20 26 24 25 26 28 29 30 32 31 30 29 28 26 24 24
15 15 16 16 17 17 17 17 18 18 19 19 19 19 19 18 18 20 20 18 18 21 18 21 23 24 26 28 29 31 30 30 32 31 32 35 35 35 32 29 27 27 26 25
15 15 16 16 16 17 18 18 17 18 19 18 19 19 18 20 21 19 19 22 24 24 24 26 25 25 27 31 32 33 32 33 34 35 31 33 37 35 32 32 29 27 27 25
15 16 16 16 16 16 17 17 17 17 17 17 17 17 17 18 20 20 22 23 21 22 24 28 26 27 32 32 33 32 32 34 35 36 35 37 35 34 33 32 31 29 27 26
16 17 17 16 17 17 16 17 18 18 18 19 19 19 20 18 19 19 20 22 23 24 26 30 31 32 33 31 32 32 30 29 33 34 35 36 36 33 33 31 30 29 28 27
17 17 18 18 18 17 17 17 18 19 18 18 18 18 19 19 20 20 24 25 28 29 30 30 32 30 31 33 32 31 30 30 33 32 36 38 37 35 34 33 31 30 28 27

GFSNGP_con_lsi_042.txt.gz
Lid_Strength_Index
8 8 8 8 9 9 10 9 11 10 9 7 6 6 5 5 4 5 5 4 4 4 3 3 3 2 2 2 2 2 3 3 3 3 3 4 4 4 4 4 5 7 7 7
10 8 8 9 8 8 8 8 9 9 9 5 5 5 5 5 5 5 5 5 4 4 3 3 3 3 3 3 3 3 4 4 4 4 5 6 6 6 8 8 7 8 6 7
12 9 10 13 10 9 8 8 8 10 7 5 6 6 5 5 5 5 5 4 4 4 4 3 2 2 2 2 2 2 3 3 4 5 6 6 7 8 8 7 7 7 7 6
12 13 18 9 7 7 8 7 6 7 6 5 5 5 5 4 5 5 5 6 5 5 4 3 3 3 3 3 3 3 4 4 5 5 6 6 6 6 7 7 7 6 6 6
16 14 10 9 8 8 9 8 6 6 6 5 5 5 6 5 4 5 5 5 5 5 4 4 4 4 4 4 4 4 5 5 5 5 5 6 6 6 5 5 5 6 7 8
13 15 17 9 6 5 6 11 5 5 6 6 6 9 6 6 6 6 6 5 6 5 5 5 4 3 4 5 5 5 5 5 5 5 5 6 6 7 8 8 8 7 7 6
13 14 11 7 6 6 12 10 5 5 5 5 7 5 5 5 6 6 6 6 6 5 5 5 4 4 5 5 6 5 5 6 6 7 8 8 7 7 7 7 7 7 7 7
12 16 16 7 8 9 6 5 5 5 4 5 5 5 6 6 7 7 7 6 5 5 5 5 5 5 6 8 7 6 7 8 8 8 9 9 9 8 8 8 8 8 8 8
10 11 6 6 5 4 4 5 5 4 4 4 5 6 6 7 7 6 6 6 6 6 6 6 6 6 7 8 8 8 9 9 9 9 9 9 9 9 9 9 9 9 10 9
10 7 7 5 4 5 5 4 4 3 4 4 5 6 6 6 7 7 6 6 6 7 8 8 8 8 8 8 8 9 9 10 10 10 10 10 10 10 11 11 11 11 11 11
9 7 6 6 5 4 5 5 5 4 4 4 5 6 6 7 7 7 7 7 7 8 9 9 9 9 9 9 9 10 10 11 12 12 12 12 12 12 12 11 13 13 12 12
11 6 6 5 4 4 5 5 5 4 4 4 4 6 6 7 7 7 8 8 8 9 10 11 11 11 11 11 11 12 13 13 13 12 12 12 13 12 14 14 14 14 14 13
6 6 5 6 6 4 5 5 4 4 4 5 5 6 6 7 7 8 8 9 10 11 12 13 14 14 14 13 13 13 14 14 13 13 13 14 13 14 14 12 14 14 14 14
6 7 7 7 7 7 6 6 6 5 5 6 7 7 7 8 10 10 10 10 11 12 14 15 15 15 14 14 14 14 15 16 14 13 14 14 14 14 13 14 14 13 13 14
6 7 8 7 7 8 8 8 9 9 9 9 8 9 9 11 11 11 11 13 13 14 15 15 15 15 14 14 15 15 15 15 15 14 15 16 15 14 14 15 15 14 13 13
8 8 8 8 9 10 10 10 10 11 10 10 10 10 10 10 12 13 13 14 16 16 16 17 17 16 15 15 15 15 16 18 17 15 15 16 15 15 15 15 15 14 14 13
10 10 10 11 11 11 10 10 10 10 10 10 11 11 12 13 15 16 17 18 18 18 17 17 17 16 16 16 16 16 16 17 19 16 16 17 16 16 16 16 15 14 14 13
8 8 9 9 10 11 11 10 10 11 12 12 14 15 16 16 18 18 18 19 19 20 19 18 18 18 18 18 17 17 17 17 17 17 16 17 17 16 16 16 15 14 14 13
9 9 10 10 10 11 11 13 14 15 15 15 15 17 17 17 18 18 18 19 20 20 20 19 19 19 19 19 18 17 18 17 17 17 17 19 16 16 16 16 15 15 14 14
12 12 13 13 13 14 15 15 15 16 16 16 16 17 17 17 17 18 18 18 18 19 19 19 19 19 19 20 19 18 18 17 18 17 18 17 17 17 16 16 16 15 15 15
15 15 15 16 16 16 16 16 16 16 15 15 16 17 18 18 18 18 19 20 19 18 18 19 18 18 18 19 18 17 18 17 17 17 17 17 16 16 16 16 16 16 15 15
16 16 16 16 16 16 15 15 15 16 16 17 18 18 18 19 18 18 17 17 18 18 18 18 18 20 20 21 18 17 17 17 17 16 16 16 16 17 17 17 17 16 16 16
16 16 15 16 16 17 16 16 16 16 17 17 17 17 17 17 17 17 19 18 17 18 17 18 20 21 22 17 17 17 17 17 17 16 16 16 17 17 17 17 17 17 17 17
15 16 16 16 15 16 17 17 17 17 17 17 17 17 17 17 17 17 17 18 18 18 18 18 19 21 21 17 17 17 17 16 16 16 16 19 17 17 17 18 18 18 18 18
15 15 16 16 17 17 17 17 17 17 17 17 17 17 17 16 15 17 17 17 18 18 17 20 21 21 17 16 16 16 16 16 16 16 17 17 17 17 17 17 18 18 19 19
17 18 18 17 17 16 16 16 17 16 16 17 17 16 16 16 17 16 17 17 17 19 16 16 16 16 16 16 16 17 17 16 16 16 17 17 17 17 18 18 19 19 19 19
19 18 18 18 18 18 17 17 17 17 16 16 16 16 16 16 17 17 17 16 16 16 15 15 15 16 16 16 16 16 16 16 17 17 17 17 17 17 18 19 19 19 19 20

GFSNGP_con_lsi_045.txt.gz
Lid_Strength_Index
8 8 8 8 8 8 9 9 11 10 9 7 6 5 5 4 4 4 4 3 3 3 3 3 3 2 2 2 1 1 1 1 1 2 2 2 2 3 4 4 5 7 7 6
10 8 8 9 8 8 8 8 8 8 8 5 5 4 4 4 4 4 4 4 4 3 3 3 3 2 2 2 1 1 2 3 3 3 4 4 4 4 4 5 5 6 8 7
13 9 9 12 9 8 8 7 7 10 7 5 6 5 5 4 4 5 4 4 4 3 3 3 2 2 3 3 2 3 3 3 3 3 4 5 5 5 6 5 5 6 6 6
13 13 17 9 6 6 7 7 6 6 6 5 5 4 4 4 4 4 4 4 3 3 3 2 2 2 2 2 2 3 3 3 3 4 5 5 4 5 5 5 5 6 6 5
15 14 11 9 7 7 8 8 6 6 6 5 4 5 5 4 3 4 3 3 3 2 3 3 3 2 3 3 3 3 4 3 3 3 4 4 5 5 5 5 5 6 7 7
13 15 17 9 6 5 5 11 5 5 5 5 5 8 6 4 3 3 3 3 3 2 2 2 3 3 3 4 3 4 4 4 4 4 4 5 5 5 6 6 6 6 6 6
14 14 11 7 6 5 12 10 5 5 5 5 6 5 4 4 4 3 3 3 3 3 3 3 3 3 4 3 4 4 4 4 5 5 5 5 6 6 7 7 7 7 8 7
13 15 17 6 6 9 6 5 4 4 4 4 4 4 4 4 4 4 4 4 3 4 4 3 3 3 4 5 4 4 5 6 6 7 8 8 8 8 8 8 8 8 8 8
10 10 6 5 6 4 4 4 4 4 4 4 4 5 4 4 4 4 4 4 4 4 4 4 3 4 5 5 5 6 7 8 8 8 8 8 8 8 8 9 9 10 10 10
9 7 6 6 5 4 4 4 3 3 3 3 4 4 4 4 4 4 4 4 4 4 5 5 4 5 5 6 6 7 8 8 8 9 9 9 10 10 10 10 11 12 12 12
8 6 6 5 5 4 4 3 3 3 3 3 4 4 4 4 4 4 4 4 4 5 5 6 6 7 7 7 7 8 9 9 10 11 11 11 11 11 12 12 13 13 12 13
10 6 6 6 4 3 4 4 4 4 4 3 3 4 3 4 4 4 4 5 5 6 7 7 8 8 8 8 8 10 11 12 11 11 11 12 12 12 14 14 15 15 15 15
6 5 5 4 4 3 4 3 3 3 3 4 3 3 4 4 4 6 5 5 6 7 8 9 10 11 11 11 11 11 12 13 13 13 12 13 13 13 13 14 14 15 15 16
4 4 6 5 5 4 4 3 4 3 3 3 3 3 4 5 6 6 7 7 8 9 11 12 13 15 14 13 13 13 14 15 13 13 13 13 13 13 13 14 15 14 15 15
4 4 4 4 5 5 5 5 6 5 5 5 5 6 6 7 8 8 8 10 11 12 14 15 16 16 14 13 14 14 15 14 14 14 15 15 15 14 14 15 15 14 13 13
5 5 5 6 6 7 7 7 6 7 7 7 7 7 7 8 9 10 11 12 14 16 16 16 17 15 15 15 16 16 17 18 16 15 16 16 15 15 15 15 15 14 14 14
7 7 7 7 7 8 7 7 7 8 8 9 9 9 9 11 14 15 16 17 17 18 17 17 18 17 17 16 16 16 16 17 18 17 17 17 16 16 16 15 15 15 14 13
6 6 6 6 7 8 8 8 9 9 9 10 13 14 15 16 18 19 19 19 19 19 19 18 18 18 18 17 17 17 18 18 17 17 17 17 17 16 16 16 15 15 14 13
8 8 8 8 8 9 11 12 13 14 14 15 15 17 18 19 19 19 19 20 20 21 20 19 18 19 19 19 18 18 18 18 18 17 17 19 17 16 16 16 15 14 13 13
12 12 13 13 13 14 15 14 15 16 16 16 17 18 19 19 18 18 18 18 18 19 19 19 19 19 20 20 19 18 18 18 18 18 17 18 17 17 16 16 15 14 13 13
15 15 15 15 15 15 15 15 15 16 16 17 18 18 18 18 18 18 19 20 19 19 19 18 18 19 19 19 18 17 18 18 18 18 18 17 17 16 15 15 14 14 14 14
15 15 16 16 16 16 16 16 16 17 18 18 18 18 19 19 18 18 18 19 19 18 18 18 18 19 19 20 18 17 17 17 18 18 17 16 16 16 15 15 15 15 15 14
15 16 16 17 17 17 16 16 16 16 16 17 17 17 17 17 17 18 19 18 18 17 17 18 20 20 21 17 17 17 18 18 18 17 16 15 15 15 16 16 15 15 15 15
16 16 16 16 16 16 17 17 17 17 17 17 16 16 16 17 17 17 17 18 18 17 18 18 19 21 20 17 17 17 17 16 16 15 15 16 16 15 15 16 16 15 15 16
17 16 15 16 16 16 16 16 16 17 17 17 17 17 16 16 16 17 17 18 18 17 17 19 20 20 18 17 17 16 16 16 15 16 16 16 16 16 16 16 16 15 16 16
18 18 18 17 17 16 16 16 17 16 16 17 16 16 16 16 16 16 17 17 17 17 17 17 17 17 16 15 15 16 16 16 16 16 16 17 16 16 16 16 16 16 16 15
18 17 17 18 17 17 17 17 17 18 17 16 17 16 16 16 16 17 17 16 16 16 16 15 15 16 16 16 16 16 16 16 16 17 17 17 17 17 16 16 16 16 16 16

GFSNGP_con_lsi_048.txt.gz
Lid_Strength_Index
9 8 8 9 9 9 10 9 12 11 10 8 7 6 6 5 4 4 4 4 3 3 4 3 3 3 2 2 2 2 2 3 4 4 2 3 4 4 5 6 6 8 8 8
12 9 9 10 9 9 9 9 9 9 9 6 5 5 5 5 5 5 4 4 4 3 3 3 3 3 3 2 2 2 3 3 3 3 3 3 4 4 5 6 7 7 7 8
14 10 10 13 10 9 8 8 8 10 8 6 6 6 5 5 5 5 4 4 4 4 4 3 3 3 3 2 2 2 3 4 4 5 6 6 6 6 6 7 7 7 7 7
15 14 18 10 7 7 8 7 7 7 6 6 6 5 4 4 4 4 4 4 4 4 3 3 3 3 3 3 3 4 5 5 5 5 6 5 6 6 6 6 6 7 7 6
16 16 12 9 8 8 9 9 6 7 6 6 5 4 5 3 3 4 4 4 3 3 3 3 3 3 3 4 4 4 5 5 5 5 5 5 5 6 5 5 6 6 7 7
15 17 18 11 7 5 6 12 6 6 6 6 5 9 7 4 4 4 3 3 3 3 3 3 3 3 4 5 5 5 5 5 4 4 4 5 5 6 6 6 6 7 7 7
15 16 13 7 6 5 12 11 6 5 5 5 6 5 4 4 4 3 3 3 2 3 3 3 3 3 4 4 5 4 4 4 4 4 5 5 6 6 6 7 8 9 10 9
14 16 17 6 7 10 7 6 5 5 5 4 4 5 5 4 4 4 4 3 3 3 3 3 3 4 5 5 5 4 5 5 5 5 6 7 8 8 9 9 10 11 11 12
11 12 7 6 6 5 5 5 5 5 4 4 5 5 4 4 4 4 4 4 3 3 4 3 3 4 5 5 5 5 6 7 8 8 8 8 9 9 10 10 12 13 14 13
10 8 7 6 5 4 4 5 4 4 4 3 5 5 5 4 4 4 4 4 4 4 5 5 4 4 5 5 5 7 8 9 9 9 10 10 11 11 11 13 14 14 14 15
9 7 7 6 5 5 5 4 4 4 4 4 4 5 4 4 4 4 4 4 4 5 5 5 5 5 5 6 7 8 8 9 11 11 12 12 14 14 15 15 15 15 16 16
11 6 7 7 5 4 5 5 4 4 4 4 4 4 4 5 5 4 4 4 4 5 5 6 6 7 7 7 8 9 11 12 13 13 13 13 14 15 14 15 15 16 16 17
6 4 5 5 4 4 5 4 4 4 4 4 4 4 4 5 5 6 4 5 5 6 7 7 8 9 9 9 10 12 14 13 14 14 14 14 15 14 17 16 15 15 16 16
4 4 6 5 6 4 4 4 4 3 3 4 3 3 4 5 6 5 6 6 6 8 9 11 12 14 13 14 14 15 15 14 14 15 15 15 15 15 15 16 16 16 16 16
5 4 5 4 5 5 5 5 5 5 4 5 4 5 5 6 7 7 7 9 10 11 13 14 15 15 14 14 15 15 15 15 15 16 17 16 16 16 16 16 16 16 15 16
5 5 5 5 5 5 6 6 7 6 6 6 6 6 7 7 8 10 11 12 15 16 16 17 17 16 15 16 17 18 18 17 16 16 17 16 16 16 16 17 17 17 17 17
7 7 7 6 6 6 7 6 6 7 8 8 10 11 12 16 17 18 18 18 18 18 18 18 19 18 17 16 16 17 18 19 18 17 18 18 17 17 17 18 18 17 17 18
7 6 7 7 7 7 8 9 10 12 13 15 16 17 17 18 19 19 19 19 20 20 19 19 19 19 19 18 18 18 18 18 18 18 18 18 19 18 18 18 17 18 18 17
11 11 11 11 11 12 13 14 15 15 16 17 18 19 19 19 20 20 20 20 21 21 21 19 20 20 20 19 19 18 18 18 19 18 19 20 19 18 18 18 18 18 18 17
14 13 14 14 14 15 16 15 16 16 17 17 17 19 20 19 18 19 19 21 21 21 20 19 20 20 20 20 19 19 19 19 19 19 19 20 19 19 19 18 18 18 18 16
15 15 15 15 16 15 15 15 16 17 17 17 18 19 19 19 19 20 21 22 20 19 19 19 19 20 20 19 19 18 19 19 19 19 19 19 18 18 18 19 18 17 17 16
16 16 16 16 16 16 16 17 17 18 18 19 19 19 19 19 19 20 19 20 19 19 19 20 20 21 21 20 19 19 19 19 19 19 19 19 19 19 19 18 17 17 17 18
16 17 17 17 18 18 17 17 17 18 18 18 18 18 18 18 18 20 21 18 18 18 19 21 21 21 21 19 19 19 19 19 19 19 19 19 18 18 18 18 18 18 18 18
16 17 17 17 17 17 18 18 17 17 18 18 18 17 17 19 19 18 18 19 19 19 20 20 20 21 22 19 19 19 19 19 19 18 18 18 17 17 17 18 18 18 18 19
17 17 16 17 17 17 16 16 17 17 17 18 18 17 18 17 18 18 18 18 19 18 20 21 21 21 19 19 19 19 19 18 18 19 18 18 18 18 18 18 19 18 19 21
17 18 18 18 18 17 17 17 18 17 17 18 17 17 17 16 17 17 18 18 18 19 19 19 19 19 18 18 19 18 18 17 17 17 18 18 18 19 19 18 19 19 19 19
19 18 18 18 18 18 18 18 18 19 18 17 18 17 17 17 17 17 18 18 17 17 17 17 17 17 18 18 18 17 17 17 17 18 19 19 19 19 19 19 19 20 20 20

GFSNGP_con_lsi_054.txt.gz
Lid_Strength_Index
11 10 10 11 11 10 12 12 14 12 12 10 9 9 8 8 7 7 8 7 6 6 6 5 4 4 3 3 2 2 3 3 3 3 2 3 3 4 5 5 6 6 7 8
13 11 10 12 11 10 10 10 11 11 12 8 7 8 8 8 7 8 7 7 6 5 4 4 4 4 3 3 3 2 3 3 3 3 5 5 5 6 7 7 6 8 8 8
15 12 11 14 12 11 11 10 10 13 10 8 8 8 8 8 7 7 7 8 7 5 4 4 4 4 5 4 4 3 4 4 5 5 6 6 6 7 8 8 8 9 9 9
16 14 19 12 9 9 10 9 9 10 10 9 8 8 7 7 7 7 7 7 7 4 4 4 4 5 5 6 5 5 5 6 5 6 6 7 8 8 9 9 10 10 9 9
17 16 13 11 10 10 11 11 9 10 9 9 9 9 9 7 7 7 7 6 5 4 5 5 5 6 7 7 8 8 8 8 7 8 8 8 9 10 10 10 10 10 9 9
15 19 19 12 9 7 8 14 9 8 8 9 9 13 10 7 6 5 5 4 5 6 6 6 8 7 8 9 9 9 9 9 9 9 9 10 10 10 10 9 9 8 9 9
16 17 15 10 8 7 14 13 8 7 7 8 10 9 8 6 5 5 5 6 6 6 6 7 8 8 9 9 10 9 9 9 10 10 10 10 9 8 9 8 9 11 12 12
15 17 19 8 8 11 9 8 7 6 7 8 8 8 7 6 6 5 6 6 7 7 8 9 9 9 10 10 10 9 9 9 10 9 7 8 8 9 9 10 12 13 15 16
13 14 8 7 8 7 6 7 7 7 6 6 7 7 7 6 6 6 6 6 7 7 9 9 9 8 10 10 9 9 9 8 8 8 8 9 9 11 11 12 13 14 15 16
11 9 8 7 6 6 6 6 6 5 6 6 7 7 7 7 8 7 7 7 7 7 8 9 8 8 8 8 8 8 8 9 9 10 12 12 12 12 13 14 14 14 15 17
11 9 7 6 6 6 6 5 5 5 6 6 7 6 7 7 8 7 7 7 6 7 8 9 8 8 7 8 8 9 11 12 14 14 14 15 16 16 15 15 14 15 16 17
12 8 8 7 6 5 5 5 5 5 6 6 6 6 6 7 7 7 7 7 7 8 9 9 9 9 9 10 10 11 13 14 15 15 15 16 17 17 14 15 15 15 16 17
9 6 7 6 6 5 6 6 6 6 6 6 6 6 7 7 8 9 8 8 8 10 13 13 14 14 13 12 12 14 15 15 15 16 16 16 17 17 18 17 16 16 16 16
7 6 8 7 8 7 6 6 6 7 7 7 7 6 6 7 8 8 10 12 14 14 15 16 16 16 15 14 15 16 16 16 17 17 17 17 17 18 18 18 18 18 17 17
8 7 7 7 7 7 7 7 9 12 13 14 13 10 9 12 14 15 15 15 16 17 17 17 18 17 16 16 16 17 17 17 17 18 17 17 17 17 17 17 17 17 17 17
8 9 9 9 10 11 11 11 13 14 15 15 16 17 17 18 19 19 18 17 18 19 18 18 18 17 16 16 17 17 17 17 17 18 18 18 18 18 18 18 18 18 18 19
10 11 11 11 12 13 14 14 15 16 16 17 17 17 18 18 19 19 19 19 19 19 18 18 19 17 17 17 18 18 18 18 18 18 18 19 19 19 19 19 19 19 20 20
11 11 12 12 13 14 15 16 16 16 17 17 18 18 19 19 19 19 20 20 20 20 20 19 19 17 17 17 17 18 18 18 19 19 19 20 20 19 20 20 19 20 20 20
14 14 14 15 15 16 16 17 17 17 17 18 18 19 19 20 20 20 20 20 21 21 20 19 17 18 19 19 19 19 19 19 19 20 20 21 21 20 21 20 20 20 20 20
16 16 17 17 16 17 18 18 18 18 18 18 19 19 20 19 20 20 21 22 21 21 20 19 19 19 19 19 19 19 20 21 20 21 21 21 21 21 21 21 21 21 22 22
17 17 17 17 17 17 17 17 18 19 19 19 20 20 20 19 19 19 20 21 21 20 20 20 20 21 20 20 20 21 21 21 21 21 21 22 22 22 22 23 23 23 25 25
17 18 18 18 18 18 18 18 18 18 19 19 20 20 21 21 21 20 20 22 21 21 21 22 22 21 20 20 20 21 21 21 22 22 23 23 23 24 25 26 27 27 28 29
17 17 18 18 19 19 19 19 19 19 20 20 20 20 21 20 20 22 23 21 21 22 22 22 21 21 21 22 22 23 24 24 24 25 26 26 27 27 26 24 24 25 29 27
18 18 18 17 18 18 20 19 19 19 19 19 19 19 20 21 21 20 20 21 22 22 22 22 22 23 23 24 24 25 26 26 26 28 28 28 30 30 30 32 30 29 26 27
19 19 19 19 19 19 18 18 19 19 19 19 19 19 19 19 21 20 20 21 21 22 23 24 24 26 26 27 27 27 27 27 27 29 30 32 33 34 34 31 29 28 30 31
18 18 19 18 19 18 18 18 19 19 19 21 21 21 21 20 20 20 21 21 22 22 22 23 23 24 26 25 27 29 31 28 27 29 32 33 33 32 32 31 32 33 33 34
19 19 19 19 20 20 20 20 21 21 21 22 23 21 21 21 22 22 24 24 25 25 26 27 27 27 27 30 30 30 29 30 29 29 32 34 33 32 32 33 34 35 35 33

GFSNGP_con_lsi_057.txt.gz
Lid_Strength_Index
11 11 11 11 12 12 13 12 14 13 13 10 9 9 8 8 8 9 9 8 7 6 6 5 4 3 3 3 2 2 3 2 3 2 2 2 2 2 2 3 4 5 5 6
14 11 11 12 12 11 12 12 12 12 12 9 7 8 9 8 8 9 8 8 7 6 5 5 4 4 3 3 3 2 2 2 2 2 3 3 2 3 4 5 6 6 7 8
17 13 12 15 13 11 11 11 11 13 11 8 9 9 9 8 9 8 8 8 8 5 5 4 4 4 4 4 3 3 3 3 3 3 3 4 5 6 6 7 7 8 8 9
17 15 20 12 9 9 11 10 10 10 10 9 9 8 8 8 8 7 8 8 8 7 4 4 4 4 5 4 3 3 3 3 3 4 5 6 6 7 8 8 9 9 9 8
17 18 15 12 10 11 11 11 9 10 9 9 10 10 10 8 8 7 7 7 7 7 4 4 4 5 6 6 4 4 5 5 6 6 7 7 8 9 9 9 10 9 9 9
16 19 20 13 9 7 8 13 9 9 9 9 10 12 10 8 8 7 8 7 5 4 4 5 6 6 7 8 7 7 7 7 7 7 8 8 9 9 10 9 10 10 11 10
16 17 15 10 8 7 15 13 8 8 8 9 9 7 7 8 8 7 6 4 4 4 4 6 7 7 8 9 9 8 9 9 9 8 9 9 10 10 10 10 12 13 14 14
15 17 19 8 9 13 10 8 7 7 7 8 8 8 8 7 8 6 6 5 5 6 7 7 7 7 9 10 11 11 11 11 10 10 10 11 11 11 11 12 13 15 15 15
13 14 9 7 8 7 7 7 7 7 6 7 8 8 8 8 7 6 6 6 6 7 8 8 7 7 10 11 11 11 11 11 10 10 10 11 12 11 12 13 14 15 15 16
12 9 8 6 6 7 7 6 5 5 6 7 8 8 8 8 7 7 7 7 7 7 8 9 10 10 11 11 10 10 11 10 10 13 14 13 12 12 13 13 14 15 15 17
11 9 7 6 6 6 5 5 6 5 5 6 6 7 7 7 7 7 7 7 7 8 10 11 10 10 10 9 9 10 11 13 14 15 16 15 15 14 15 14 13 15 16 17
13 9 9 8 6 6 6 6 5 6 5 6 6 6 6 6 7 8 8 8 9 9 10 10 10 10 10 9 10 12 14 15 15 16 16 16 17 17 14 14 14 14 15 16
8 7 7 6 6 7 7 7 6 7 9 9 8 8 6 8 8 9 9 10 12 13 13 14 14 14 13 12 12 14 16 16 16 17 17 17 18 18 19 17 16 16 16 17
8 8 7 7 9 8 8 8 10 11 12 13 12 10 10 9 12 14 15 15 15 16 16 16 16 17 15 15 15 16 16 16 16 17 17 17 17 17 17 18 19 18 17 17
9 8 9 8 10 11 10 11 13 14 15 15 16 16 16 17 17 17 17 17 17 17 17 17 17 17 16 16 16 16 16 17 17 17 17 17 16 16 17 17 18 18 18 18
10 9 9 10 12 12 13 14 15 16 16 17 17 18 18 18 18 18 18 18 18 19 18 18 18 17 16 16 16 17 17 17 17 17 17 17 17 18 18 18 18 18 19 20
11 11 11 11 12 14 15 15 16 16 17 17 18 18 18 18 19 19 19 19 20 20 19 19 19 18 17 17 17 18 18 18 18 18 18 18 19 19 19 19 20 20 21 21
12 13 13 13 14 15 16 16 17 17 17 18 18 19 20 20 20 20 20 19 20 21 20 19 19 18 18 18 17 17 18 18 19 19 19 19 19 20 20 20 21 21 21 21
14 15 15 16 16 16 17 17 18 18 18 18 19 20 20 20 20 20 20 20 21 22 21 19 18 19 19 19 19 19 20 20 20 20 20 21 22 22 22 22 22 22 21 22
16 16 16 17 17 17 18 17 18 18 18 19 20 20 21 21 21 22 22 22 21 20 19 19 19 20 20 19 19 20 21 21 21 21 22 22 23 23 23 22 22 23 23 23
18 18 18 18 18 18 18 18 19 20 20 19 20 21 21 21 21 21 22 23 22 21 21 20 19 19 20 20 20 21 22 22 23 23 24 23 24 24 25 25 25 26 28 28
17 18 18 18 19 19 18 18 19 19 19 19 20 20 21 22 22 22 22 23 22 21 21 21 21 22 22 22 22 23 23 23 24 24 25 26 27 29 30 30 30 30 31 31
17 18 18 19 19 19 19 19 20 20 20 21 21 21 22 21 21 23 24 22 21 22 22 23 23 23 24 24 24 25 26 27 27 28 29 30 32 34 33 33 33 32 31 27
19 19 19 18 18 19 20 19 19 19 20 20 20 20 20 22 22 21 21 22 23 23 24 25 25 25 26 26 27 27 28 29 30 31 30 33 36 36 35 34 32 33 32 32
19 19 19 19 19 19 19 19 19 20 20 20 19 19 19 19 21 21 21 22 21 23 24 26 26 27 28 29 30 31 31 32 34 34 34 34 35 35 35 34 35 35 35 36
19 19 19 19 19 19 19 19 20 20 20 22 22 22 22 21 21 22 23 24 24 26 27 30 31 30 30 30 34 34 31 29 32 33 34 35 36 35 36 35 37 37 37 38
20 19 19 20 20 20 21 21 22 23 24 25 24 23 23 24 25 25 27 28 28 29 31 33 32 30 31 33 33 33 33 33 33 34 37 37 36 37 37 37 38 38 39 38

GFSNGP_con_lsi_060.txt.gz
Lid_Strength_Index
12 11 11 12 13 13 14 14 16 15 14 11 10 9 8 8 8 8 8 9 8 6 6 4 4 4 4 3 3 3 4 4 4 4 3 3 3 2 2 2 2 2 2 3
14 12 12 13 13 13 13 13 13 13 14 10 9 9 9 8 8 8 8 8 9 7 6 5 4 4 3 3 3 3 3 3 3 3 3 3 3 3 3 2 2 2 4 4
17 13 13 16 13 12 12 11 12 14 12 10 10 9 9 8 8 8 8 8 8 8 6 5 5 4 4 3 3 3 3 3 3 3 3 3 3 3 3 3 4 5 6 7
17 15 21 13 10 10 11 11 11 11 11 9 9 8 9 8 8 8 8 8 8 8 7 5 5 5 5 5 4 3 3 3 3 3 3 3 3 4 5 6 6 7 7 7
17 17 15 13 11 11 12 12 10 11 10 9 9 11 10 9 9 8 9 8 8 8 7 6 4 4 4 5 4 4 4 4 4 3 3 5 6 8 8 8 7 9 9 9
16 19 20 13 9 8 9 14 9 9 9 9 9 13 11 7 8 8 8 8 8 8 7 5 4 4 4 4 5 5 5 5 4 5 6 7 8 8 9 9 10 11 11 10
16 16 15 10 8 7 16 14 8 8 8 8 10 10 8 8 8 8 7 6 5 5 5 4 4 4 6 6 5 6 7 7 8 7 8 8 10 10 10 11 13 14 15 15
15 17 19 8 9 13 10 8 8 7 7 7 7 7 8 7 7 8 7 5 5 5 6 6 6 6 8 8 8 9 9 10 10 10 11 11 11 12 12 14 15 16 17 17
13 14 9 8 8 7 6 7 7 7 7 6 7 8 8 7 8 7 6 6 6 6 7 7 6 7 8 11 11 11 11 12 11 11 11 11 12 13 14 14 16 16 16 16
12 10 9 7 7 6 6 6 6 5 6 6 7 7 8 8 8 8 7 7 6 7 8 9 8 9 10 11 10 11 12 13 12 13 13 13 13 13 14 15 15 15 16 17
11 10 8 8 7 6 7 6 6 5 5 6 7 6 7 7 8 8 8 7 7 8 10 10 9 10 10 10 11 12 13 13 14 14 15 15 16 15 15 14 14 15 16 17
13 9 9 8 7 8 8 8 8 8 7 9 11 10 8 7 8 8 9 9 10 11 12 12 12 13 11 11 11 13 14 15 15 16 16 16 16 17 15 15 15 16 16 17
8 8 8 8 7 9 10 9 10 11 12 13 12 13 10 12 14 13 13 14 15 15 15 15 16 16 14 13 13 14 15 16 16 16 16 17 17 18 19 17 16 16 16 16
7 8 8 8 9 10 10 11 11 13 14 15 15 14 15 16 16 17 17 16 16 16 17 17 17 17 16 15 16 16 16 16 17 17 17 17 18 18 17 18 19 18 16 16
10 9 8 8 10 11 12 13 15 16 16 17 16 17 17 18 18 17 16 16 17 17 17 17 18 17 16 16 16 16 16 17 16 16 17 17 16 17 17 18 18 18 18 18
11 10 8 9 11 13 14 14 16 16 16 17 17 18 18 18 19 19 19 18 19 20 19 19 19 18 17 17 17 18 18 18 17 17 17 18 17 17 17 18 18 18 19 19
12 12 12 12 13 15 15 15 16 16 17 17 18 18 18 19 19 20 20 20 20 20 20 20 20 19 18 18 18 18 19 19 18 19 18 18 18 19 19 19 20 21 21 20
13 13 14 14 15 15 16 16 17 17 18 18 19 19 20 21 21 21 21 20 21 21 20 19 18 18 18 18 19 19 18 19 19 19 19 20 20 20 20 21 21 21 22 22
15 15 15 16 16 16 17 18 18 18 19 19 20 21 21 21 21 21 21 21 21 22 21 20 18 19 20 19 19 20 20 21 21 21 21 22 22 22 22 23 23 23 23 23
15 15 16 17 17 17 18 18 18 19 19 20 20 21 22 21 21 22 22 23 22 21 20 20 21 21 21 21 20 20 21 21 21 22 23 23 24 24 23 24 24 25 26 26
17 18 18 18 19 18 19 19 19 20 20 20 22 22 23 22 22 22 23 24 22 21 21 21 21 22 21 21 22 22 23 24 24 25 26 27 27 28 28 29 29 31 31 32
18 19 19 19 19 20 19 19 20 20 20 20 21 21 22 23 23 23 22 23 22 22 23 23 23 24 23 23 24 25 25 25 26 27 27 28 30 31 32 33 35 35 36 34
18 18 19 19 20 20 19 20 20 21 21 22 22 22 23 22 22 24 25 23 23 24 24 25 25 25 25 26 26 27 27 28 29 31 32 34 36 37 36 36 37 35 35 33
19 19 19 19 19 20 21 20 19 20 20 20 21 21 21 23 23 22 23 25 26 26 26 26 27 27 28 28 29 30 31 33 34 37 36 37 40 40 38 38 36 37 37 36
19 19 19 19 19 20 20 20 20 21 21 21 21 21 21 21 23 23 23 24 24 26 28 29 29 30 31 32 34 34 35 36 38 38 39 39 39 38 38 38 39 38 39 39
20 20 20 20 20 20 20 20 22 21 21 23 23 23 24 23 23 24 25 26 26 28 30 35 36 36 36 34 36 36 35 33 35 36 38 38 38 38 39 37 39 39 40 40
21 21 21 21 22 22 22 23 24 26 28 29 26 25 27 28 29 27 31 32 34 35 37 38 37 34 34 36 35 36 35 36 37 37 40 39 38 39 39 40 40 41 40 41

GFSNGP_con_lsi_066.txt.gz
Lid_Strength_Index
11 11 10 11 11 10 11 11 12 11 10 9 8 7 6 5 4 4 4 4 3 3 3 3 2 2 2 2 1 1 1 1 1 1 1 1 1 1 0 0 0 0 0 0
12 10 10 12 10 10 9 9 10 10 10 7 6 6 6 6 5 4 4 4 3 3 3 3 3 2 2 2 2 1 2 2 1 1 1 1 1 1 1 1 1 1 1 1
14 11 12 13 11 10 10 9 9 11 9 6 7 6 6 6 6 5 4 4 3 3 3 2 2 2 2 2 1 2 2 2 1 1 1 1 1 1 1 1 1 1 1 1
14 13 19 11 8 8 9 9 8 8 8 7 6 5 5 5 5 6 5 4 4 3 3 2 2 1 1 1 2 2 2 2 1 1 2 1 1 1 1 1 1 1 1 1
15 15 12 11 9 9 10 11 8 8 7 6 6 5 6 4 4 4 4 3 3 3 3 2 3 3 2 2 2 2 2 2 2 1 2 2 2 2 1 1 1 1 1 2
14 16 17 11 8 7 7 11 7 7 7 6 6 10 7 4 4 3 3 3 3 3 2 2 2 2 3 2 2 2 2 2 1 1 1 2 2 2 1 1 3 7 10 9
14 15 12 8 7 6 12 11 7 6 6 6 7 6 4 3 3 3 3 3 2 2 3 3 2 2 3 2 3 2 2 1 1 1 2 1 2 3 6 10 11 13 14 13
13 15 17 7 7 10 8 6 6 6 5 6 5 5 4 4 4 3 3 3 3 3 3 3 2 2 3 3 2 2 2 2 2 2 5 5 8 10 11 12 14 15 15 16
10 11 7 6 6 5 5 6 6 6 5 5 5 5 4 4 4 3 3 3 3 3 4 5 6 4 3 6 6 7 7 8 9 10 11 11 11 12 13 13 14 15 15 16
9 7 7 6 5 5 4 5 4 4 4 5 6 5 5 4 4 4 4 5 5 4 5 7 9 10 9 8 8 9 11 12 12 13 13 13 13 13 14 14 15 15 16 17
8 7 6 6 5 5 5 4 5 5 6 7 8 7 7 6 7 7 8 8 8 7 8 9 9 12 12 11 10 11 12 13 14 15 15 16 16 14 15 14 14 15 16 16
10 7 8 7 5 6 6 6 6 7 8 7 8 9 9 9 9 10 10 10 11 12 13 12 12 13 14 13 12 12 14 14 14 14 15 15 16 17 16 16 16 16 16 17
7 6 6 6 7 8 8 8 7 8 9 10 9 10 10 12 13 13 13 13 13 14 14 15 15 16 15 14 14 15 15 15 15 15 15 16 17 18 19 17 16 16 16 16
8 8 7 9 9 9 9 9 10 11 11 12 11 11 12 13 14 15 16 15 15 15 15 15 16 16 15 15 15 16 16 16 16 17 17 17 18 18 18 19 20 18 17 16
10 10 10 9 10 11 11 10 12 13 14 14 14 14 15 16 17 18 17 16 17 17 17 17 17 17 16 16 17 17 17 17 17 17 17 17 17 17 18 18 18 18 18 18
11 10 11 11 12 13 13 13 13 15 14 15 15 16 17 16 18 19 18 18 19 20 19 19 18 17 16 17 17 17 17 17 16 16 17 17 16 16 17 17 17 18 18 18
12 11 11 11 12 13 14 14 14 14 15 16 17 16 17 17 18 19 19 19 19 19 18 18 18 17 16 15 15 15 16 16 16 17 17 17 16 17 17 17 18 19 20 19
12 12 12 12 12 13 14 15 15 16 17 17 18 18 19 19 20 19 19 18 18 19 18 18 17 17 17 16 16 15 16 16 17 17 17 18 18 17 17 18 18 19 20 19
13 13 13 13 14 14 15 16 17 17 18 18 19 20 20 20 20 20 19 19 20 20 20 18 18 18 18 17 16 16 17 17 17 18 18 18 18 18 18 19 19 19 20 20
15 15 15 15 15 16 17 17 17 18 18 18 19 19 20 20 19 20 20 22 21 20 20 19 19 19 19 19 18 18 18 18 19 20 19 19 20 20 20 21 20 20 20 21
17 17 17 18 17 17 18 17 18 19 19 19 20 21 22 21 21 19 20 22 21 20 20 21 20 19 20 19 19 19 19 20 20 21 21 21 21 21 21 21 21 21 21 21
17 18 18 18 18 18 18 18 18 19 19 20 19 20 21 21 22 22 22 21 21 21 21 21 21 22 21 20 20 20 20 21 21 21 21 21 21 21 22 21 21 21 21 21
17 17 18 18 19 19 18 19 19 19 20 21 21 21 20 20 20 21 22 21 20 21 21 22 23 22 21 20 20 20 21 21 21 21 21 21 21 21 21 22 22 22 22 22
17 17 18 17 17 18 19 18 18 18 19 19 20 19 18 19 20 19 20 21 22 22 22 22 22 22 21 20 21 21 21 21 21 21 22 23 21 22 22 22 22 21 22 22
17 16 16 16 17 17 17 17 17 18 18 18 18 18 19 18 19 20 20 21 22 21 21 23 23 22 20 20 21 21 21 21 21 21 21 21 21 21 20 20 21 21 21 21
16 16 16 16 16 16 16 16 16 16 17 18 18 18 18 18 18 19 20 21 21 21 20 20 21 20 20 20 20 21 20 20 20 20 20 20 20 20 21 21 22 22 22 22
16 16 16 17 17 17 16 16 16 17 17 17 18 17 18 18 19 19 20 19 19 20 20 19 19 20 19 19 19 18 18 18 22 20 19 20 20 20 22 22 22 22 22 22

GFSNGP_con_lsi_069.txt.gz
Lid_Strength_Index
10 10 9 10 10 9 10 10 12 11 10 8 7 7 6 6 5 4 4 4 3 3 3 2 2 2 2 2 1 1 1 1 2 1 1 1 1 1 1 1 1 0 1 0
13 10 10 11 10 10 10 9 9 9 10 7 6 6 6 6 5 5 4 4 3 3 3 2 2 2 2 2 2 1 2 2 1 1 1 1 1 1 1 1 1 1 1 1
17 12 12 14 11 10 10 9 9 11 9 7 7 7 6 5 5 5 5 4 3 3 3 2 2 2 2 2 1 2 2 2 1 1 1 1 1 1 1 1 1 1 1 1
16 14 19 12 7 8 9 9 8 8 7 7 6 5 5 4 5 5 5 4 3 3 2 2 2 1 1 1 2 2 2 2 2 2 2 1 1 1 1 1 1 2 1 1
16 16 14 11 9 10 11 11 7 8 7 6 6 5 5 4 4 4 4 3 3 2 2 2 2 2 2 2 1 2 2 2 2 1 2 2 2 2 1 1 1 2 1 1
14 18 19 11 8 7 7 14 7 7 7 7 6 9 6 4 3 3 3 3 3 3 2 3 2 2 2 2 2 2 2 2 1 1 1 2 2 2 1 1 2 2 4 7
14 14 12 8 7 6 13 13 6 6 6 6 7 6 4 3 3 3 3 3 2 2 3 3 3 2 3 3 3 2 2 1 1 1 1 1 1 1 1 2 8 11 13 13
12 14 16 6 7 10 8 6 6 5 5 6 5 4 4 4 3 3 3 3 2 3 3 4 4 3 4 5 5 3 2 3 5 5 5 4 4 7 8 10 13 14 14 15
10 10 7 6 7 5 5 6 5 5 5 5 5 5 4 4 4 3 3 3 3 3 4 5 7 8 9 9 8 8 8 8 9 10 11 11 11 12 13 12 13 14 16 17
9 8 7 6 5 5 4 5 4 4 4 4 5 5 5 4 5 4 4 5 5 5 7 9 10 10 11 10 10 12 13 13 13 14 14 14 13 13 14 15 16 16 17 18
8 7 6 6 5 5 4 4 4 4 5 5 5 5 6 5 7 7 7 7 8 8 9 10 11 12 12 12 11 13 14 15 15 16 16 17 18 17 17 16 15 16 17 17
10 7 7 6 5 5 5 6 5 5 6 6 6 7 7 7 9 10 11 10 11 12 11 12 12 12 13 13 12 13 14 15 15 16 17 17 18 18 16 16 16 16 16 17
7 5 5 5 6 6 7 7 7 7 8 9 8 9 9 9 11 12 13 14 14 14 14 14 13 14 13 12 13 15 16 16 16 17 17 17 17 18 19 17 16 16 16 16
7 7 7 7 9 8 9 8 8 9 10 11 12 12 13 14 14 15 15 15 15 15 16 15 15 16 15 14 14 15 16 17 17 17 17 17 18 18 18 19 19 19 17 17
9 8 9 9 10 11 10 10 11 12 12 13 14 14 15 16 17 17 16 15 16 16 17 16 16 15 14 15 15 15 15 16 16 16 16 17 17 18 18 18 19 18 18 18
10 8 9 10 11 12 12 12 12 12 12 13 14 15 15 15 16 17 17 17 17 17 17 17 17 15 14 13 14 14 15 15 15 15 15 16 16 17 17 18 19 18 18 17
12 12 12 12 11 12 12 12 12 13 13 14 14 14 14 15 16 16 16 17 17 17 17 17 17 15 14 14 14 14 15 15 16 15 15 15 16 16 17 18 19 19 19 18
12 12 12 12 12 12 13 13 13 14 15 15 15 16 17 17 18 18 17 17 18 19 18 17 17 16 15 14 14 14 15 15 16 16 16 16 16 16 17 18 18 19 18 18
13 13 13 13 12 13 14 15 15 15 16 16 17 18 18 19 19 19 19 20 20 21 20 18 18 17 17 16 15 15 16 16 16 17 17 17 17 17 18 18 18 19 19 19
14 14 14 15 15 15 16 16 16 16 16 16 17 18 18 18 18 18 20 21 21 20 19 19 18 18 18 17 17 16 16 17 17 18 18 18 18 19 19 19 19 19 19 20
16 16 17 17 17 17 17 17 17 18 18 18 19 20 20 20 21 19 19 21 20 19 19 20 20 18 18 18 17 17 18 18 18 19 19 19 19 19 19 19 19 19 20 20
16 16 17 17 18 18 17 17 18 18 18 18 18 18 18 19 20 21 21 20 20 20 20 20 20 20 19 19 18 18 18 19 18 19 19 19 19 19 19 19 20 20 20 20
16 16 16 17 17 18 18 18 18 18 19 19 19 19 19 19 19 20 22 20 19 20 19 21 21 20 19 18 18 18 19 19 19 19 19 19 19 20 20 20 20 20 20 20
16 16 16 16 16 16 17 17 17 17 18 18 18 18 17 17 18 17 18 19 20 20 21 20 20 20 20 18 19 19 19 19 19 19 19 20 19 20 20 20 20 19 20 20
15 15 14 14 15 15 15 15 16 16 16 17 17 17 17 17 18 18 18 18 20 18 18 20 20 19 18 18 19 19 18 19 20 19 19 19 19 19 19 19 19 19 19 19
14 14 14 14 14 13 13 13 14 14 14 16 16 16 16 16 16 16 17 18 18 18 18 18 19 18 17 18 18 18 18 18 18 18 18 17 17 17 18 19 19 19 19 20
14 14 14 14 15 14 14 14 13 14 14 14 15 15 15 15 16 15 17 16 16 17 16 16 16 18 18 17 16 16 16 16 19 18 18 17 18 18 19 19 19 19 20 20

GFSNGP_con_lsi_072.txt.gz
Lid_Strength_Index
13 12 12 13 12 11 12 12 14 12 12 10 8 7 6 6 5 5 5 4 4 4 3 3 3 3 2 2 2 2 2 2 2 2 1 1 1 1 1 1 1 1 1 1
14 11 11 14 11 11 11 11 10 10 11 7 6 6 6 6 6 6 5 5 4 4 3 3 3 3 3 2 2 2 2 2 2 2 2 2 2 2 1 1 1 1 1 1
17 13 13 15 12 11 10 9 10 13 11 7 7 7 7 6 6 6 6 5 4 4 4 3 3 2 3 2 2 2 2 2 2 2 2 2 2 2 2 2 1 2 2 1
16 15 20 12 9 9 11 10 9 9 8 7 7 6 5 5 5 5 5 5 4 4 3 3 3 2 2 2 2 2 2 2 2 2 2 2 2 2 2 2 2 2 2 2
17 17 15 12 11 12 11 12 9 9 8 7 7 6 6 5 4 4 4 4 4 3 3 3 3 2 2 2 2 3 3 2 2 2 2 2 2 2 2 2 2 2 2 2
15 18 20 12 9 8 9 16 8 8 7 7 7 11 8 5 4 4 3 3 3 3 3 5 5 4 3 5 5 4 3 2 3 2 2 2 2 2 2 2 2 2 3 9
15 17 12 9 8 7 16 14 8 7 7 7 8 7 6 4 4 3 3 3 3 3 5 6 7 5 7 7 8 6 5 5 6 7 6 4 2 2 2 3 9 12 14 15
13 15 17 7 8 12 9 7 7 7 7 7 7 7 7 5 4 4 5 5 4 4 6 8 9 8 9 10 9 9 9 10 11 11 11 10 8 9 10 11 13 15 16 16
11 12 8 6 7 6 5 7 7 7 7 7 7 8 7 6 6 6 6 6 6 7 8 9 10 11 11 11 9 11 12 13 14 14 15 15 14 13 14 14 15 16 17 18
10 9 8 7 5 5 5 6 6 7 7 7 8 8 7 7 7 7 7 8 8 8 10 11 11 11 11 11 10 11 13 14 14 16 17 17 16 16 16 16 16 17 18 18
11 9 8 7 6 6 6 5 6 5 6 7 7 7 7 8 9 9 10 11 11 12 12 13 12 12 12 12 10 11 12 13 15 16 16 17 17 17 17 16 16 18 18 18
13 8 8 9 7 6 6 7 6 7 7 7 8 8 8 10 10 11 12 12 13 14 14 14 14 14 14 12 12 12 13 14 14 16 17 17 17 18 16 16 16 16 16 17
9 7 7 7 7 7 8 7 7 8 9 10 10 10 11 13 13 14 14 14 15 15 14 15 15 15 14 14 13 14 14 14 15 15 16 17 18 18 19 18 17 17 16 16
7 7 8 9 10 9 8 8 9 10 11 12 12 12 14 15 15 15 16 15 15 15 15 14 14 14 13 13 14 14 14 14 15 16 16 16 17 18 18 19 20 20 17 17
9 8 9 9 10 10 10 10 11 12 13 14 14 15 15 17 17 17 16 16 16 16 16 16 15 15 13 13 14 14 14 15 15 15 15 16 16 17 18 18 18 19 18 18
9 10 10 10 11 11 11 12 12 13 14 14 15 15 16 16 16 16 16 17 18 18 17 17 17 15 14 13 14 15 15 15 15 15 16 17 17 18 18 19 19 19 19 19
12 13 13 12 12 13 13 13 13 14 15 15 15 15 15 15 16 16 17 17 18 18 17 17 17 16 14 14 14 15 15 16 16 16 16 16 17 18 18 19 19 20 19 18
12 13 13 13 13 14 14 15 15 15 16 16 16 17 18 18 19 18 18 18 19 20 19 18 17 17 16 15 15 15 16 16 17 17 17 17 17 17 18 18 19 19 20 20
14 14 14 14 14 15 15 16 16 16 17 17 18 19 18 19 19 19 19 19 20 21 21 18 17 17 17 17 16 16 17 17 18 18 18 19 19 19 19 19 19 20 20 20
15 15 16 16 15 16 17 17 17 18 18 18 19 20 20 20 18 19 20 21 20 20 19 19 18 18 18 17 17 17 18 18 18 19 19 19 20 20 20 21 20 20 21 21
16 16 16 16 17 17 17 18 18 19 19 19 19 20 21 21 21 20 20 22 21 19 19 20 20 19 18 18 18 18 18 19 19 19 20 20 20 20 21 20 21 21 21 21
16 16 17 17 18 18 17 17 18 18 18 19 19 19 19 20 20 21 21 21 20 20 20 20 20 20 19 18 18 19 19 19 19 19 20 20 20 20 21 21 21 21 21 21
16 16 17 17 18 18 18 18 18 18 19 19 19 19 19 19 19 21 22 20 20 21 20 20 21 20 19 18 19 19 19 19 20 20 20 20 21 21 21 22 21 22 22 23
16 16 16 16 15 16 17 17 17 17 18 18 18 18 18 18 18 18 19 20 20 21 21 20 20 20 19 19 19 20 20 20 19 19 19 20 20 21 21 22 22 22 23 23
14 14 14 14 15 15 15 15 16 16 16 16 16 16 17 17 18 19 18 18 20 18 19 20 20 18 18 18 19 19 19 20 21 20 20 20 20 20 20 21 21 22 21 21
14 14 14 14 14 14 14 14 15 14 15 16 16 15 15 15 16 16 17 18 17 17 17 17 18 18 18 18 18 18 18 18 19 19 19 18 19 19 19 20 21 20 21 22
14 14 14 15 15 15 15 15 14 14 14 14 15 14 14 14 15 15 16 15 15 16 16 16 16 17 18 18 17 17 17 17 20 19 19 19 19 20 20 21 22 22 22 23

GFSNGP_con_lsi_075.txt.gz
Lid_Strength_Index
12 12 12 13 13 13 14 14 17 14 13 12 10 9 8 7 6 6 6 5 5 5 6 5 4 4 4 3 3 3 3 2 2 2 2 2 2 1 1 1 1 1 1 1
14 11 12 14 13 13 13 12 13 13 13 9 8 7 8 7 7 6 6 6 5 5 4 4 4 4 4 4 3 3 3 3 3 2 2 2 2 2 1 1 1 1 1 2
17 13 14 17 14 13 12 11 12 15 12 9 9 8 8 8 7 7 6 5 5 5 4 5 5 4 4 3 3 3 3 3 3 3 3 2 2 2 2 2 2 2 2 2
17 15 21 13 9 10 12 11 10 10 9 8 8 8 7 7 7 7 5 5 5 5 6 7 6 4 3 4 5 5 5 4 3 3 3 3 3 2 2 2 2 2 2 2
17 17 14 13 12 12 13 13 10 10 9 8 7 8 9 6 6 6 5 5 6 7 8 9 9 6 6 7 6 6 6 7 8 7 6 3 3 3 2 2 2 2 2 2
15 19 20 13 10 8 8 16 9 9 9 9 8 12 10 7 7 8 7 6 8 9 10 11 11 8 8 9 9 9 8 8 9 10 9 9 7 6 3 3 3 2 3 8
16 17 14 10 8 7 16 15 8 8 9 9 11 10 8 7 8 8 9 9 8 9 11 11 11 10 10 11 11 10 10 10 10 11 11 12 10 10 10 7 7 10 12 14
15 17 18 8 9 13 10 7 8 8 8 9 9 8 8 9 10 10 11 10 9 11 11 11 11 11 11 12 10 10 11 12 13 13 13 13 13 13 13 13 13 14 16 17
12 13 8 7 8 7 7 8 8 9 9 8 9 9 10 11 11 12 12 12 11 12 12 12 12 12 13 12 11 11 12 13 14 14 15 14 15 15 15 15 15 17 17 18
11 9 9 8 7 7 7 8 8 9 9 9 10 10 12 12 13 14 14 14 13 13 14 15 14 14 13 12 11 11 12 13 14 15 15 15 15 15 16 16 17 17 18 19
11 11 10 9 8 8 8 8 9 9 11 11 11 11 13 14 14 15 15 15 14 13 14 14 14 14 13 13 12 12 13 13 14 15 15 15 15 15 16 16 15 17 18 17
13 10 11 11 9 8 9 10 10 10 11 12 11 12 13 14 15 15 15 14 14 14 14 13 14 13 13 12 13 13 14 14 15 15 15 15 15 15 13 14 14 14 15 15
10 8 9 10 10 9 10 11 11 12 12 13 13 13 14 15 15 15 15 15 15 15 15 14 13 13 13 12 13 13 14 14 14 15 15 16 16 17 18 16 15 15 14 14
9 8 12 12 12 10 10 10 11 13 13 14 14 15 16 16 16 16 16 16 16 16 16 16 15 14 13 14 13 13 14 14 15 15 15 16 17 17 18 18 19 19 17 16
10 9 10 10 11 12 11 11 13 14 15 15 15 16 16 17 19 19 18 17 18 18 18 18 17 16 14 14 15 15 14 15 15 16 16 17 17 18 18 18 19 19 19 19
11 12 11 12 12 13 13 13 15 15 15 16 16 17 17 18 19 19 19 19 20 20 19 19 18 17 15 14 15 15 15 15 15 16 17 18 18 19 19 19 20 20 21 21
15 15 14 14 15 16 16 15 16 16 17 18 18 17 17 19 19 20 20 20 20 20 19 18 18 17 15 15 15 15 16 16 16 16 16 17 18 19 19 20 21 21 21 20
14 15 15 15 16 17 17 17 17 18 19 18 19 20 20 21 21 20 20 20 21 21 21 18 17 17 16 15 15 16 16 17 17 18 18 18 18 18 19 20 21 21 22 22
16 16 16 16 17 17 17 18 18 18 18 18 19 20 21 21 22 22 21 22 22 23 22 20 17 18 18 16 17 17 17 18 18 18 18 19 20 20 20 21 22 23 23 23
17 17 17 18 17 18 19 20 19 19 19 20 21 22 22 22 21 22 22 23 22 22 21 21 19 19 19 18 18 18 19 20 19 19 20 20 21 21 21 22 22 22 23 23
20 19 20 20 20 20 20 21 21 21 21 22 22 23 24 24 23 22 23 24 23 21 21 21 21 20 19 19 19 20 21 21 21 21 21 22 22 23 23 24 24 25 24 24
21 20 21 21 21 20 21 21 21 22 23 23 24 23 23 23 24 23 23 23 22 22 22 21 21 21 20 20 20 21 20 21 22 22 22 23 24 25 25 24 26 27 27 25
21 21 21 23 22 22 22 23 24 23 24 25 24 23 21 21 20 23 24 21 21 22 21 22 22 21 20 21 22 22 22 22 22 24 24 25 26 27 27 26 24 25 29 28
19 20 21 20 19 19 20 21 19 20 21 20 22 22 18 20 20 20 20 22 22 25 25 23 22 22 24 24 22 24 26 26 24 24 24 26 28 27 25 30 29 31 31 26
18 18 17 18 17 19 18 17 17 17 17 17 18 18 19 19 23 22 23 23 21 20 25 26 23 22 26 28 29 27 25 30 29 30 26 27 30 26 30 31 31 28 26 27
15 17 16 16 17 17 16 16 17 17 17 19 21 24 25 22 19 19 20 21 22 21 23 26 28 28 28 25 27 28 25 24 28 28 29 27 29 25 27 30 30 29 30 31
16 17 15 16 17 18 18 17 17 19 23 23 22 22 19 20 22 19 21 24 22 25 25 25 23 24 26 27 26 26 26 26 26 27 27 25 28 29 28 30 31 31 30 31

GFSNGP_con_lsi_078.txt.gz
Lid_Strength_Index
13 12 12 12 13 13 14 14 17 14 14 12 11 10 8 7 7 7 7 7 6 7 6 5 5 4 4 4 4 3 3 4 4 3 2 2 2 1 1 1 1 1 1 1
14 11 12 14 12 12 12 13 13 13 14 9 9 8 8 8 7 7 7 7 8 8 8 8 6 5 5 4 4 3 4 3 3 3 3 3 3 3 2 1 1 1 2 2
17 13 13 17 14 13 12 11 12 15 11 9 10 9 9 8 7 7 7 7 8 9 9 8 8 7 7 6 5 5 4 3 3 3 3 3 3 3 3 3 2 2 2 2
16 15 21 13 10 10 12 12 10 10 10 9 9 9 9 7 7 8 9 10 10 10 10 10 8 8 8 8 7 7 7 8 8 8 6 5 3 3 3 3 3 3 3 3
17 18 15 13 12 12 13 13 10 10 9 8 8 9 11 10 9 9 10 11 11 11 11 11 10 9 10 10 9 9 9 9 10 9 9 8 7 7 4 2 3 3 2 3
16 18 19 14 10 8 9 16 9 9 9 9 9 13 13 11 11 11 11 12 12 12 12 13 12 10 11 11 11 12 11 11 11 10 10 11 9 10 10 8 5 3 9 13
16 17 14 10 9 8 17 15 9 9 10 9 11 11 12 12 12 12 12 12 12 13 14 14 13 12 13 13 13 12 12 13 14 14 13 13 11 11 11 10 12 14 15 16
15 17 18 8 9 13 10 9 8 9 9 10 11 12 12 13 14 14 14 13 13 14 14 14 14 13 13 14 12 12 13 14 15 15 14 15 14 13 12 12 13 15 16 17
13 13 9 7 8 7 7 9 10 10 10 10 12 13 13 14 15 15 15 15 14 14 15 15 15 15 15 14 12 12 14 15 15 15 15 15 15 15 14 14 15 16 16 17
11 10 9 9 8 8 9 10 11 11 11 11 13 13 15 15 16 16 16 16 15 15 16 16 15 15 15 14 13 14 15 15 15 15 15 15 15 15 15 15 15 15 16 17
11 11 10 10 10 10 10 10 12 12 13 12 14 15 16 16 17 17 17 16 16 16 16 17 16 15 15 15 13 14 14 14 14 14 15 15 15 14 14 14 13 14 15 15
13 11 12 12 11 11 12 13 12 13 14 14 15 16 16 17 18 18 18 17 17 17 17 17 16 16 15 13 13 13 14 14 14 14 15 15 15 16 14 13 13 13 13 13
11 10 11 11 10 11 13 14 14 14 14 16 15 16 16 17 17 17 17 17 17 17 17 16 15 15 14 13 14 14 15 15 15 15 15 16 16 16 17 16 15 15 14 14
10 10 13 12 13 11 12 13 14 15 15 16 16 16 16 17 17 18 18 18 17 18 17 17 16 16 14 15 15 15 16 16 17 17 17 17 17 17 17 18 20 20 17 16
11 11 12 12 13 13 13 14 16 17 17 17 16 17 18 19 20 20 19 18 18 19 19 19 18 17 16 15 16 16 16 17 18 18 18 19 19 19 19 19 20 20 19 19
12 12 12 14 14 14 14 15 16 16 17 17 18 19 19 20 20 20 20 20 21 21 20 20 19 18 17 17 17 18 18 18 18 18 19 19 19 19 19 19 20 20 20 20
15 15 14 16 16 17 17 17 17 18 18 18 19 19 19 20 21 21 21 21 22 22 21 20 20 19 18 18 18 17 18 18 18 17 17 17 18 19 19 20 21 21 21 21
16 16 16 16 17 18 18 18 18 19 20 20 21 22 23 23 23 23 23 23 23 23 22 21 19 19 18 18 17 18 18 18 18 18 19 18 19 19 20 21 21 22 22 22
17 17 17 17 17 18 18 19 20 20 21 21 22 23 23 23 23 24 24 23 23 23 23 21 18 19 20 18 19 19 20 21 20 19 20 21 21 21 22 22 23 23 23 23
18 18 18 19 19 19 20 21 21 21 22 23 24 24 24 24 24 25 25 25 25 23 22 21 20 20 20 20 20 21 21 22 21 22 22 23 23 23 23 23 23 24 23 24
22 21 21 21 22 22 23 25 24 23 25 25 25 28 28 28 27 28 26 25 25 23 22 21 21 21 20 21 21 23 22 23 23 24 25 27 27 26 25 27 27 28 25 26
24 23 24 24 23 22 26 25 24 25 26 26 28 29 27 26 28 26 27 24 22 23 22 21 20 22 21 21 21 22 22 23 23 23 25 26 28 29 30 31 33 33 32 33
24 23 24 25 24 25 25 25 26 25 26 27 28 27 24 23 22 24 25 21 21 23 21 23 23 23 23 24 25 25 25 25 25 27 29 29 31 32 32 32 33 34 33 30
23 23 23 24 23 21 22 23 21 21 25 22 25 22 20 24 25 21 21 24 26 28 26 26 24 26 27 27 29 30 31 32 32 31 31 31 33 33 34 35 34 35 32 32
20 19 18 19 18 19 18 18 18 18 18 18 19 19 19 20 25 25 26 26 22 24 27 29 26 27 30 32 32 29 31 32 33 32 31 32 30 32 34 34 33 31 32 33
16 17 17 16 17 17 16 16 17 17 18 22 23 27 28 24 22 21 23 23 23 23 25 29 30 31 31 29 31 30 28 28 30 31 30 31 31 30 32 32 33 33 34 33
17 17 17 18 18 19 19 18 20 22 22 22 21 23 24 26 25 22 25 26 26 28 29 24 23 24 25 26 27 28 29 29 30 29 31 31 32 31 33 33 34 35 35 34

GFSNGP_con_lsi_081.txt.gz
Lid_Strength_Index
13 12 12 13 13 12 14 14 17 14 15 12 11 10 9 7 7 8 9 8 8 7 6 5 5 5 4 4 4 4 4 4 4 4 2 2 2 2 1 1 1 2 3 3
15 12 12 14 13 12 12 13 13 13 14 9 9 8 8 8 8 10 10 10 10 9 8 8 7 7 7 6 6 3 3 4 3 3 3 3 3 3 3 3 2 2 1 1
18 13 13 16 14 13 12 11 12 15 12 9 10 9 9 8 9 11 11 11 11 11 10 10 10 9 10 9 8 7 7 7 6 4 3 4 4 4 3 3 3 3 3 3
17 15 21 12 10 10 12 11 10 10 9 9 9 10 9 9 11 12 12 12 12 12 12 11 11 10 10 10 9 9 9 10 10 8 8 7 5 3 3 3 3 3 3 3
18 18 15 12 11 12 13 13 10 11 10 9 10 11 13 11 11 13 13 13 13 13 12 12 11 11 11 11 11 11 12 12 12 11 11 10 9 9 8 7 5 3 2 3
16 19 20 13 10 8 10 16 10 9 9 9 9 14 15 13 12 13 14 14 14 14 14 13 12 12 12 13 14 14 14 14 13 13 13 13 12 12 11 9 10 11 14 15
16 17 14 9 9 8 17 15 9 9 9 11 13 13 14 13 14 14 14 14 14 15 15 15 13 13 13 13 15 15 15 15 15 15 14 14 14 13 12 12 13 15 16 17
15 17 18 8 9 13 10 9 9 10 10 12 13 14 15 15 16 16 15 15 15 16 16 15 15 14 14 14 14 15 15 16 16 16 15 15 15 14 14 14 14 15 16 16
13 14 9 8 8 7 8 10 10 10 10 12 14 14 15 16 17 17 16 16 16 16 16 16 15 15 16 14 14 15 15 16 16 16 15 15 15 15 15 14 15 15 16 16
12 10 9 10 10 10 11 12 11 11 12 13 15 15 16 17 17 17 17 17 16 17 17 17 16 16 16 15 14 15 16 16 16 16 16 16 15 15 15 15 15 15 15 15
11 10 10 11 12 11 12 12 13 14 14 14 15 17 17 18 18 18 18 18 17 17 17 18 17 17 16 16 15 16 16 16 17 17 17 17 17 15 15 14 13 14 14 14
13 11 12 12 12 13 14 15 14 15 16 16 16 17 17 18 18 19 19 18 19 18 18 18 17 17 17 17 16 16 17 17 17 17 17 16 17 17 14 14 14 13 13 14
12 11 11 12 12 13 15 15 15 16 16 17 17 17 18 19 19 19 20 20 20 20 19 19 18 18 17 16 16 17 17 17 17 17 17 17 17 18 19 17 15 15 15 15
11 10 13 12 14 13 14 16 16 17 17 17 18 18 18 19 19 19 20 19 19 19 19 18 18 18 16 15 16 17 18 18 18 19 19 20 20 20 20 21 22 21 18 17
12 12 13 13 13 14 14 15 17 18 18 19 18 19 19 20 21 21 20 19 19 19 19 19 19 18 17 16 17 17 18 19 20 20 21 21 21 21 21 22 22 22 22 21
13 13 14 15 16 15 15 16 17 18 18 19 19 20 20 20 21 21 21 21 22 22 21 21 20 19 18 18 19 20 20 19 21 20 21 21 21 21 22 22 22 22 22 22
15 16 15 17 17 17 17 17 17 18 18 19 19 19 20 21 21 22 22 22 23 23 23 22 22 21 20 21 21 20 21 20 20 19 20 20 20 21 22 22 23 23 24 23
16 16 16 16 17 18 18 18 18 19 20 21 22 23 24 24 24 24 25 24 25 25 24 24 22 22 21 21 20 20 20 20 20 20 20 21 21 22 23 24 24 24 25 25
16 17 17 17 17 18 18 20 21 21 23 24 24 26 26 27 29 30 30 28 28 27 24 24 19 22 22 19 20 21 21 22 22 22 22 24 23 23 24 25 26 26 26 26
18 18 19 20 20 20 22 23 23 23 24 24 26 27 28 30 31 31 30 29 27 25 23 22 21 21 21 21 22 22 23 25 23 25 26 26 27 28 26 26 26 27 28 27
23 22 23 23 25 26 27 28 25 26 28 28 27 30 31 30 29 31 28 26 26 24 23 22 22 22 21 22 22 25 25 25 26 27 28 30 29 29 30 30 29 29 30 30
25 24 26 25 25 25 28 26 25 27 27 29 33 33 30 29 29 28 30 26 23 25 23 23 22 26 24 24 24 26 25 25 26 27 29 30 31 32 34 34 34 34 35 35
26 26 26 26 25 26 26 27 29 27 29 30 30 29 26 24 24 27 27 22 22 24 22 26 27 27 28 28 28 29 29 29 30 32 33 34 35 35 34 35 36 35 35 34
25 24 25 25 25 22 23 24 22 23 26 23 26 27 22 27 28 22 23 26 29 30 29 29 29 29 30 33 33 34 35 35 35 35 33 34 36 36 36 37 34 35 34 33
22 22 22 22 20 21 20 19 19 19 19 19 19 19 19 21 26 25 27 26 25 26 28 31 29 30 33 34 34 33 34 34 35 34 34 34 34 35 36 36 36 35 35 36
18 19 18 17 18 18 18 16 18 18 18 21 22 28 28 26 24 24 25 25 24 24 26 30 31 32 32 31 32 32 31 29 32 32 32 32 33 33 34 34 35 34 35 36
18 19 18 19 19 20 20 19 21 21 21 22 22 25 25 28 28 24 26 26 27 29 28 29 29 25 28 29 29 29 28 28 29 29 33 33 33 32 33 33 34 36 38 38

GFSNGP_con_lsi_084.txt.gz
Lid_Strength_Index
13 12 12 13 13 13 14 13 16 14 14 12 10 10 9 8 9 9 9 9 8 7 6 6 5 4 4 4 4 4 4 4 4 4 3 3 3 2 2 2 3 3 3 3
15 12 12 14 12 13 13 13 13 13 13 9 8 8 8 9 10 11 11 10 10 10 9 9 8 8 7 7 5 3 4 4 3 4 4 4 4 4 3 3 3 3 3 3
18 14 14 16 13 13 12 11 12 15 11 9 10 9 9 10 12 13 13 12 12 12 11 11 11 10 10 9 8 7 8 8 8 6 4 4 4 4 3 3 3 3 3 3
16 16 22 14 10 11 12 11 10 10 10 9 9 10 11 11 12 13 14 14 14 13 13 13 12 12 12 12 12 11 12 11 10 10 9 8 8 8 6 4 3 3 3 3
18 18 15 13 12 12 13 13 10 11 9 9 11 11 14 12 13 14 14 15 15 14 13 13 13 13 13 14 13 13 14 13 13 12 12 11 12 11 10 8 9 12 12 12
15 18 22 15 10 8 9 16 11 10 9 11 9 14 16 14 13 14 15 15 15 15 15 14 13 13 15 16 16 16 15 15 14 13 14 14 13 12 11 12 14 14 16 15
16 16 15 10 9 8 16 15 13 12 14 14 15 14 14 14 14 15 15 15 16 16 16 16 14 14 15 16 17 16 16 15 15 14 14 14 14 14 14 14 15 16 17 17
14 17 18 8 9 13 10 11 13 13 14 15 15 15 15 16 16 16 17 16 16 17 17 17 16 15 15 16 16 16 16 16 16 16 15 15 15 15 15 15 16 16 16 17
13 14 9 9 9 10 11 12 11 13 13 14 15 16 16 17 18 17 17 17 17 17 18 17 17 17 17 16 15 16 16 17 17 16 16 16 16 16 16 15 16 16 16 17
12 11 11 10 10 12 12 13 13 12 13 14 16 16 17 17 18 18 18 18 18 18 19 19 18 18 17 16 15 16 17 17 17 17 17 17 16 16 16 16 16 16 17 17
12 10 10 12 12 13 13 14 14 14 15 15 16 17 18 18 19 19 19 19 19 19 19 19 18 18 18 17 16 16 17 17 17 18 18 18 18 17 17 16 16 17 16 16
15 11 12 14 14 14 15 16 15 16 16 16 17 18 18 19 19 20 20 19 20 20 20 19 19 19 18 18 17 17 18 18 18 18 19 19 20 19 16 15 14 14 14 14
12 11 12 13 14 14 16 16 16 17 17 18 18 18 19 20 20 19 20 20 20 20 20 20 19 19 18 18 19 18 18 18 18 19 19 19 20 20 21 19 16 15 15 15
12 10 13 13 15 15 15 16 16 17 18 19 19 19 19 20 20 20 20 20 20 20 20 20 20 20 18 18 19 20 21 21 21 21 21 22 22 22 22 23 23 22 19 18
13 13 13 14 14 15 15 16 18 18 19 20 19 20 20 21 22 21 20 19 19 20 20 20 20 20 18 17 18 19 19 20 21 22 22 22 22 22 23 24 24 24 24 23
14 14 15 16 16 16 16 16 18 18 19 19 20 21 21 21 22 22 22 22 23 24 22 22 21 21 19 20 20 21 21 20 21 21 22 23 23 23 24 24 25 25 25 25
15 16 16 17 17 17 17 17 18 19 19 20 20 20 21 21 22 23 24 23 24 24 23 23 23 22 21 21 22 21 22 22 22 22 22 22 23 23 24 24 25 25 26 26
16 16 16 17 17 18 18 19 19 20 21 22 23 25 26 26 27 27 27 26 26 26 25 26 25 24 23 23 22 22 22 22 21 22 22 23 23 23 25 25 25 26 27 27
17 17 17 18 18 19 20 21 22 22 24 25 26 28 29 30 31 32 31 29 29 27 26 26 20 23 23 21 22 22 23 24 23 23 23 25 26 25 27 28 28 29 28 28
19 19 20 21 21 21 23 24 24 25 26 26 28 28 28 31 33 32 31 29 28 26 24 23 22 22 22 23 23 23 25 26 24 26 27 28 30 31 30 28 28 31 34 33
24 23 23 24 26 26 27 29 26 28 30 30 28 32 32 32 32 33 28 27 25 24 23 23 23 23 23 24 24 27 27 28 29 30 31 33 33 33 35 36 35 36 35 34
26 25 28 26 25 27 29 29 27 29 29 31 35 35 32 30 31 29 31 27 23 26 24 24 24 29 26 26 25 28 26 27 29 30 32 34 36 37 38 38 37 37 38 37
28 26 26 27 26 27 28 28 30 29 31 32 32 30 27 25 25 27 28 23 23 25 23 28 29 30 31 31 31 33 32 34 34 35 36 38 38 38 37 36 37 37 36 34
26 25 26 27 26 23 24 25 23 24 28 25 28 29 23 27 29 23 24 27 30 31 30 30 31 30 32 35 35 36 36 37 36 37 34 36 39 39 37 38 35 37 37 36
23 23 23 23 20 20 20 20 20 20 20 20 20 20 20 21 27 26 28 27 26 27 29 32 30 31 35 36 35 35 35 35 35 36 34 35 35 36 37 37 36 36 37 37
18 19 19 18 18 19 19 18 20 19 19 22 23 28 29 28 25 25 26 27 25 25 27 31 32 33 33 31 32 33 32 31 32 33 34 33 34 33 35 34 35 35 36 37
19 20 19 20 21 21 22 21 23 24 22 23 22 26 27 29 29 26 28 29 29 29 30 32 31 28 29 31 31 31 28 29 30 29 33 34 34 34 34 33 34 35 37 38

GFSNGP_con_lsi_087.txt.gz
Lid_Strength_Index
12 11 11 12 12 12 13 12 15 13 13 11 9 9 8 9 9 10 11 11 10 9 7 5 5 5 4 2 2 2 2 2 2 1 1 1 1 1 0 1 2 1 1 1
14 12 12 13 11 11 12 12 12 12 12 8 7 7 8 10 11 12 13 12 12 11 10 10 9 8 8 5 2 2 2 3 2 1 1 1 1 1 1 1 1 1 1 1
16 13 12 15 12 11 11 10 11 14 10 8 9 9 10 11 12 14 14 14 14 13 12 12 12 11 10 10 9 9 9 9 8 5 5 5 3 2 2 1 1 2 2 2
15 14 19 13 10 9 11 10 9 10 9 8 9 11 12 11 13 15 15 15 15 14 14 14 13 13 13 12 12 12 12 12 11 10 10 9 9 8 7 7 9 8 9 7
16 16 14 12 11 11 12 12 10 11 11 10 10 12 14 13 14 15 16 16 16 15 14 14 15 15 14 14 14 15 15 14 13 12 12 12 12 11 10 11 13 14 14 14
14 17 19 13 9 7 8 15 11 12 13 9 11 14 16 14 14 15 16 16 16 16 16 15 14 14 16 17 16 16 16 15 14 14 13 13 13 13 13 14 15 15 16 16
14 16 14 10 8 7 16 15 12 13 15 16 17 15 15 15 16 16 16 16 16 16 17 17 15 15 16 16 17 16 15 15 15 14 15 14 14 14 14 14 15 16 17 17
13 16 17 9 8 13 11 11 12 14 15 16 17 17 16 16 16 16 17 17 17 18 18 17 17 16 17 18 16 16 16 16 16 16 15 15 15 14 14 15 16 16 16 17
13 13 11 10 11 11 11 12 13 13 14 15 17 17 17 17 17 17 18 17 17 18 19 18 18 18 17 17 17 17 17 17 17 17 16 16 16 15 15 15 15 16 16 16
13 13 13 12 11 11 13 14 14 13 14 15 16 17 18 18 19 19 19 19 18 18 19 20 19 19 18 17 17 17 18 18 17 17 17 16 16 16 16 16 16 16 16 16
13 12 12 13 13 13 14 14 14 15 15 16 17 18 18 19 19 19 19 19 19 19 19 19 18 19 18 18 17 18 18 18 18 18 17 17 17 17 17 16 16 17 17 17
16 12 14 15 14 14 16 16 15 16 17 17 17 18 18 19 19 19 20 19 19 20 20 20 19 19 19 18 17 17 18 18 18 18 18 18 18 19 17 17 17 16 16 16
12 13 13 14 14 14 16 17 17 17 17 18 18 18 19 19 19 19 20 20 20 20 20 19 20 20 19 18 18 19 19 18 18 18 18 19 19 19 20 20 18 17 16 15
11 12 14 14 16 15 16 16 16 17 18 18 19 19 19 20 20 20 21 20 20 20 20 19 20 20 18 18 19 19 19 20 19 19 19 19 19 19 19 19 19 19 19 18
14 13 14 14 14 15 15 16 18 18 18 19 19 20 20 21 22 22 21 20 20 20 20 20 20 19 17 17 17 18 17 18 18 18 19 19 18 19 19 20 20 20 19 20
14 15 15 16 16 16 16 17 18 18 19 19 20 20 21 21 22 22 22 22 22 23 22 22 21 20 19 18 18 18 18 19 19 18 18 19 19 20 20 21 21 21 22 22
14 16 16 17 17 17 17 17 18 19 19 20 20 20 20 21 22 22 23 22 23 23 22 22 22 22 21 20 18 18 18 18 20 18 19 19 19 20 20 21 22 22 23 24
15 16 16 16 17 18 18 18 19 20 21 21 23 24 25 25 25 25 25 24 23 23 23 23 21 21 21 20 19 18 18 18 18 19 19 20 20 20 21 21 22 22 22 23
16 17 17 17 17 18 19 20 21 22 23 23 24 26 27 27 26 26 25 25 24 23 23 22 20 20 20 19 19 18 18 19 19 19 20 21 20 21 21 21 22 22 22 23
18 18 19 20 20 20 22 23 22 23 24 24 25 25 25 27 27 26 24 24 23 22 21 21 20 20 20 21 21 19 19 19 20 21 21 21 21 21 21 23 22 22 22 23
21 21 22 22 24 24 24 24 23 24 26 25 24 26 26 26 26 25 23 22 22 21 21 21 21 20 20 20 20 20 20 20 21 21 21 22 22 22 22 22 22 22 22 22
22 23 23 23 23 24 24 23 24 25 25 26 28 28 25 23 24 23 25 22 20 23 21 20 21 25 22 21 20 20 20 21 21 21 21 21 21 22 22 22 22 22 22 22
22 22 22 23 22 22 23 23 25 24 25 25 25 23 21 21 20 21 22 21 19 21 20 21 25 26 26 21 21 21 21 22 22 22 22 21 21 21 21 21 22 22 21 21
21 21 22 23 22 20 20 20 20 21 23 22 23 24 20 20 20 19 19 24 26 23 21 21 23 25 25 21 21 21 21 21 21 21 21 26 21 22 20 21 20 20 21 22
20 21 21 20 19 18 18 18 19 18 18 18 18 18 18 18 18 18 18 18 22 21 18 25 26 26 20 20 20 20 20 19 19 19 19 19 19 20 19 20 21 20 20 20
18 18 17 17 17 16 16 16 17 17 17 17 17 18 18 19 18 18 18 21 18 20 17 17 19 19 19 18 18 19 19 19 19 19 20 19 19 19 20 20 20 19 19 19
17 18 17 17 17 17 17 17 16 17 17 17 17 16 17 17 17 18 20 17 17 17 17 17 18 19 17 17 17 18 18 18 20 18 19 19 19 19 19 19 19 19 20 21

GFSNGP_con_lsi_090.txt.gz
Lid_Strength_Index
10 10 10 10 11 10 11 11 13 11 11 9 7 7 7 6 7 8 11 11 12 12 10 9 4 4 4 2 2 2 2 2 2 1 1 1 1 1 1 1 1 0 1 1
12 10 10 12 11 10 10 10 10 10 11 7 6 6 8 9 9 11 12 13 13 13 12 11 11 8 7 4 2 2 2 2 2 1 1 1 1 1 1 1 1 1 1 1
15 12 12 14 11 10 10 9 9 12 9 7 8 9 9 10 11 13 13 14 15 14 14 13 13 11 10 9 8 8 7 7 7 6 5 5 2 1 1 1 1 1 1 1
13 13 19 11 7 8 9 9 9 9 8 8 8 10 12 12 12 14 14 16 15 16 15 15 14 14 13 12 12 11 11 12 11 10 9 8 7 7 8 9 9 9 10 11
14 14 13 11 10 10 11 12 11 11 11 10 10 12 13 13 13 15 15 15 16 16 16 15 15 15 15 15 15 15 15 14 13 12 12 12 12 12 12 13 14 14 14 14
12 18 18 12 8 6 7 15 11 11 13 14 10 14 17 14 14 15 16 16 17 17 17 16 15 15 16 16 16 16 16 15 14 14 14 14 14 15 15 15 16 16 17 16
12 14 12 9 8 6 15 14 11 12 13 16 18 16 15 15 16 16 16 17 17 17 18 18 16 16 17 16 17 16 16 15 15 14 14 14 14 14 15 15 16 16 17 16
13 15 17 10 8 12 11 11 11 13 14 15 16 16 16 16 17 17 17 17 17 19 18 18 17 17 18 18 17 17 16 16 15 15 14 14 14 14 14 15 16 16 16 16
13 14 11 11 11 10 11 12 13 13 14 15 17 17 17 17 17 17 17 17 17 17 19 19 18 18 18 18 16 16 17 17 16 15 15 15 14 14 15 15 15 15 15 15
11 12 12 11 11 11 12 14 13 13 14 15 17 17 17 17 18 18 17 18 17 17 18 19 18 18 18 16 16 17 18 17 17 17 17 16 16 16 16 16 15 16 16 16
12 12 11 12 12 12 13 13 15 15 15 16 16 17 17 17 17 18 18 18 18 18 19 19 18 19 18 17 17 17 17 18 18 17 18 18 18 17 17 18 17 17 17 16
14 12 12 14 13 13 15 16 15 15 16 16 16 17 17 18 18 18 18 18 18 18 18 19 18 19 18 17 16 17 18 18 18 18 18 18 19 20 19 18 18 18 17 17
12 12 13 13 13 14 15 16 16 16 16 17 16 16 17 18 18 17 18 18 19 19 18 18 18 18 18 17 18 18 18 18 18 17 18 18 17 17 19 20 20 19 18 18
11 11 14 13 15 14 15 15 15 16 16 16 16 16 17 18 17 18 19 19 18 18 18 18 19 19 17 17 17 17 18 17 17 17 17 17 17 17 17 18 19 19 20 20
12 12 13 13 14 14 14 15 16 17 17 17 17 17 18 18 19 19 19 18 18 19 19 19 19 19 17 16 16 16 16 16 16 17 17 16 16 16 16 16 17 17 17 18
13 13 13 14 14 14 14 14 16 16 16 17 18 18 18 18 19 19 19 20 20 21 20 20 20 19 18 16 15 15 16 17 16 15 15 16 16 16 16 17 17 18 19 19
14 15 14 15 15 15 15 15 15 16 17 17 18 18 18 19 19 20 20 20 20 20 20 19 20 19 18 17 15 15 15 15 16 15 16 16 16 17 17 18 18 19 21 21
13 13 13 14 15 16 16 16 16 17 18 19 21 21 22 22 22 22 22 21 20 21 20 20 19 18 18 18 16 15 15 15 16 16 16 17 17 17 17 18 18 19 19 20
14 14 14 15 15 16 16 17 19 19 20 21 22 23 23 23 22 22 21 21 20 20 20 19 19 18 18 19 17 15 16 16 16 17 17 18 17 17 17 17 18 18 18 19
15 15 16 16 17 18 19 20 19 21 21 21 21 21 22 23 22 22 20 21 21 20 19 19 18 18 18 18 18 16 16 16 17 17 17 17 17 17 18 19 18 18 18 19
18 18 19 20 20 20 20 20 20 21 21 21 21 22 22 22 22 21 19 18 20 19 19 19 19 18 18 18 17 16 17 17 17 17 17 17 17 18 18 18 18 18 18 19
18 19 19 20 20 20 20 19 20 21 21 22 23 22 21 20 20 20 21 19 18 20 18 18 18 21 19 18 17 17 17 17 17 17 17 17 17 18 18 18 19 18 18 18
18 18 18 19 19 19 19 20 20 20 20 21 20 19 18 17 17 17 17 18 17 19 17 18 21 21 20 17 17 17 18 18 18 18 17 17 17 17 17 18 18 18 17 17
17 17 18 18 18 17 17 17 17 18 18 18 19 19 16 15 15 15 16 18 20 18 17 17 18 20 20 16 17 17 17 17 17 17 17 21 17 17 16 17 17 16 17 17
17 17 17 17 15 14 15 15 15 15 16 15 15 15 15 14 15 14 14 14 18 17 15 19 20 20 15 15 15 16 16 15 16 16 16 16 16 16 16 16 17 16 16 17
15 14 14 15 14 14 14 13 14 13 14 14 14 13 13 13 13 14 13 16 14 15 13 13 14 14 14 14 15 15 15 15 15 15 16 15 15 16 16 16 16 16 16 16
14 15 14 14 14 14 14 15 14 13 14 13 14 12 13 12 12 14 14 12 12 12 13 12 12 13 13 13 13 13 14 14 15 14 14 15 15 15 15 15 15 15 16 16

GFSNGP_con_lsi_093.txt.gz
Lid_Strength_Index
11 10 9 10 11 10 11 11 12 11 10 8 7 7 7 6 6 7 8 11 12 13 12 11 10 8 3 3 3 2 2 2 2 1 1 1 1 1 1 1 1 1 1 1
11 9 9 11 10 10 10 10 10 9 10 7 6 6 7 7 8 8 11 11 13 13 14 13 12 11 10 7 4 2 2 2 2 1 1 1 1 1 1 1 1 1 1 1
14 11 11 13 11 10 10 8 10 13 10 7 7 9 11 11 10 11 11 12 14 14 14 14 14 13 12 10 8 8 8 7 6 4 5 4 2 3 3 2 1 3 5 8
14 12 17 11 7 7 9 10 9 9 8 8 9 12 12 12 13 14 14 14 15 16 15 15 14 15 14 14 12 11 11 10 9 8 8 8 8 9 10 11 10 10 11 11
14 12 11 10 9 9 10 12 10 10 10 10 11 12 14 13 14 14 15 15 15 15 16 16 15 16 15 15 14 14 14 13 12 12 11 11 12 12 12 13 14 14 14 14
12 15 17 12 8 6 7 15 11 11 12 14 11 14 17 15 14 15 15 16 16 16 16 16 16 16 17 17 16 16 15 15 14 14 14 14 15 15 14 14 15 16 16 16
13 13 13 10 7 6 16 15 11 11 13 14 17 16 15 14 15 15 15 16 17 18 18 17 17 16 17 18 17 16 15 15 15 15 15 15 16 16 16 17 17 18 18 18
13 14 17 10 8 12 12 10 10 12 13 15 15 15 15 15 15 15 15 16 17 18 18 18 17 17 17 18 17 17 16 16 16 16 14 14 14 16 16 16 16 17 17 17
12 13 10 10 11 11 10 11 12 12 12 14 15 15 15 16 16 16 16 16 16 17 18 18 17 16 19 17 17 17 18 18 17 16 16 17 16 16 16 15 15 16 16 16
11 11 12 11 11 11 11 13 13 13 14 14 16 16 16 17 17 17 17 17 16 17 18 18 17 18 17 16 16 17 17 18 19 19 19 18 18 18 18 17 17 16 16 16
12 11 11 12 12 12 12 13 14 14 14 14 15 16 16 17 17 16 17 17 16 17 17 18 17 17 17 15 16 17 17 18 18 19 20 20 20 19 19 19 18 18 18 18
14 11 12 14 13 12 13 14 14 14 15 14 15 16 16 16 16 16 17 16 17 17 17 17 17 17 17 16 16 17 17 17 16 17 18 19 21 22 19 19 19 19 18 18
12 11 12 13 12 13 14 15 15 15 15 16 15 15 16 17 17 17 17 17 17 17 17 17 18 17 17 16 16 16 17 16 16 17 17 18 17 19 21 20 20 20 20 19
10 10 13 13 14 13 13 14 14 14 14 15 15 15 15 16 16 17 17 17 17 17 17 18 18 18 16 16 16 16 16 17 17 17 17 17 17 18 18 19 20 20 20 19
11 11 12 12 13 13 13 13 15 15 16 16 15 16 16 17 18 19 18 17 17 17 18 18 19 18 16 15 16 16 16 16 16 16 16 16 16 17 17 17 18 18 18 17
12 11 12 12 13 12 13 13 14 15 15 15 16 16 17 17 17 18 18 18 19 19 18 19 19 18 16 16 14 14 15 15 15 15 15 15 16 16 16 17 18 19 20 19
13 14 13 14 14 14 14 13 14 15 15 16 17 16 16 17 18 18 19 18 19 19 18 19 18 18 17 16 14 14 14 14 15 15 15 15 16 16 16 17 18 19 20 19
11 11 11 12 14 14 14 14 15 16 17 18 20 20 21 21 21 20 19 18 18 19 19 18 18 17 17 17 15 14 14 14 15 15 15 16 16 16 16 16 17 17 18 19
12 12 12 13 13 14 14 16 17 19 19 20 20 21 21 21 20 19 19 19 18 19 19 18 17 17 17 17 15 14 14 14 15 15 15 15 15 16 16 16 17 17 17 18
13 13 13 14 15 16 18 18 18 19 19 19 20 20 20 21 21 19 18 20 20 19 18 18 17 16 17 16 16 15 15 15 15 16 16 16 16 16 17 18 17 17 17 18
15 16 17 18 18 18 18 18 19 20 20 19 20 21 21 20 20 20 17 16 18 18 17 17 18 18 17 17 15 15 15 16 16 16 16 16 16 17 17 17 17 17 17 17
17 18 18 18 18 18 18 18 19 19 19 20 21 20 19 17 18 18 19 18 16 19 16 16 17 20 18 17 15 15 16 16 16 16 16 16 16 16 17 17 17 17 17 17
16 16 17 18 17 17 18 18 18 18 19 19 18 17 16 15 15 15 15 15 15 16 15 16 18 19 19 15 15 15 15 16 16 16 16 16 16 16 16 16 17 16 17 17
15 16 16 16 17 17 16 16 16 16 17 17 18 18 16 14 13 13 13 16 17 17 15 16 17 18 19 15 15 15 15 15 15 15 15 18 15 16 16 16 16 16 16 16
16 16 16 16 15 13 14 15 15 15 15 15 15 14 15 13 14 13 13 13 16 15 13 16 16 16 14 13 14 14 14 14 14 15 15 15 15 15 15 15 15 15 16 15
15 14 13 14 13 13 13 13 14 13 13 13 12 11 11 12 12 13 12 14 13 13 12 11 12 12 12 12 12 13 13 13 13 13 14 14 14 14 14 14 14 14 14 14
13 13 13 14 13 14 14 14 14 13 13 13 13 11 11 12 11 12 12 11 11 11 11 10 10 11 11 12 12 12 12 12 13 13 13 14 14 14 14 14 14 14 14 14

GFSNGP_con_lsi_096.txt.gz
Lid_Strength_Index
13 13 11 13 13 13 14 12 14 12 12 10 9 9 8 8 8 8 9 11 12 13 13 13 13 12 10 10 3 2 2 2 2 2 2 1 2 1 1 2 2 2 2 3
15 12 11 14 13 12 10 10 11 10 11 9 9 10 10 11 11 12 12 12 13 14 14 14 14 13 12 11 9 3 4 3 2 2 2 2 2 2 1 1 1 1 2 2
15 11 11 14 11 10 11 10 11 14 11 10 11 13 14 14 13 14 14 14 14 14 14 15 15 15 14 12 11 9 8 7 6 5 6 6 6 6 7 6 8 9 9 10
14 12 19 11 8 9 11 11 11 11 11 11 12 14 14 14 14 15 15 15 15 15 15 15 15 15 15 14 14 13 12 11 9 9 9 9 10 10 11 11 11 12 13 12
14 16 14 12 10 10 12 13 11 12 12 12 12 12 15 14 14 14 15 15 15 15 15 14 15 16 15 16 15 15 15 14 13 12 12 13 13 13 13 14 14 15 15 14
12 15 19 13 10 7 7 15 11 12 13 13 13 15 17 14 14 15 14 15 15 15 16 16 16 15 16 17 17 17 16 15 14 14 14 15 15 15 15 15 16 16 16 15
14 15 14 12 9 7 15 16 12 13 14 15 16 15 15 14 14 14 15 15 15 16 17 17 16 16 17 18 18 17 16 16 16 15 15 15 15 15 15 15 15 16 17 17
14 16 17 11 10 14 12 11 11 12 13 15 15 15 15 15 16 16 16 16 16 17 17 17 17 16 18 18 17 18 18 17 17 17 16 16 15 15 15 16 16 16 16 17
14 14 11 11 12 11 11 12 12 13 13 14 15 16 16 16 16 16 16 17 16 17 18 17 17 17 17 17 17 18 18 20 19 18 18 18 18 17 17 16 17 17 18 18
11 12 12 12 11 11 12 12 13 13 14 15 16 16 17 17 17 17 17 17 16 17 18 18 17 17 16 16 16 17 18 19 20 20 20 19 19 19 20 18 19 19 19 20
12 11 12 13 12 12 12 12 13 13 14 15 15 16 16 16 16 16 16 16 16 17 17 18 17 17 16 15 15 16 17 18 19 20 21 21 20 20 20 19 19 20 20 20
14 11 13 14 13 12 13 14 13 14 15 14 15 15 16 16 16 16 17 16 17 17 17 17 17 17 16 15 16 16 17 17 17 17 19 20 21 21 19 19 19 19 19 19
12 11 13 13 13 13 14 14 14 14 14 15 15 15 15 16 16 16 17 17 17 17 17 17 18 17 16 16 15 16 17 17 17 17 17 18 19 20 21 20 18 19 18 18
9 11 13 12 14 13 13 13 13 14 14 15 15 15 16 17 17 18 18 17 18 18 18 18 18 18 17 15 16 16 16 16 17 17 17 17 17 18 18 20 21 21 19 19
11 11 12 12 12 12 12 13 15 16 16 16 16 16 17 18 19 19 19 17 17 18 19 18 19 19 16 15 15 16 16 15 15 16 16 16 17 17 18 19 21 21 20 19
11 11 11 12 12 12 13 13 15 15 15 15 15 16 16 17 18 18 18 18 19 20 19 19 19 18 17 16 15 14 15 15 15 15 15 16 16 17 17 19 20 21 21 21
12 13 13 14 14 14 14 14 14 15 16 17 18 18 17 17 18 19 18 18 19 19 19 19 19 18 18 18 16 14 14 15 15 15 16 16 16 17 17 18 20 21 21 20
11 11 12 12 14 14 14 15 15 17 19 19 20 20 21 21 21 20 19 18 19 20 19 19 19 18 18 18 17 14 15 15 15 16 16 17 16 16 17 18 18 19 19 20
11 12 12 13 13 14 15 17 18 19 20 20 21 22 22 22 21 20 20 21 21 20 20 19 17 17 17 17 16 15 15 15 16 16 16 16 17 18 18 17 18 19 19 19
13 13 14 15 15 17 19 19 19 19 19 20 21 21 21 23 22 21 18 20 20 19 17 18 18 18 17 17 17 15 16 16 16 17 17 17 17 17 18 20 19 18 18 19
16 16 17 18 19 19 19 19 20 21 21 21 21 22 22 20 21 21 18 17 18 19 18 18 18 19 17 19 16 16 16 16 16 16 17 17 18 18 18 19 19 19 19 19
17 18 19 18 19 19 19 18 19 20 21 22 23 23 21 18 20 20 21 18 17 20 17 17 18 20 19 20 15 15 16 16 16 16 16 17 17 17 17 18 18 19 19 20
17 17 17 19 18 18 18 18 19 19 20 21 20 19 18 16 16 17 18 17 16 18 16 17 20 21 20 16 15 15 16 16 16 17 16 17 17 18 18 18 20 18 19 19
16 16 16 16 17 17 18 18 17 17 19 18 18 20 17 16 15 14 16 18 18 18 16 16 18 19 21 15 14 15 15 15 15 15 15 18 15 16 16 18 19 18 18 20
16 16 16 17 16 15 15 15 15 15 15 15 14 15 15 14 15 14 14 14 16 17 14 16 17 17 15 13 13 14 14 14 14 15 16 15 15 16 15 15 17 16 18 20
15 14 14 14 14 14 14 14 15 14 14 15 14 13 13 13 13 13 13 14 14 14 12 12 12 13 13 13 13 13 13 13 13 13 15 15 14 15 15 16 16 16 17 16
13 13 13 14 14 14 15 16 16 15 15 14 15 13 13 12 12 13 14 12 12 11 11 11 11 11 12 12 13 12 12 12 13 13 14 15 16 15 16 16 16 16 16 18

GFSNGP_con_lsi_099.txt.gz
Lid_Strength_Index
14 13 12 13 13 13 15 14 17 15 15 13 14 14 14 12 12 13 13 13 13 14 15 15 14 14 12 12 12 10 3 3 3 2 2 2 1 1 2 2 2 2 2 3
15 13 13 15 13 13 13 12 13 13 15 12 13 14 15 15 14 14 14 14 14 14 14 15 15 14 14 13 13 11 9 5 3 2 2 2 2 2 2 2 2 3 2 3
17 13 14 17 13 13 14 14 13 17 15 12 15 16 16 16 16 15 15 15 15 15 15 15 15 15 15 14 13 13 13 11 9 7 7 7 7 8 8 9 9 10 11 11
16 14 20 13 10 11 14 14 13 14 14 14 16 16 15 15 16 16 15 15 16 16 15 15 14 15 14 14 15 14 15 14 12 11 12 11 12 12 13 13 13 13 13 13
16 18 15 13 12 13 12 15 13 15 14 13 13 13 16 14 14 15 15 15 15 15 15 15 15 14 15 16 15 16 16 15 14 14 14 14 15 14 14 14 15 15 15 15
14 18 20 15 13 10 10 18 13 14 15 16 14 19 18 15 15 15 16 15 16 16 16 15 14 15 16 17 17 17 16 17 16 14 15 15 15 16 15 15 16 16 16 16
16 17 15 14 13 10 20 17 13 14 15 16 18 16 15 15 16 15 15 16 16 16 17 16 15 15 16 17 19 18 18 17 17 16 15 15 15 15 15 16 16 16 17 16
15 18 19 13 12 16 13 12 13 13 14 17 17 16 16 16 17 16 17 17 17 17 17 17 16 16 17 17 17 18 18 19 19 18 17 16 16 17 15 16 17 17 17 18
15 16 13 12 13 12 12 13 13 13 14 16 18 18 17 16 16 16 16 16 16 17 18 17 16 16 17 17 17 18 19 20 20 19 19 19 18 18 18 17 18 19 19 19
13 14 13 12 12 12 13 13 13 13 14 15 17 17 17 17 17 17 17 18 17 18 19 19 18 17 17 16 16 16 18 19 20 20 21 20 20 19 19 19 19 19 20 20
14 13 13 13 13 12 12 13 13 13 14 15 16 17 17 17 17 17 17 17 17 18 18 19 17 17 17 16 16 16 16 16 18 19 21 21 20 20 19 19 19 20 19 19
17 13 14 14 13 13 14 14 13 14 15 15 15 16 16 17 17 17 18 17 18 18 18 18 18 17 16 16 16 17 17 17 17 17 18 19 20 20 17 18 18 17 17 18
13 13 14 14 13 13 14 13 13 14 15 16 16 16 17 17 17 17 18 18 19 19 19 18 18 18 17 15 15 15 17 17 17 17 17 17 19 19 21 19 17 17 17 16
11 12 14 13 15 13 13 14 14 14 15 15 16 17 18 19 19 19 19 19 19 19 19 19 19 19 18 17 16 16 15 16 16 17 17 17 18 19 20 21 22 21 19 19
11 12 13 12 12 13 13 14 15 16 16 17 16 17 17 19 20 20 19 18 18 19 20 19 19 20 18 17 15 16 16 16 16 16 17 17 18 20 21 22 22 22 22 20
11 12 12 13 13 13 14 14 15 16 16 17 17 17 18 18 19 19 19 19 20 21 20 21 20 19 18 18 18 16 16 16 17 17 17 18 18 19 21 22 22 23 22 22
13 14 14 15 15 15 16 16 17 18 19 19 20 19 19 19 19 20 20 20 21 22 21 22 23 22 21 20 20 17 18 18 18 18 18 18 18 18 19 20 21 21 21 20
12 13 14 14 15 16 17 17 18 19 20 20 22 24 25 25 25 25 25 24 26 25 25 24 22 22 20 19 18 17 17 18 18 18 17 19 19 18 19 20 20 22 21 21
13 14 14 14 15 16 18 19 20 21 23 25 25 28 29 30 29 29 29 28 29 28 24 25 18 21 20 19 19 18 18 19 19 19 18 20 22 22 22 20 22 23 23 23
15 16 16 17 18 19 21 24 23 24 26 26 28 29 29 30 30 29 25 27 27 25 23 22 21 21 19 19 21 18 19 19 18 20 21 22 23 24 23 23 23 21 23 25
19 20 21 22 23 24 25 27 26 28 28 29 28 29 29 28 28 29 24 22 24 23 19 21 21 21 20 21 19 22 22 22 20 18 22 22 20 20 25 27 24 28 28 27
22 22 23 24 23 25 26 26 26 27 28 29 30 31 30 25 27 26 27 23 21 24 20 21 21 25 22 23 19 23 21 21 22 22 23 24 25 26 23 24 27 27 23 22
21 21 21 23 23 23 24 25 26 26 27 28 28 26 24 21 20 22 22 19 19 22 19 22 24 24 25 25 22 25 25 24 24 24 21 25 27 25 27 26 27 26 25 28
20 21 23 23 22 21 22 23 21 20 24 22 23 25 21 23 23 18 19 22 23 24 25 23 24 22 25 26 19 24 24 25 19 24 24 22 20 22 24 25 22 24 26 22
20 20 21 21 19 19 17 17 18 17 18 17 16 17 18 17 22 22 23 22 20 21 22 22 21 20 24 24 24 19 22 23 23 25 25 25 24 25 24 22 25 25 26 27
17 17 17 16 15 15 16 16 19 18 18 21 21 19 19 18 20 20 21 21 19 19 21 17 20 18 18 18 20 22 22 20 17 19 20 23 23 21 20 20 22 23 24 24
15 15 15 16 17 17 19 19 22 22 22 24 24 24 21 21 21 20 19 20 18 15 17 18 17 16 15 19 19 21 21 20 19 17 19 22 23 23 21 22 22 20 21 24

GFSNGP_con_lsi_102.txt.gz
Lid_Strength_Index
14 13 13 13 14 13 15 14 16 16 17 16 16 16 16 15 15 16 16 16 15 16 15 15 15 15 14 14 13 12 11 10 6 2 2 2 2 2 2 2 2 2 2 3
15 12 13 14 13 13 14 13 14 15 16 15 15 16 16 17 16 16 16 16 16 16 15 15 15 15 14 14 14 13 13 13 11 8 2 2 2 2 2 4 3 4 4 5
17 14 14 16 14 15 15 15 15 18 15 15 17 17 18 18 17 18 17 16 16 16 16 15 15 15 15 15 14 14 14 14 14 12 10 9 8 9 10 10 10 11 11 10
17 15 20 15 12 13 16 16 15 15 14 16 17 17 16 16 18 18 17 17 17 16 16 15 15 15 15 15 15 15 15 15 14 14 14 13 13 13 13 13 14 14 14 14
17 17 15 14 15 15 15 17 15 16 15 15 15 15 18 16 16 17 17 16 16 16 16 15 15 15 15 17 17 17 16 16 16 15 15 15 16 15 15 15 15 16 15 15
15 18 20 16 14 12 12 20 14 15 16 17 14 20 20 16 16 16 17 16 17 16 16 16 15 14 16 17 17 18 18 17 16 16 16 16 16 16 16 16 16 15 16 15
15 17 16 15 13 11 19 19 14 15 16 17 19 18 17 16 16 16 16 17 17 17 17 16 15 15 17 17 18 18 18 18 18 17 17 17 16 15 16 16 16 17 16 16
16 18 19 14 14 16 14 13 14 15 16 17 18 17 18 17 17 17 17 17 18 18 18 17 16 16 17 17 17 17 18 19 19 19 18 18 17 17 17 17 17 17 17 17
16 17 13 13 14 13 12 14 14 15 15 17 18 18 18 17 17 17 17 18 17 18 18 17 17 16 17 16 16 17 19 19 19 19 19 19 19 19 19 18 18 18 18 18
16 14 14 13 13 13 13 13 14 14 15 16 18 18 19 18 18 18 18 18 18 18 19 19 18 17 17 17 16 16 18 19 20 20 20 19 19 19 19 20 19 19 18 18
15 14 14 14 13 13 14 14 14 14 15 16 17 17 18 18 18 19 19 19 19 19 19 20 19 19 17 17 17 17 17 17 18 19 19 20 19 19 19 18 18 19 19 18
17 14 15 15 13 13 14 14 14 15 15 15 15 17 17 18 18 19 19 19 19 19 19 19 19 19 18 16 16 17 17 17 17 17 18 19 20 20 17 17 17 17 16 17
15 13 14 14 13 13 14 14 14 15 15 16 17 17 18 19 18 18 19 20 20 20 19 19 19 19 18 17 16 15 16 16 16 16 17 18 19 20 21 19 18 17 16 16
13 13 15 15 15 13 14 14 14 15 15 17 17 18 18 19 19 19 19 18 19 19 19 19 19 19 18 17 16 16 16 17 17 17 18 19 20 20 21 22 22 22 19 18
12 12 13 13 13 14 14 15 16 17 17 18 17 18 18 20 20 21 20 19 19 20 20 20 20 20 18 17 16 17 16 17 18 18 18 18 19 20 21 22 22 22 21 20
12 12 13 13 14 15 15 15 17 17 17 18 18 18 19 19 20 20 20 20 21 23 22 23 21 21 19 19 18 18 20 18 19 19 19 20 20 21 21 21 21 21 21 21
13 14 14 15 15 15 16 16 17 18 18 19 19 19 19 19 20 21 21 21 23 24 23 23 25 24 22 22 21 20 21 20 20 19 19 19 20 21 22 22 22 22 21 21
12 13 14 15 16 17 17 17 18 19 21 21 23 25 26 26 26 27 27 26 26 26 26 27 26 24 22 21 20 18 19 19 18 18 20 22 20 19 21 22 22 22 24 24
13 14 14 15 16 17 18 19 20 21 24 26 27 29 30 32 31 30 32 31 32 30 27 27 20 23 22 20 20 20 20 21 20 20 20 22 23 23 23 23 23 27 27 25
16 15 16 17 18 20 22 25 24 25 28 28 32 32 30 31 33 32 30 28 28 26 25 24 22 22 21 20 22 20 21 23 20 23 24 21 23 26 26 23 22 23 24 26
20 20 21 22 24 26 26 27 26 28 30 31 29 30 30 30 31 32 28 24 25 24 22 22 22 23 21 22 21 27 26 27 26 26 27 28 25 22 25 29 29 28 29 27
21 22 24 24 24 27 29 28 27 30 30 30 32 33 32 27 29 27 28 24 22 25 22 22 22 26 24 25 22 27 23 24 25 25 27 28 29 29 28 29 29 28 26 26
23 23 23 24 23 24 27 27 29 28 29 30 29 28 26 23 22 24 24 20 21 24 21 23 26 26 27 29 26 28 28 28 26 26 27 29 27 27 28 28 29 29 29 29
23 22 24 25 24 22 22 23 23 21 26 24 25 26 22 24 24 20 21 23 24 25 27 27 26 23 25 29 28 27 28 28 26 27 27 27 28 27 26 24 22 26 28 27
21 22 22 22 20 20 19 18 19 19 18 18 18 17 19 18 21 21 24 23 23 23 24 25 24 23 27 28 29 27 26 27 27 27 25 27 27 28 28 26 23 23 23 27
18 18 18 17 17 17 16 16 18 18 18 20 21 24 23 20 19 20 23 24 22 22 22 20 20 24 22 20 21 21 23 23 24 23 21 21 26 26 27 25 26 25 22 24
16 17 17 17 17 17 18 19 21 23 25 26 25 26 24 26 25 23 22 22 20 20 19 18 19 17 16 16 16 16 17 19 22 21 23 25 27 26 27 25 26 26 25 24

GFSNGP_con_lsi_105.txt.gz
Lid_Strength_Index
13 13 13 13 14 13 15 14 16 17 18 17 18 18 17 17 17 18 18 18 17 17 16 15 16 16 15 14 14 13 12 12 12 9 3 2 3 3 3 3 2 2 2 2
15 13 13 15 15 15 14 14 15 16 19 16 16 17 18 18 18 18 17 17 17 16 16 16 16 16 16 15 15 14 15 14 13 12 11 10 6 3 4 6 6 6 7 7
17 13 14 20 16 16 16 16 15 18 17 17 18 18 18 19 18 18 18 18 17 17 16 16 15 16 17 16 16 15 16 15 15 14 14 14 12 11 11 11 11 12 11 11
17 15 21 15 12 14 16 16 16 15 17 17 18 18 18 17 18 19 18 18 17 16 16 15 15 16 16 16 17 17 17 17 16 15 15 15 15 15 14 14 14 14 14 13
17 17 16 14 15 16 16 18 16 17 16 16 16 16 18 17 17 18 18 17 17 16 16 15 15 16 16 17 17 17 17 18 17 16 16 16 16 16 16 16 15 15 15 15
15 18 20 17 16 13 13 21 15 16 17 17 15 20 21 17 17 17 17 17 17 17 17 16 15 15 17 17 18 18 18 17 17 17 17 16 17 17 16 16 16 16 16 16
16 17 17 16 14 11 20 19 15 16 17 18 20 19 17 16 17 17 17 17 17 17 17 17 16 15 16 17 18 18 18 17 17 17 17 17 17 16 17 16 17 17 17 16
16 18 19 15 14 16 15 14 15 16 17 19 19 18 17 17 18 18 19 19 19 19 19 18 17 17 17 17 16 17 18 19 18 18 18 17 18 17 17 17 17 17 17 17
17 19 16 14 14 13 13 14 15 16 16 17 19 19 18 18 18 18 19 19 19 20 19 18 18 17 18 18 16 17 18 19 19 19 18 17 18 18 18 18 18 18 18 18
17 16 15 14 14 14 14 15 14 15 15 16 18 18 19 19 20 20 20 21 20 20 20 20 19 18 18 17 17 17 18 19 19 20 20 18 18 18 18 18 19 18 18 19
16 15 15 14 14 14 14 14 15 15 15 16 17 18 19 22 21 22 22 21 20 20 20 20 19 19 19 17 17 18 17 18 18 19 20 20 19 18 19 18 17 18 18 18
17 15 15 16 14 13 15 15 15 15 16 16 16 19 19 20 20 20 20 20 20 20 20 20 19 19 18 17 16 17 17 17 18 18 19 19 19 19 17 17 16 16 16 17
14 13 14 14 14 13 15 15 15 16 16 18 18 18 19 19 19 19 20 20 21 20 20 19 19 19 19 17 16 16 17 16 17 17 19 19 20 20 21 19 18 17 17 17
13 13 15 14 15 14 14 14 14 16 17 18 19 19 19 20 20 20 20 19 19 20 20 20 20 20 19 18 17 18 18 19 18 18 19 20 21 21 21 21 22 21 19 18
13 12 14 14 14 14 14 16 17 18 18 18 18 19 19 21 22 22 21 19 20 21 21 21 21 21 20 17 17 18 17 19 20 21 20 21 22 22 21 21 22 21 21 20
13 13 13 14 15 16 16 16 17 18 18 18 19 19 19 20 21 21 21 21 22 24 23 25 22 23 20 20 19 20 21 20 21 21 22 23 23 23 22 22 22 22 23 23
14 14 14 15 16 16 16 16 17 18 18 19 19 19 19 20 20 21 22 22 24 26 24 25 27 25 24 23 22 22 23 21 22 21 22 22 23 22 23 24 24 23 24 26
12 13 13 14 16 17 17 17 18 19 21 21 24 25 27 26 27 27 28 28 27 27 28 29 27 25 24 23 21 20 21 21 20 21 21 23 22 21 23 24 23 24 26 26
13 14 15 15 15 16 18 19 21 22 24 26 27 29 31 32 32 32 34 32 32 30 27 28 20 23 22 21 21 21 22 23 22 21 20 23 24 22 25 27 28 29 28 27
15 15 16 17 18 19 22 26 24 25 29 28 31 32 30 32 34 33 32 29 29 27 26 24 23 22 21 21 23 21 23 25 22 23 23 23 28 29 24 22 22 25 29 30
19 19 21 22 25 27 26 28 26 28 31 32 30 31 31 31 32 34 29 25 25 25 23 23 23 24 22 24 22 29 28 29 29 28 30 30 28 23 26 27 25 26 25 25
22 23 25 25 25 28 30 30 28 30 31 32 34 35 33 28 31 29 28 24 23 25 23 23 23 26 25 27 23 29 26 25 25 27 28 29 30 30 30 32 30 28 27 27
22 23 24 25 24 25 28 29 31 29 30 31 31 30 28 24 23 25 25 21 21 24 22 24 26 27 28 30 29 30 29 28 28 27 29 31 29 27 29 29 29 30 30 29
23 23 25 26 25 23 23 25 24 23 27 25 25 27 23 25 24 20 20 23 25 25 27 28 28 26 27 30 30 30 29 29 29 27 21 27 30 30 29 29 26 27 29 27
22 23 23 23 21 21 19 19 19 19 19 19 18 18 19 19 21 21 23 22 23 24 24 26 26 25 25 25 28 26 25 25 25 28 26 27 27 28 29 30 27 21 24 27
19 19 19 18 18 18 18 17 20 20 20 22 22 24 24 23 19 19 19 21 22 22 22 21 22 22 23 19 19 18 19 19 20 22 24 22 24 25 27 26 26 24 23 23
17 18 18 18 18 18 19 19 22 23 23 23 23 24 25 28 27 24 24 26 25 27 26 25 22 20 18 21 20 19 20 19 18 17 18 18 21 23 24 24 24 24 26 26

GFSNGP_con_lsi_111.txt.gz
Lid_Strength_Index
13 13 13 13 14 14 17 14 16 18 19 18 17 18 18 17 17 17 17 18 18 19 18 17 17 17 17 17 16 16 14 14 13 12 12 11 11 10 9 10 10 9 6 7
16 13 12 16 15 15 17 16 17 18 19 16 17 17 18 18 18 17 18 17 18 17 17 17 16 17 17 17 17 16 16 15 15 13 14 15 14 13 12 13 13 13 13 13
16 14 14 17 16 17 17 16 16 17 17 16 18 18 19 18 18 18 18 18 18 17 17 17 16 17 18 17 17 17 16 17 15 15 15 16 15 15 16 15 15 15 15 15
15 15 20 16 13 15 17 17 15 16 16 16 18 17 17 17 18 18 18 18 18 17 17 16 15 15 15 16 17 18 17 17 17 16 17 16 16 16 16 16 16 16 16 16
17 17 16 15 15 15 16 18 16 16 15 15 16 15 18 17 17 18 18 18 18 17 17 16 16 15 15 16 16 17 18 17 17 17 17 17 17 17 16 16 17 17 16 16
15 18 19 16 15 13 14 19 16 16 16 15 14 17 19 17 17 18 18 18 19 18 17 17 16 15 16 16 17 18 17 17 16 16 16 17 17 17 16 16 16 16 17 17
15 17 17 16 15 13 18 18 16 16 16 16 18 17 18 17 18 18 19 19 19 19 18 18 17 16 17 17 17 17 16 16 17 16 16 16 15 16 15 15 16 16 17 17
15 17 19 15 14 16 15 15 16 16 17 18 18 18 18 18 19 19 20 19 19 20 19 19 18 17 17 17 16 16 17 17 17 17 16 16 16 15 15 15 16 16 16 16
17 18 16 14 15 13 13 15 15 16 17 18 19 19 19 19 18 19 19 19 19 20 20 19 19 18 18 17 17 17 17 18 18 17 16 16 16 16 16 16 16 17 17 17
17 16 16 15 14 13 13 15 15 15 16 17 19 19 20 19 19 19 19 19 19 19 20 20 19 19 18 17 17 17 18 18 17 18 17 17 16 16 16 17 17 18 18 18
17 16 16 15 14 14 15 15 15 15 16 17 18 19 19 20 19 19 19 19 19 19 19 19 18 18 17 16 16 16 17 17 17 16 17 17 17 16 16 16 16 17 17 17
16 14 15 15 14 14 15 15 15 16 17 17 17 18 18 19 19 19 19 19 19 18 18 17 17 17 16 15 15 16 16 17 17 17 17 17 17 17 16 16 16 16 15 16
15 13 14 14 14 14 15 14 15 15 16 17 17 17 18 19 19 19 19 19 19 18 18 17 17 17 16 15 15 16 17 16 16 17 17 17 18 18 19 17 17 17 17 16
13 13 15 14 15 13 14 14 15 15 16 17 17 18 19 19 19 19 20 19 19 19 19 18 18 19 18 16 16 17 16 19 17 17 17 18 18 18 18 19 20 19 18 18
12 12 12 13 13 14 14 15 16 17 18 18 18 19 20 20 21 21 20 20 20 20 20 19 19 20 18 17 17 18 17 17 17 17 18 18 18 18 18 19 19 19 19 19
13 13 13 14 15 15 15 16 16 17 18 18 18 19 19 20 20 20 20 20 21 22 22 23 21 21 20 19 18 17 17 19 19 17 17 18 18 18 19 19 19 20 20 20
14 15 14 15 15 15 16 15 16 17 17 18 18 18 19 19 20 20 21 21 22 23 22 22 23 23 22 21 19 18 17 18 19 18 18 18 18 18 19 19 19 20 20 21
12 12 12 13 15 15 16 16 17 17 18 18 20 22 23 22 22 22 23 24 23 23 23 23 22 21 21 20 19 18 18 18 18 19 18 19 19 18 19 19 19 19 19 20
11 12 13 13 14 15 16 17 18 19 21 23 23 23 23 24 23 24 26 24 23 21 21 22 20 20 20 19 19 18 19 19 19 19 19 20 19 19 19 19 19 19 19 20
12 12 13 15 15 17 20 21 22 22 24 24 26 25 24 25 26 25 24 21 20 19 21 21 20 20 20 19 21 19 19 19 20 20 20 20 20 20 19 20 19 18 18 18
14 15 17 19 21 22 22 23 24 24 26 25 23 23 22 23 25 26 22 19 19 21 20 21 19 19 19 21 19 18 19 19 19 19 19 20 20 19 18 17 16 16 16 16
16 18 20 21 22 24 24 23 23 25 25 26 27 26 24 22 24 23 23 19 17 22 19 18 18 21 20 23 18 19 18 19 18 18 18 18 17 17 16 16 16 16 16 16
19 20 21 22 21 23 24 23 24 23 24 24 24 22 21 18 17 18 18 18 17 19 18 17 21 23 23 20 19 19 19 19 19 18 17 16 16 16 16 16 15 15 15 15
20 20 21 22 22 22 21 22 22 21 23 22 22 22 20 18 17 17 16 19 22 21 18 18 20 21 24 19 19 19 19 18 18 17 16 17 16 16 16 16 16 14 15 16
20 21 22 21 20 19 19 19 19 19 19 18 17 17 19 17 17 16 17 17 19 18 17 22 22 22 18 18 19 19 18 17 16 15 15 15 16 16 15 15 16 15 15 15
19 19 19 18 17 17 17 17 18 17 17 17 17 17 17 18 17 17 17 20 18 20 19 19 21 20 20 19 19 19 17 16 15 15 16 15 15 15 15 15 15 15 15 14
18 18 18 18 17 17 16 16 17 16 17 17 16 18 18 18 19 19 22 19 20 20 21 21 21 22 22 21 20 18 17 16 17 17 16 16 16 16 15 15 15 15 15 14

GFSNGP_con_lsi_114.txt.gz
Lid_Strength_Index
11 11 11 12 12 12 13 13 16 15 16 17 16 16 16 15 15 15 16 16 17 17 17 16 16 16 17 17 17 16 15 15 14 12 13 13 13 12 11 11 11 11 12 13
13 10 11 14 13 12 14 15 16 16 18 15 15 15 15 15 16 16 16 17 17 17 16 16 16 16 17 17 17 16 16 16 15 14 14 14 15 14 15 14 14 14 14 14
16 12 13 16 15 15 15 15 15 15 16 15 16 16 16 16 16 17 16 16 16 16 16 15 15 14 15 15 16 17 17 17 16 16 16 16 15 16 16 16 15 15 16 15
14 14 19 15 13 13 15 15 14 15 15 15 15 16 15 15 16 16 17 16 16 15 15 15 14 14 13 14 15 16 17 16 16 16 16 16 16 17 16 17 17 16 16 16
16 15 15 14 14 14 15 17 14 14 14 14 14 13 16 15 15 16 17 17 17 16 15 15 14 14 14 14 15 15 16 17 16 16 16 16 16 16 16 17 17 17 17 17
13 16 18 14 13 12 12 16 14 14 13 13 13 14 16 16 15 16 17 17 17 17 16 17 16 14 15 15 15 16 16 16 16 15 15 16 16 16 16 16 16 17 17 17
14 15 14 14 13 11 16 16 14 12 12 12 14 14 16 15 16 16 16 17 17 17 18 17 16 15 16 17 17 16 15 15 15 14 15 15 15 14 15 15 15 16 16 16
13 15 17 13 12 14 14 13 13 13 13 15 15 16 16 16 16 16 17 17 17 18 18 17 17 16 17 18 16 16 15 15 15 15 14 14 14 14 15 14 14 14 14 15
15 15 14 13 13 11 12 12 12 13 14 14 16 16 15 16 16 16 16 16 16 18 18 17 17 16 17 17 16 16 16 16 15 15 15 15 15 15 15 15 15 15 15 15
14 15 14 13 12 12 11 12 12 13 14 14 16 16 16 16 16 16 16 16 16 16 17 17 16 16 15 15 14 15 15 15 14 14 14 14 14 15 16 16 17 17 17 17
16 15 14 14 13 12 12 12 13 13 14 15 15 16 16 16 16 16 16 16 16 16 16 16 15 15 14 14 13 13 14 14 14 14 14 14 15 16 15 16 15 16 16 16
13 13 13 13 12 12 13 13 13 14 15 15 15 16 15 16 15 16 16 16 16 16 15 15 15 15 14 13 13 14 14 14 14 14 14 14 14 14 15 16 16 16 16 15
12 11 11 12 12 11 12 13 12 13 13 14 14 14 15 16 16 17 16 16 16 16 15 15 15 15 14 14 14 14 15 14 14 14 14 15 15 15 16 15 15 16 17 17
11 12 13 12 13 12 12 12 12 13 13 13 14 15 15 16 17 17 17 17 16 16 16 16 16 16 15 14 15 15 14 15 14 14 14 14 15 15 15 16 16 16 16 17
11 11 11 11 12 12 11 12 13 14 14 15 15 16 17 18 19 19 18 17 17 17 17 17 17 17 16 15 15 15 15 15 14 14 15 15 15 15 15 16 16 16 16 17
12 11 11 12 12 12 12 13 13 15 15 15 16 17 17 17 17 17 17 18 18 19 19 19 18 18 17 16 15 15 15 17 16 15 15 15 15 15 16 16 16 16 17 19
12 13 12 13 13 13 13 12 13 14 15 15 16 16 16 17 17 18 18 18 19 20 19 19 19 19 18 18 16 15 15 15 17 15 16 16 16 16 16 16 17 17 17 18
9 10 10 11 12 13 13 13 14 15 15 15 17 18 19 18 18 19 20 19 20 20 19 19 19 18 18 18 17 16 16 16 16 17 16 17 17 17 17 17 17 17 17 17
10 10 10 11 11 12 13 14 15 16 17 18 19 19 19 19 18 19 20 20 19 18 19 18 19 18 17 18 17 16 16 16 16 17 17 18 17 17 17 17 17 17 17 17
11 11 11 12 12 13 14 16 18 18 19 18 20 20 19 20 20 20 19 17 17 16 17 18 18 17 17 17 18 16 16 16 17 17 17 17 17 17 17 17 17 17 16 15
11 12 13 14 15 16 17 18 19 20 20 19 18 19 18 18 19 20 19 15 16 17 17 18 17 16 15 17 16 15 16 16 16 16 17 17 17 16 16 16 15 14 14 14
12 14 15 17 17 19 19 18 19 20 20 20 20 19 19 17 19 19 18 16 14 18 16 15 15 17 17 19 15 16 16 16 16 16 16 16 16 16 15 14 14 13 13 13
13 14 16 17 18 18 19 19 19 19 20 19 19 18 16 14 14 15 15 15 14 15 15 14 17 19 19 16 15 16 16 16 16 16 16 16 15 14 14 13 13 13 13 13
15 15 16 17 19 19 19 19 18 18 17 17 17 17 15 15 14 13 13 15 17 17 15 15 16 18 20 16 16 16 16 16 16 16 16 15 13 13 13 13 13 13 12 12
15 17 18 18 17 16 16 17 16 16 16 15 15 15 16 14 14 13 13 14 17 16 14 19 19 19 16 16 17 17 17 17 16 16 15 14 14 14 13 13 13 13 13 12
16 15 15 15 14 14 14 15 14 14 14 14 13 13 14 13 13 13 13 16 15 16 15 16 17 18 17 17 18 18 18 17 17 16 16 15 15 15 14 14 14 13 13 12
14 15 15 15 14 14 14 14 13 13 13 13 13 14 14 14 14 14 16 15 15 16 16 17 18 19 20 19 19 19 18 18 17 17 17 17 16 16 16 16 15 15 14 14

GFSNGP_con_lsi_117.txt.gz
Lid_Strength_Index
11 11 10 10 11 11 13 12 15 13 14 15 15 14 14 14 14 14 15 15 16 16 15 14 14 14 15 15 16 16 16 15 14 13 13 14 14 14 14 14 14 13 12 13
13 10 10 13 11 11 12 12 14 14 16 14 13 13 14 15 15 16 15 15 16 15 15 15 14 13 13 15 15 16 16 16 16 15 14 14 14 15 15 15 16 16 15 15
15 11 12 15 13 12 13 13 13 15 15 13 15 15 15 15 15 16 16 16 16 15 15 15 14 13 13 13 14 15 16 16 16 16 16 16 15 15 16 17 16 16 16 16
14 13 19 13 11 11 13 13 12 13 13 13 14 14 14 14 16 16 16 16 16 15 15 14 13 14 13 13 14 15 15 16 15 15 16 16 16 16 16 17 17 17 17 18
15 15 14 14 13 13 14 15 12 13 13 13 13 13 15 14 15 16 16 16 16 16 15 15 14 14 14 14 14 15 15 15 16 15 16 16 16 16 16 16 17 17 17 18
13 16 18 12 11 9 10 15 12 11 12 12 12 13 15 15 15 15 16 16 16 16 16 16 15 15 16 16 16 16 15 15 14 15 15 16 16 16 15 15 16 16 17 16
14 15 13 11 11 10 15 15 11 11 10 11 13 14 14 14 15 15 15 16 16 17 17 16 16 15 16 16 17 15 14 14 14 14 14 15 15 15 15 15 15 15 16 16
13 15 17 11 11 13 12 11 11 10 12 14 14 15 15 15 15 15 15 16 16 17 17 16 15 16 17 17 15 15 14 15 14 15 14 14 15 15 15 15 15 16 16 16
12 14 12 11 11 10 10 11 11 12 12 13 14 14 14 14 14 15 15 15 15 16 16 16 15 15 16 15 14 14 14 14 14 13 14 14 15 17 17 16 16 16 16 16
12 13 13 12 11 10 10 11 10 10 12 12 14 14 15 14 14 15 15 15 14 15 16 16 15 14 14 13 12 13 13 13 12 13 12 14 14 14 16 17 17 17 16 18
14 13 13 12 11 11 12 11 11 11 12 13 13 14 14 15 14 14 15 15 15 15 15 15 14 13 12 12 12 12 12 12 12 12 12 12 14 15 15 16 16 17 17 16
12 12 11 13 12 12 12 12 12 12 13 12 13 14 13 14 13 14 14 14 15 15 15 14 14 13 13 13 12 13 13 12 12 12 12 12 13 13 14 15 15 16 16 16
11 9 10 12 12 10 11 11 11 11 12 13 13 12 13 14 14 15 15 15 15 15 14 14 14 14 13 13 13 13 14 13 13 13 13 13 13 14 15 13 13 15 16 16
9 11 13 12 13 10 10 10 10 11 11 12 12 13 13 14 14 15 16 16 15 15 15 15 15 16 14 13 14 14 14 14 13 13 13 13 13 14 14 15 15 15 15 16
10 9 10 10 10 10 10 10 11 12 12 13 13 14 14 15 17 17 17 16 16 16 16 16 16 17 15 14 14 14 14 15 13 13 14 14 14 14 14 14 15 15 15 16
10 10 10 11 11 11 10 11 11 12 13 14 14 14 15 16 16 16 16 16 16 17 17 18 17 17 16 16 14 14 14 15 15 14 14 15 14 15 15 15 15 16 16 17
10 12 12 11 11 11 11 10 11 12 13 14 14 15 15 16 16 17 17 17 18 17 17 17 18 17 17 17 15 14 14 14 15 15 15 15 16 16 16 16 16 16 16 16
8 9 9 9 10 11 11 11 12 13 13 14 15 16 17 16 16 17 18 18 18 18 17 18 17 16 16 16 15 14 14 15 15 15 15 16 16 16 16 16 17 17 17 16
8 9 9 9 10 10 11 12 13 13 15 16 17 18 17 17 17 18 17 18 18 16 17 17 17 16 16 16 16 14 14 15 15 15 15 16 16 16 16 16 17 17 17 17
9 9 9 10 10 11 12 13 15 16 17 17 17 18 18 18 18 18 17 16 16 15 16 16 16 15 16 16 16 15 14 15 15 15 15 16 16 16 16 17 16 16 16 16
10 10 11 12 12 12 14 15 16 18 17 17 17 17 17 17 17 17 16 13 15 16 15 16 15 15 14 15 16 14 15 15 15 16 16 16 16 16 16 16 15 15 15 14
11 12 13 14 15 15 16 15 16 18 18 17 16 17 17 17 17 16 16 15 13 15 14 14 14 15 15 17 15 15 15 16 16 16 16 16 16 16 16 15 15 14 13 13
11 12 14 15 15 15 15 16 18 17 18 18 17 16 14 13 13 13 13 14 13 14 14 13 15 16 16 15 15 15 16 16 16 16 16 16 16 16 15 15 13 13 13 13
12 13 14 14 16 16 17 17 16 16 16 15 15 14 13 13 13 12 12 14 15 15 14 14 15 16 17 15 15 16 17 17 17 17 17 17 16 16 15 14 14 13 13 13
12 13 15 16 16 15 15 15 15 15 15 14 14 14 14 12 12 12 12 13 15 15 13 16 17 17 15 16 16 17 18 17 17 17 17 17 17 16 15 15 14 15 14 14
14 14 14 14 13 13 14 14 14 14 13 13 12 12 12 12 13 13 13 15 14 15 14 15 16 17 17 17 18 18 18 18 18 18 19 18 17 16 16 16 16 16 15 15
12 13 13 13 12 12 13 13 12 12 12 11 12 12 13 13 13 13 15 14 14 15 15 16 16 18 18 19 19 19 19 19 19 20 19 18 18 18 18 18 18 17 16 16

GFSNGP_con_lsi_120.txt.gz
Lid_Strength_Index
11 11 11 11 11 10 13 11 15 14 14 14 14 14 14 14 14 15 15 15 15 15 16 15 15 14 14 14 15 15 15 15 15 15 14 14 14 13 12 13 13 13 13 12
13 11 11 12 11 10 11 12 12 12 13 13 13 13 14 15 15 16 16 16 16 15 15 15 15 14 13 14 15 15 16 16 15 15 15 15 15 15 15 14 14 14 15 15
15 11 12 15 13 12 11 10 11 14 13 13 14 15 16 15 16 16 16 16 17 16 16 16 15 15 14 14 14 15 15 16 16 16 16 16 15 15 16 16 16 16 16 16
15 13 19 13 10 10 11 12 11 13 14 13 14 15 15 15 16 17 17 17 17 17 16 16 15 16 15 14 15 15 15 16 16 16 16 16 16 16 15 16 16 17 17 17
16 15 14 13 12 12 14 14 11 13 13 14 14 14 16 15 16 17 17 17 17 16 16 16 16 15 15 15 15 15 16 15 15 17 17 16 16 16 15 16 16 17 17 17
13 18 19 13 10 9 10 16 11 12 13 13 13 16 17 15 15 16 16 17 17 17 16 17 16 15 17 17 16 16 16 16 15 15 17 18 17 17 16 16 16 16 17 17
14 16 14 10 9 9 16 15 10 10 11 12 13 14 14 14 15 15 16 17 16 17 17 17 17 16 17 17 17 16 15 15 16 16 16 17 17 17 17 16 17 17 17 17
13 16 17 9 10 13 11 9 10 11 12 15 15 15 15 15 16 15 16 16 16 18 18 17 16 17 17 16 15 15 14 15 14 15 15 15 17 18 18 18 17 18 19 19
14 13 11 10 10 9 9 10 11 12 13 14 15 16 15 15 15 15 15 16 15 18 18 17 16 16 17 16 15 15 14 14 14 14 15 15 17 17 18 17 18 18 19 20
12 12 12 11 10 9 9 11 11 11 12 13 14 14 15 14 15 15 15 15 14 15 17 18 16 15 15 14 14 14 14 14 13 14 15 15 15 17 18 18 19 19 18 19
12 12 12 11 10 11 11 11 12 11 12 13 13 14 14 14 14 14 14 14 14 15 16 16 15 15 14 13 13 13 13 13 13 13 13 14 15 16 17 16 16 18 18 18
12 10 11 12 11 11 12 13 12 12 12 12 13 14 13 14 13 14 14 14 15 15 16 16 15 15 14 13 13 13 13 13 14 13 13 14 14 14 13 14 14 15 15 16
9 9 10 11 11 11 12 12 11 11 11 13 12 12 13 14 14 14 14 15 15 16 16 16 16 16 14 13 13 14 14 14 13 14 14 14 14 15 16 14 13 14 15 16
8 10 12 12 13 11 11 11 10 11 11 12 12 13 14 15 14 15 16 16 15 16 16 16 16 17 15 14 13 14 15 15 14 14 15 15 15 15 15 16 17 17 15 16
9 8 10 10 11 11 10 10 11 12 12 13 12 13 14 15 16 17 16 16 16 17 17 17 18 18 16 15 14 14 15 16 15 15 15 16 15 15 16 16 17 17 17 18
9 9 10 11 12 11 11 11 12 12 13 13 14 14 15 15 16 17 17 17 17 18 18 20 19 18 16 16 16 14 14 17 17 15 16 16 16 16 17 17 17 18 18 19
10 11 11 12 12 11 11 10 11 12 13 13 14 15 15 16 17 18 18 18 19 18 17 18 19 19 19 18 17 14 15 15 17 15 16 16 17 17 17 18 18 18 18 19
8 8 9 10 11 10 10 10 11 12 13 14 16 17 19 19 18 19 19 19 19 20 19 19 19 18 19 18 17 14 15 15 15 16 16 17 17 17 17 18 18 19 19 19
7 8 9 9 9 10 10 11 12 14 16 17 18 18 18 19 19 19 18 20 20 18 18 18 16 16 16 17 16 15 15 15 16 16 16 18 17 17 18 18 18 18 19 19
8 8 9 10 9 10 13 14 15 16 17 17 18 18 18 19 19 20 18 17 17 16 16 16 16 15 15 15 17 15 15 16 16 16 17 17 17 17 17 18 18 18 18 18
9 9 10 11 13 14 14 15 16 18 17 18 18 19 19 18 19 19 18 15 16 16 15 17 15 15 15 17 16 15 15 16 17 17 17 18 18 18 18 18 18 18 18 18
10 12 13 14 14 15 15 15 16 17 18 18 18 18 19 18 19 18 17 14 14 18 15 14 14 18 17 19 15 15 16 16 17 17 18 18 19 19 19 19 19 18 18 18
11 12 13 14 15 15 15 16 17 17 17 18 18 17 16 15 14 14 15 14 13 16 14 15 18 19 20 16 15 16 17 18 18 18 18 19 19 19 20 19 19 19 18 17
12 13 14 14 15 16 17 17 16 16 17 17 17 17 13 13 13 12 13 15 17 16 14 16 18 19 21 16 16 17 18 18 19 19 19 20 20 20 20 20 20 19 18 17
12 13 14 16 15 16 16 16 16 16 16 15 15 14 13 12 12 13 13 14 16 16 16 18 18 20 17 17 18 19 19 19 20 20 21 21 21 21 21 20 20 19 19 18
12 13 14 14 13 14 14 14 15 14 14 14 13 13 12 12 13 13 14 16 15 16 15 15 17 18 18 19 20 20 20 20 21 22 22 22 22 22 22 21 21 20 20 20
12 12 13 12 12 13 13 13 14 14 13 13 13 12 13 13 13 13 14 14 14 15 15 16 16 18 19 20 20 20 21 21 23 23 22 23 23 23 22 22 22 21 21 20

GFSNGP_con_lsi_123.txt.gz
Lid_Strength_Index
15 13 13 13 13 12 14 12 16 16 15 14 12 13 14 14 14 15 16 16 16 16 16 16 16 16 15 15 15 15 16 16 16 15 15 14 15 14 14 13 13 13 13 13
20 13 12 13 12 12 13 13 14 14 15 12 12 13 14 15 16 17 17 17 17 16 17 17 16 17 16 16 16 16 16 17 16 16 15 15 15 15 15 15 15 15 15 15
19 12 12 16 15 13 12 11 11 15 14 13 14 15 15 16 16 17 17 17 18 18 17 17 17 17 17 16 16 16 16 17 17 17 17 16 15 15 16 16 16 17 16 16
17 15 20 15 10 10 12 11 12 14 14 14 15 15 15 15 17 17 18 18 18 18 18 17 16 16 16 15 16 16 17 17 17 18 18 17 17 16 16 17 17 17 18 17
17 17 14 13 12 12 14 13 12 13 14 15 15 16 16 16 16 17 18 18 18 17 17 17 17 16 17 16 16 16 17 17 17 18 19 19 18 18 18 17 18 19 19 18
15 18 20 14 10 9 9 17 10 12 14 15 15 17 18 16 16 17 17 18 19 18 17 18 17 17 18 17 16 16 16 17 16 16 18 19 19 19 18 18 19 19 20 20
15 16 14 11 9 8 16 16 11 12 13 14 16 16 16 16 17 17 18 19 18 19 20 19 18 18 18 19 17 17 16 14 15 15 16 17 17 18 19 19 19 20 20 20
14 16 18 10 10 13 13 11 11 11 13 15 16 17 17 17 18 17 18 19 20 21 21 19 19 19 19 17 18 17 17 17 16 16 16 17 18 18 18 18 18 19 19 20
13 15 12 11 12 10 10 12 13 14 14 15 17 17 17 17 17 17 18 19 19 21 22 20 18 18 17 17 18 18 16 17 18 17 17 17 18 18 18 18 19 19 19 19
14 14 12 11 10 10 10 12 13 13 14 15 17 16 17 16 16 17 17 18 17 19 20 20 20 18 17 16 16 18 17 17 16 19 18 18 18 17 18 18 19 19 19 19
13 12 12 11 11 11 12 12 13 13 14 15 15 16 16 17 17 17 18 18 17 17 17 18 17 18 17 15 15 15 16 16 16 15 17 18 17 17 17 16 16 18 18 18
16 12 12 13 11 11 12 13 13 14 14 14 14 15 15 16 15 15 16 16 17 17 18 18 17 17 15 15 15 15 15 15 16 16 16 16 16 17 13 14 14 15 15 16
12 10 11 11 12 11 12 12 12 13 13 14 13 14 14 16 16 15 16 16 17 18 18 18 18 17 17 15 15 15 16 15 15 16 16 16 17 17 19 18 14 15 15 15
10 10 12 12 13 12 11 11 11 12 12 12 13 15 16 16 16 17 17 17 17 18 18 18 18 19 17 16 15 17 17 18 17 17 19 19 19 19 19 19 20 21 17 17
10 9 11 10 11 11 11 11 13 13 13 14 15 15 16 17 18 19 17 16 17 18 19 20 19 20 18 16 16 16 16 19 19 20 20 20 21 20 21 21 22 23 23 20
9 10 10 11 11 11 11 12 13 14 14 14 15 16 16 17 17 18 18 17 19 21 21 24 20 22 18 18 18 18 20 19 21 21 21 21 21 21 21 21 22 23 23 23
10 12 11 11 11 11 12 12 13 13 14 15 16 16 16 18 19 20 21 20 21 21 21 22 24 25 24 24 22 20 21 19 20 20 21 21 21 22 21 22 23 23 24 26
8 9 10 10 11 11 11 11 12 13 14 15 16 17 19 20 21 22 23 23 25 26 26 25 25 24 23 23 20 17 19 18 18 19 19 21 20 19 21 21 21 23 24 23
7 9 9 10 10 10 11 12 13 15 16 17 18 20 22 22 24 26 27 27 27 26 25 25 19 20 20 20 19 18 19 20 19 18 19 21 22 21 22 22 22 24 24 21
9 9 9 9 10 12 15 15 16 17 18 18 20 22 23 25 25 26 25 21 21 21 21 19 19 17 18 18 20 18 20 22 19 21 23 22 24 24 25 23 22 23 25 26
11 10 11 13 14 14 15 15 16 17 18 18 20 21 23 23 23 23 22 20 21 21 17 19 18 18 18 20 19 23 23 24 24 24 25 25 27 26 26 26 27 26 22 22
12 13 14 14 15 16 15 16 16 17 18 19 21 21 21 22 22 21 20 18 17 20 17 16 17 21 20 22 19 21 22 22 23 23 24 25 26 24 25 28 27 23 22 23
13 13 14 14 15 16 16 17 17 18 18 19 19 20 20 18 18 19 19 16 16 19 16 19 22 24 24 25 24 24 25 25 26 27 28 29 28 30 30 26 24 24 26 25
14 14 15 15 16 17 18 18 17 18 19 18 19 19 17 18 18 15 16 17 20 21 18 22 23 23 22 21 24 26 28 29 28 27 27 29 32 32 29 28 25 27 30 27
14 15 16 17 17 17 17 16 17 16 17 16 16 16 15 13 15 16 17 18 18 19 19 22 23 24 24 28 28 28 29 27 26 30 32 33 30 31 33 28 31 31 30 28
14 15 15 14 15 15 16 16 17 17 16 18 18 19 19 16 16 16 17 18 18 18 18 21 26 25 26 28 28 28 27 26 29 31 33 30 31 32 31 32 34 32 31 29
12 13 14 14 14 15 15 15 16 17 17 16 16 17 16 16 17 16 18 17 18 19 20 22 23 24 27 27 27 28 28 29 31 32 33 32 35 35 34 35 33 30 26 26

GFSNGP_con_lsi_126.txt.gz
Lid_Strength_Index
15 13 13 15 15 14 16 13 16 17 15 15 13 13 13 14 14 15 16 16 17 17 17 17 17 17 16 16 16 17 17 18 18 18 16 15 16 16 16 15 15 14 14 13
22 14 14 16 14 13 13 13 15 16 14 13 13 13 14 15 15 16 17 17 17 17 17 17 17 17 16 16 16 16 17 18 18 18 18 17 16 16 17 17 17 17 16 15
21 14 14 17 14 14 15 13 13 15 13 14 15 14 15 16 16 17 17 18 18 18 17 17 17 16 17 16 16 17 17 18 19 18 19 18 18 17 18 19 18 18 18 17
18 17 21 15 10 11 12 11 12 14 14 13 14 15 15 15 16 17 18 18 18 18 18 17 17 17 16 16 16 16 17 17 19 19 20 19 18 19 19 19 20 19 18 18
19 18 14 13 12 12 14 14 12 14 14 15 16 16 17 16 16 18 18 18 18 18 17 17 17 16 16 16 15 15 16 16 16 18 19 20 20 20 19 20 20 20 20 19
16 18 20 14 10 9 10 19 12 13 15 16 16 18 18 17 17 18 18 18 19 18 17 18 18 16 18 17 16 16 16 16 16 16 17 18 18 18 19 19 20 20 20 19
15 16 14 10 10 9 18 17 12 13 14 15 17 15 16 16 17 17 18 19 19 20 21 20 19 18 18 18 18 19 18 16 16 16 17 17 17 18 18 18 18 18 17 17
14 16 17 10 10 14 13 12 11 13 13 15 17 17 18 18 18 18 19 20 21 21 21 20 19 20 19 19 19 20 21 20 19 18 17 18 18 17 18 18 18 18 18 17
14 15 12 11 11 11 10 12 12 12 13 16 18 18 18 17 17 17 19 20 20 22 21 21 20 19 19 19 19 19 18 20 23 21 19 19 18 18 18 18 18 18 18 18
14 13 12 12 11 10 11 13 13 12 14 15 17 17 18 17 17 17 17 19 18 19 21 21 20 18 19 17 17 18 17 17 17 18 19 19 18 17 17 18 19 18 18 18
15 15 12 11 12 12 13 13 14 13 14 15 16 17 17 17 17 18 18 17 17 18 18 18 17 18 18 17 16 15 17 17 17 16 17 17 16 16 16 16 17 18 18 18
16 12 12 14 12 11 13 14 14 15 15 15 15 16 16 17 16 17 17 17 18 18 18 18 18 17 16 15 15 16 15 16 17 17 17 17 19 18 14 15 15 15 14 16
12 10 11 11 11 11 12 13 13 14 14 15 14 15 15 16 16 15 17 17 18 18 18 18 18 18 17 15 15 16 16 16 17 17 17 18 19 19 22 20 16 16 16 15
10 10 11 11 12 11 11 12 12 13 13 14 14 14 15 16 16 17 18 18 18 18 18 18 18 19 17 16 16 18 18 20 19 20 21 21 24 22 23 22 23 24 19 17
10 9 10 10 10 11 10 11 13 14 14 14 14 15 16 17 18 18 18 17 18 19 20 19 19 21 18 16 15 17 17 21 23 24 24 24 24 23 23 24 26 26 25 22
9 9 10 11 11 10 11 12 13 14 14 15 16 16 16 17 18 18 18 19 20 22 21 24 21 22 19 19 18 19 21 21 23 23 23 23 23 22 22 23 23 24 24 26
11 11 10 11 11 11 11 12 12 13 14 15 16 16 17 18 19 20 20 20 21 23 22 23 24 27 26 25 22 22 23 20 21 21 21 21 21 21 21 22 22 22 24 27
9 9 9 10 10 11 11 12 13 14 14 15 16 17 19 19 20 21 22 22 25 27 27 26 26 25 24 24 21 19 20 19 19 20 19 21 21 20 22 22 21 22 23 23
9 10 10 10 9 10 11 12 13 14 15 16 17 18 19 20 21 22 24 25 27 26 24 25 20 21 21 20 19 19 20 22 20 20 20 23 24 23 24 25 26 25 23 22
9 10 10 9 9 10 13 14 15 16 16 17 19 19 21 22 22 24 24 24 23 22 21 20 19 18 18 18 20 19 21 23 20 23 25 25 28 29 28 26 25 26 26 25
10 9 10 11 13 13 14 14 16 17 17 17 18 20 21 22 23 23 23 20 21 21 17 19 18 18 18 20 18 24 24 26 26 28 29 31 31 30 30 30 29 29 28 27
11 13 13 13 14 15 14 15 15 17 17 18 19 20 21 22 23 22 22 19 18 19 18 17 18 21 21 21 20 24 24 24 26 26 29 30 32 33 33 32 29 27 29 30
14 14 14 14 15 15 15 16 16 17 18 18 19 20 19 19 18 19 19 17 16 19 17 18 22 24 22 23 25 28 28 28 29 31 33 34 35 35 34 32 32 33 34 32
14 14 15 15 15 16 17 17 16 16 17 17 18 18 18 18 18 16 16 17 18 18 19 22 22 22 25 26 28 28 28 31 33 34 32 33 36 36 35 36 36 37 36 34
16 15 16 16 16 16 16 16 16 17 17 16 17 17 16 15 17 18 17 18 18 19 20 21 21 24 26 28 29 30 32 34 35 36 36 36 37 38 38 38 39 38 36 34
14 15 15 14 15 16 16 16 17 16 16 17 17 17 18 15 16 16 17 19 19 19 20 22 23 25 28 29 30 31 33 32 34 34 36 37 38 38 39 39 39 38 36 33
13 14 14 14 14 15 16 16 17 17 17 17 17 18 17 16 16 17 17 18 19 19 20 22 24 26 29 29 30 32 34 35 35 34 38 39 40 41 41 40 40 38 36 32

GFSNGP_con_lsi_129.txt.gz
Lid_Strength_Index
14 13 13 14 14 14 17 15 19 16 16 15 13 13 14 14 14 15 16 17 17 17 17 17 16 17 17 16 17 17 18 19 19 19 18 18 18 18 18 17 16 16 15 15
21 14 13 15 15 15 16 15 16 16 14 13 13 14 15 15 15 16 17 17 17 17 17 17 17 17 16 16 17 17 18 19 19 19 19 18 19 19 19 19 18 17 17 16
20 14 14 18 15 15 15 13 13 16 14 14 15 14 15 16 16 16 17 17 18 18 17 17 17 17 17 16 16 17 18 19 19 20 20 20 19 19 20 20 19 18 18 17
19 16 22 16 12 12 13 12 12 13 15 13 14 15 15 15 17 17 17 17 18 18 17 17 17 17 16 15 16 16 16 17 18 19 20 20 20 20 20 20 20 19 19 18
17 18 17 14 12 12 13 14 12 14 13 15 16 16 18 15 16 17 18 18 20 19 17 18 17 16 16 15 16 16 16 16 16 17 18 19 19 19 19 19 19 19 18 18
16 20 21 14 10 9 11 19 12 13 15 16 16 19 20 16 17 17 18 18 19 19 18 18 18 16 18 18 17 17 17 16 16 16 17 18 18 18 18 18 18 17 17 16
16 17 15 11 9 9 18 17 12 13 14 16 17 18 17 16 17 17 18 19 19 20 21 21 20 17 19 20 21 20 18 17 17 17 17 17 18 18 17 17 17 17 17 17
15 16 18 10 10 13 13 12 12 13 14 16 17 18 18 18 18 18 19 19 22 21 22 22 20 19 19 20 22 21 21 20 20 20 18 19 18 18 18 18 17 17 18 18
13 14 12 11 12 10 11 12 12 13 13 16 18 19 18 18 18 18 19 19 20 21 21 21 20 21 19 21 20 19 20 21 23 21 20 21 20 19 19 18 18 18 18 19
12 12 12 12 11 11 11 12 12 12 15 16 17 18 18 18 17 18 18 19 20 19 21 22 23 20 21 20 20 20 20 20 20 20 20 19 19 18 18 19 18 19 19 20
13 14 12 12 12 11 12 12 13 13 14 15 16 17 17 17 17 17 18 18 18 18 18 19 18 19 20 18 17 17 17 18 18 17 20 20 18 17 18 18 16 18 20 19
14 12 12 14 14 12 13 13 13 14 15 15 15 16 16 16 16 17 17 17 18 18 18 18 17 17 16 15 15 16 16 17 18 18 18 18 20 21 16 16 15 15 15 17
13 11 12 13 12 12 13 13 12 13 14 15 15 15 15 16 16 16 17 18 18 18 18 18 17 17 16 15 15 16 17 17 17 17 18 20 21 21 24 21 16 16 16 16
11 11 12 12 14 11 12 12 11 13 13 14 15 15 15 16 15 17 18 18 18 18 18 18 19 19 18 16 17 18 19 21 21 22 24 24 26 25 26 26 28 25 20 17
11 11 11 11 11 11 11 11 13 14 14 14 14 15 15 16 17 18 18 17 18 19 19 19 20 22 18 15 16 18 18 22 24 25 26 26 25 24 25 25 27 27 25 22
11 11 11 11 11 11 11 12 13 13 13 14 15 16 16 17 18 18 18 19 20 21 21 23 21 22 20 18 18 21 24 24 24 24 24 24 24 24 23 24 24 25 24 24
12 11 10 10 10 10 11 11 12 13 14 15 16 16 17 17 18 19 20 20 21 22 22 22 24 27 26 25 21 22 23 22 22 21 22 22 23 22 22 23 23 23 25 27
10 10 10 10 9 10 11 11 11 13 14 15 16 17 18 18 19 20 21 21 22 24 25 25 26 25 25 24 21 20 20 20 19 21 21 23 22 22 24 24 24 24 25 24
10 10 10 10 9 10 10 12 13 13 15 16 17 18 18 19 19 21 22 22 22 22 23 25 20 21 21 20 19 19 20 22 21 21 21 24 25 24 26 27 28 28 27 25
10 11 10 10 9 10 12 13 14 15 16 16 18 19 20 20 21 22 22 22 22 21 21 21 20 18 18 19 19 19 20 23 21 25 26 27 31 33 32 28 28 30 31 29
10 12 10 10 12 11 13 14 14 16 16 17 17 18 19 21 21 21 22 21 20 21 19 20 18 19 18 19 20 23 25 27 28 28 30 33 34 33 35 35 33 34 33 33
11 11 12 13 13 14 13 13 14 16 17 17 18 19 20 21 21 21 21 19 18 20 18 18 18 21 20 20 21 24 24 25 26 28 31 33 35 36 36 36 36 36 37 36
13 15 15 15 15 15 15 15 15 16 17 17 18 19 19 19 19 19 19 17 17 19 17 19 21 22 23 24 25 26 25 29 31 33 36 37 38 38 38 37 38 39 39 36
16 15 16 16 15 15 17 16 16 16 16 17 17 18 18 18 18 16 16 17 18 18 19 22 21 22 24 24 25 26 29 34 35 37 36 37 40 40 40 41 39 40 40 37
17 17 16 16 15 15 16 16 16 16 16 16 17 17 16 16 18 17 17 18 18 19 20 21 22 23 24 25 27 30 34 36 38 38 38 39 40 40 41 42 42 42 42 39
15 15 15 14 14 15 15 15 16 16 16 17 17 17 17 16 17 17 17 18 19 20 20 22 23 24 26 27 31 33 34 33 36 37 39 39 40 40 42 41 43 42 42 40
13 14 14 14 14 15 15 15 16 16 16 16 17 17 16 17 17 18 18 18 19 20 21 23 24 25 27 29 30 33 36 37 37 36 40 41 41 43 43 43 44 43 42 41

GFSNGP_con_lsi_132.txt.gz
Lid_Strength_Index
15 14 15 14 15 14 15 13 17 16 16 13 13 13 14 14 15 16 17 17 17 17 17 16 16 16 16 17 17 17 18 19 20 19 19 19 19 19 18 18 17 16 16 15
20 15 15 16 15 14 14 14 15 16 16 12 12 13 14 15 16 16 17 17 17 17 17 17 16 16 16 17 17 17 19 19 19 20 20 19 19 19 19 18 18 18 17 17
19 15 15 19 17 15 15 15 15 17 14 13 14 14 15 16 16 16 17 17 17 17 17 17 17 16 17 16 16 16 17 18 17 18 19 19 19 19 19 19 18 18 19 18
18 16 21 16 12 12 13 13 13 12 13 13 15 17 16 16 16 17 17 17 17 17 17 17 17 16 15 16 16 16 16 17 17 18 18 18 18 18 18 18 18 18 18 19
17 18 16 14 13 13 14 14 11 12 14 15 16 17 17 15 16 17 18 19 20 18 17 17 17 16 16 16 16 16 17 17 16 17 18 19 19 19 18 18 18 18 18 17
17 19 21 15 11 10 12 17 12 12 14 15 16 17 20 16 17 18 19 20 19 18 18 19 18 16 18 18 18 18 17 17 17 16 17 18 18 18 18 17 18 18 18 18
16 17 15 12 11 11 18 16 12 12 13 15 16 17 18 17 18 18 18 19 19 20 20 21 20 17 20 22 21 21 17 16 17 17 17 18 18 17 17 17 18 18 19 18
15 16 19 10 11 14 12 12 12 13 14 17 18 19 18 19 19 18 19 20 21 21 21 23 21 19 21 21 22 22 20 19 19 20 18 18 19 19 18 18 18 19 19 19
13 15 11 11 11 11 11 11 12 13 13 16 18 20 19 19 18 18 19 20 20 21 22 23 21 21 20 22 21 20 20 21 21 21 21 21 22 20 19 19 19 19 19 20
12 12 12 11 11 11 11 11 12 12 14 15 18 19 19 18 18 18 19 19 20 21 21 22 23 19 21 20 20 19 21 21 21 22 21 22 20 19 20 19 20 20 20 21
14 12 11 11 11 11 12 12 12 13 13 15 17 18 18 18 18 18 18 18 18 19 18 19 18 19 20 18 17 17 18 18 19 19 22 22 21 21 18 18 17 20 20 20
14 10 11 12 13 11 13 13 13 13 14 14 16 17 16 17 17 17 18 18 18 18 18 18 17 17 16 15 16 17 17 17 19 19 20 19 21 22 16 15 15 15 15 17
12 11 12 13 13 12 12 12 12 12 13 14 15 16 15 16 16 16 17 17 18 18 18 17 17 17 17 16 16 17 18 17 18 18 19 20 22 22 24 21 17 16 16 16
11 12 13 13 14 12 12 12 11 13 13 13 13 14 14 15 15 16 17 18 18 18 18 18 18 19 19 17 18 19 20 21 21 23 24 25 27 26 27 27 28 26 20 17
11 11 11 12 12 13 12 12 13 13 13 13 13 14 14 16 17 17 17 17 17 18 19 19 20 21 19 17 18 19 19 23 24 27 27 27 26 26 26 26 27 26 25 22
12 12 12 12 12 12 12 12 12 13 13 13 13 14 14 15 17 18 18 18 19 20 20 21 20 22 20 18 19 20 23 24 24 24 24 25 26 25 24 25 25 25 24 24
13 12 12 12 12 12 11 11 12 12 12 13 14 14 16 17 18 19 19 19 20 20 21 21 22 25 23 23 21 21 22 22 23 22 23 24 24 25 24 26 26 25 26 27
11 11 10 10 11 10 11 10 11 12 13 13 15 16 17 18 18 19 20 21 21 22 22 23 24 23 23 23 20 20 20 20 20 22 22 24 24 23 26 26 25 26 27 26
10 10 11 10 9 9 10 11 12 12 14 15 16 17 17 17 19 20 21 21 21 22 23 24 19 20 20 21 19 19 20 21 21 21 22 26 27 26 28 29 30 31 29 27
11 11 11 11 10 10 12 12 13 14 15 15 16 18 19 19 20 21 21 21 20 19 20 20 19 19 19 18 19 20 20 22 22 25 28 28 32 35 32 29 30 33 35 32
10 11 13 10 11 12 13 13 14 15 15 16 17 18 19 20 20 20 21 21 21 20 18 19 18 19 19 20 20 22 23 25 26 28 31 32 34 33 36 38 36 38 38 37
16 13 10 12 12 15 14 13 14 15 16 16 17 19 20 20 20 20 20 19 18 19 18 18 18 20 20 20 21 23 23 24 26 28 31 34 36 37 39 39 39 39 40 40
11 11 12 13 15 16 14 15 15 15 16 17 18 19 19 19 19 20 20 17 17 18 17 19 21 21 21 22 23 25 25 27 31 33 35 37 39 40 39 39 40 41 42 39
13 14 16 16 15 16 16 17 15 15 16 16 17 17 18 19 18 16 16 18 18 17 19 21 21 22 23 24 26 26 27 32 33 36 36 39 42 42 42 43 40 42 42 41
17 18 18 17 16 16 16 15 16 16 16 16 16 16 16 16 18 17 17 17 18 19 20 21 22 23 24 25 25 27 30 33 36 38 40 40 41 42 43 43 43 44 44 43
15 16 15 14 15 15 15 15 16 16 16 17 17 17 17 17 16 17 18 18 19 20 21 22 23 24 24 25 28 31 33 32 36 39 40 41 41 40 42 41 44 43 44 44
15 15 14 15 14 14 15 15 16 16 16 16 17 17 17 17 17 18 19 19 19 20 22 23 23 24 26 28 30 31 33 35 37 37 42 42 42 43 43 44 45 45 45 44